     2              OBSERVATION DATA    GPS                 RINEX VERSION / TYPE
ASRINEXO V2.2.0 UX USGS 02-FEB-94 15:24                     PGM / RUN BY / DATE
                                                            COMMENT
Original Marker Name: mcds MCDS_4-80_City_of_LA             COMMENT
Campaign Name: USGS-Northridge                              COMMENT
4-Character Station Name: MCDS                              COMMENT
6-Character Antenna Code: ASHL12                            COMMENT
Vertical Measurement Point: BBE                             COMMENT
Vertical Offset to Rinex Ref. Point: 0.0595                 COMMENT
Radial Measurement Point: EGP                               COMMENT
Radial Offset to Rinex Ref. Point: 0.1424                   COMMENT
Antenna Height from Field Measurement: 1.5920 m             COMMENT
Additional Antenna Identification Info.:                    COMMENT
Original Ashtech L1/L2                                      COMMENT
Original XYZ: -2517007.4900 -4627945.3000 3583924.3800      COMMENT
New XYZ position is based on association with SCEC monument COMMENT
E1C7Z1T5+0011. Position of that monument is believed to be  COMMENT
valid to within 1 m horizontally; vertical accuracy         COMMENT
should be no worse than 3-times this value.                 COMMENT
                                                            COMMENT
Revised Rinex header created by UCSD GPS archive for        COMMENT
GSAC on 31-Aug-1999 (1999:243) 17:47:35 GMT                 COMMENT
For assistance contact dagnew@ucsd.edu or hjohnson@ucsd.edu COMMENT
                                                            COMMENT
MCDS MCDS_4-80_CITY_OF_LA                                   MARKER NAME
                                                            MARKER NUMBER
MWC US GEOLOGICAL SURVEY                                    OBSERVER / AGENCY
762 ASHTECH L-XII 7A                                        REC # / TYPE / VERS
745 ASHTECH GEODETIC L                                      ANT # / TYPE
 -2523255.0000 -4639026.0000  3565112.0000                  APPROX POSITION XYZ
        1.5261        0.0000        0.0000                  ANTENNA: DELTA H/E/N
     1     2     0                                          WAVELENGTH FACT L1/2
     3    C1    L1    L2                                    # / TYPES OF OBSERV
    30                                                      INTERVAL
  1994     2     1    17    17   30.000000                  TIME OF FIRST OBS
  1994     2     1    23    59    0.000000                  TIME OF LAST OBS
                                                            END OF HEADER
 94  2  1 17 17 30.0000000  0  3  1 14 15
  23398519.572    21691685.12516    135335.675
  22620576.880     3984694.27817   -191028.309 1
  20802263.433    12641473.53118     10217.630
 94  2  1 17 18  0.0000000  0  3  1 14 15
  23411242.734    21758582.370 6    187462.136 1
  22603248.697     3893633.407 7   -261984.811 3
  20802950.197    12645066.166 8     13014.790
 94  2  1 17 18 30.0000000  0  3  1 14 15
  23423920.387    21825151.783 6    239334.313 1
  22585875.184     3802339.678 7   -333122.774 4
  20803686.877    12648955.841 8     16041.638
 94  2  1 17 19  0.0000000  0  4  1 25 14 15
  23436553.072    21891545.719 6    291069.756 2
  20651326.204    22048047.93319     10916.315
  22568485.992     3710958.522 7   -404328.843 5
  20804512.925    12653293.168 8     19415.832
 94  2  1 17 19 30.0000000  0  5  1 29 25 14 15
  23449164.771    21957864.115 6    342746.356 2
  23652017.299   -12470144.67516   -187251.425 1
  20652548.368    22054473.759 9     15919.712 4
  22551096.471     3619575.671 7   -475536.246 5
  20805440.513    12658170.321 8     23215.783 2
 94  2  1 17 20  0.0000000  0  5  1 29 25 14 15
  23461767.147    22024145.920 6    394394.467 2
  23637585.410   -12545936.604 6   -246310.044 1
  20653872.941    22061433.606 9     21342.949 7
  22533713.245     3528222.424 7   -546720.586 5
  20806480.044    12663622.095 8     27463.908 5
 94  2  1 17 20 30.0000000  0  5  1 29 25 14 15
  23474392.186    22090419.418 5    446036.051 3
  23623195.072   -12621607.941 6   -305274.692 2
  20655296.236    22068936.442 9     27189.310 8
  22516341.651     3436935.735 7   -617853.078 5
  20807631.277    12669675.929 8     32181.167 6
 94  2  1 17 21  0.0000000  0  5  1 29 25 14 15
  23487022.113    22156746.453 5    497719.405 3
  23608818.465   -12697113.439 6   -364110.093 2
  20656837.979    22077006.898 9     33477.997 9
  22498990.413     3345768.089 7   -688892.825 5
  20808909.382    12676389.070 8     37412.160 6
 94  2  1 17 21 30.0000000  0  5  1 29 25 14 15
  23499660.194    22223198.422 5    549500.127 4
  23594494.981   -12772374.214 6   -422754.801 2
  20658486.717    22085690.993 9     40244.817 9
  22481681.776     3254798.374 7   -759778.314 5
  20810322.603    12683831.150 8     43211.163 7
 94  2  1 17 22  0.0000000  0  5  1 29 25 14 15
  23512363.629    22289946.929 6    601511.840 4
  23580257.298   -12847231.001 6   -481084.699 2
  20660286.701    22095136.010 9     47604.555 9
  22464435.855     3164182.133 7   -830388.361 5
  20811912.883    12692161.621 8     49702.438 7
 94  2  1 17 22 30.0000000  0  5  1 29 25 14 15
  23525082.954    22356791.096 6    653598.182 4
  23566048.184   -12921899.718 5   -539268.072 2
  20662184.687    22105124.450 9     55387.744 9
  22447225.099     3073708.774 7   -900887.041 5
  20813621.670    12701170.136 8     56722.013 8
 94  2  1 17 23  0.0000000  0  5  1 29 25 14 15
  23537829.380    22423737.136 6    705763.817 4
  23551868.031   -12996367.694 5   -597295.042 2
  20664196.325    22115677.408 9     63610.838 9
  22430033.561     2983400.735 7   -971256.919 6
  20815477.235    12710873.088 8     64282.750 8
 94  2  1 17 23 30.0000000  0  5  1 29 25 14 15
  23550585.039    22490798.216 6    758019.137 4
  23537749.725   -13070603.171 6   -655140.818 3
  20666319.695    22126851.339 9     72317.788 9
  22412887.741     2893293.731 7  -1041470.138 6
  20817452.867    12721297.727 8     72405.816 8
 94  2  1 17 24  0.0000000  0  5  1 29 25 14 15
  23563368.549    22557963.953 6    810355.979 4
  23523665.295   -13144596.186 6   -712797.627 3
  20668567.688    22138677.317 9     81532.826 9
  22395785.720     2803388.982 7  -1111525.741 6
  20819577.466    12732452.121 8     81097.513 8
 94  2  1 17 24 29.9990000  0  5  1 29 25 14 15
  23576161.533    22625242.332 6    862780.610 4
  23509643.702   -13218303.356 6   -770231.676 3
  20670953.107    22151200.012 9     91290.754 9
  22378719.555     2713732.186 7  -1181388.175 6
  20821844.467    12744367.801 8     90382.436 8
 94  2  1 17 24 59.9990000  0  5  1 29 25 14 15
  23588994.389    22692631.443 6    915291.610 3
  23495672.265   -13291715.877 6   -827436.178 3
  20673477.299    22164438.937 9    101606.792 9
  22361706.363     2624326.446 7  -1251054.977 6
  20824258.186    12757051.112 8    100265.497 9
 94  2  1 17 25 29.9990000  0  5  1 29 25 14 15
  23601837.888    22760137.280 6    967893.431 3
  23481758.237   -13364828.396 6   -884406.863 3
  20676128.934    22178393.356 9    112480.349 9
  22344740.208     2535160.933 7  -1320534.576 6
  20826819.523    12770500.715 7    110745.692 9
 94  2  1 17 25 59.9990000  0  5  1 29 25 14 15
  23614706.209    22827779.133 6   1020601.310 3
  23467896.733   -13437642.333 5   -941144.932 3
  20678918.563    22193040.816 9    123893.949 9
  22327820.521     2446237.754 7  -1389825.346 6
  20829522.182    12784716.461 8    121822.864 9
 94  2  1 17 26 29.9990000  0  5  1 29 25 14 15
  23627615.452    22895604.058 6   1073451.835 3
  23454106.730   -13510136.218 6   -997633.589 3
  20681839.351    22208392.053 9    135855.952 9
  22310948.832     2357592.292 7  -1458899.713 5
  20832377.345    12799720.277 8    133514.132 8
 94  2  1 17 26 59.9990000  0  6  1 29 25 22 14 15
  23640551.107    22963616.188 5   1126448.297 3
  23440374.646   -13582320.440 5  -1053880.965 3
  20684894.056    22224443.001 9    148363.158 9
  24474419.872    18733694.45915   -221561.815
  22294134.102     2269224.593 8  -1527757.640 6
  20835387.112    12815511.202 8    145818.732 8
 94  2  1 17 27 29.9990000  0  6  1 29 25 22 14 15
  23653541.804    23031822.079 6   1179595.658 3
  23426694.607   -13654210.991 6  -1109899.488 3
  20688078.391    22241181.065 9    161405.820 9
  24455790.169    18635797.802 5   -297844.771 1
  22277372.526     2181139.592 7  -1596395.285 6
  20838535.262    12832087.937 8    158735.646 8
 94  2  1 17 27 59.9990000  0  6  1 29 25 22 14 15
  23666555.165    23100218.485 6   1232891.491 4
  23413063.044   -13725812.635 6  -1165692.870 3
  20691386.931    22258599.694 9    174978.773 9
  24437184.269    18538000.506 4   -374050.305 1
  22260664.792     2093346.694 7  -1664805.301 5
  20841842.393    12849444.773 8    172260.430 8
 94  2  1 17 28 29.9990000  0  6  1 29 25 22 14 15
  23679595.357    23168781.103 6   1286316.800 4
  23399494.227   -13797125.589 6  -1221261.383 3
  20694835.384    22276701.225 9    189083.832 9
  24418589.432    18440294.033 5   -450184.945 1
  22244011.861     2005837.248 7  -1732994.501 5
  20845290.486    12867572.579 8    186385.959 9
 94  2  1 17 28 59.9990000  0  6  1 29 25 22 14 15
  23692676.381    23237502.696 6   1339866.049 4
  23385976.136   -13868147.448 6  -1276603.025 3
  20698411.458    22295494.004 9    203727.552 9
  24400005.058    18342667.664 4   -526257.111 1
  22227412.113     1918604.612 7  -1800967.954 5
  20848890.513    12886471.321 8    201112.242 9
 94  2  1 17 29 29.9990000  0  6  1 29 25 22 14 15
  23705779.740    23306389.128 6   1393543.664 3
  23372521.480   -13938879.468 6  -1331718.856 3
  20702119.951    22314973.108 9    218906.063 9
  24381433.635    18245141.387 4   -602251.419 1
  22210864.498     1831652.435 7  -1868722.900 5
  20852630.274    12906139.020 8    216437.692 9
 94  2  1 17 29 59.9990000  0  6  1 29 25 22 14 15
  23718924.710    23375436.306 6   1447346.590 3
  23359116.050   -14009306.892 6  -1386597.286 3
  20705958.343    22335143.251 9    234623.054 9
  24362909.998    18147728.058 4   -678157.589 1
  22194372.076     1744981.951 7  -1936258.289 5
  20856520.172    12926574.636 8    232361.516 9
 94  2  1 17 30 29.9990000  0  6  1 29 25 22 14 15
  23732093.753    23444639.870 6   1501271.343 3
  23345771.389   -14079437.855 6  -1441244.742 3
  20709929.184    22356007.620 9    250880.985 9
  24344400.003    18050436.491 5   -753968.975 2
  22177936.224     1658592.630 7  -2003574.593 6
  20860554.059    12947775.157 8    248881.367 9
 94  2  1 17 30 59.9990000  0  6  1 29 25 22 14 15
  23745290.108    23514004.628 5   1555321.716 3
  23332481.499   -14149284.901 6  -1495670.950 3
  20714026.478    22377563.989 9    267678.148 9
  24325916.988    17953283.701 4   -829672.139 2
  22161551.787     1572490.748 7  -2070666.932 6
  20864733.975    12969742.510 8    265998.790 9
 94  2  1 17 31 29.9990000  0  6  1 29 25 22 14 15
  23758525.285    23583520.893 5   1609490.175 3
  23319242.334   -14218846.745 6  -1549874.951 3
  20718259.397    22399789.030 9    284996.383 9
  24307432.774    17856283.156 4   -905256.779 2
  22145219.514     1486680.156 8  -2137532.305 6
  20869058.302    12992472.521 8    283710.456 9
 94  2  1 17 31 59.9990000  0  6  1 29 25 22 14 15
  23771773.144    23653184.672 4   1663773.533 3
  23306063.638   -14288115.057 6  -1603850.227 3
  20722614.453    22422681.326 9    302834.511 9
  24289020.031    17759413.984 5   -980739.070 2
  22128949.357     1401154.032 8  -2204176.032 5
  20873529.916    13015964.677 8    302016.002 8
 94  2  1 17 32 29.9990000  0  6  1 29 25 22 14 15
  23785060.785    23722997.663 5   1718173.281 3
  23292937.615   -14357103.578 6  -1657607.505 3
  20727098.268    22446234.994 9    321188.016 9
  24270609.776    17662662.646 5  -1056129.448 2
  22112726.538     1315904.789 8  -2270604.004 5
  20878148.069    13040215.379 8    320912.630 8
 94  2  1 17 32 59.9990000  0  6  1 29 25 22 14 15
  23798378.136    23792957.245 5   1772687.123 3
  23279858.150   -14425797.588 6  -1711135.281 3
  20731701.162    22470434.149 9    340044.489 9
  24252212.593    17566015.851 5  -1131438.473 2
  22096554.384     1230942.861 8  -2336808.099 5
  20882905.955    13065223.811 8    340399.713 8
 94  2  1 17 33 29.9990000  0  6  1 29 25 22 14 15
  23811716.472    23863059.858 5   1827312.447 3
  23266841.641   -14494203.833 6  -1764438.801 3
  20736429.459    22495270.236 9    359397.293 9
  24233838.763    17469447.513 5  -1206686.490 2
  22080442.368     1146265.136 7  -2402790.718 6
  20887802.435    13090978.553 8    360468.303 8
 94  2  1 17 33 59.9990000  0  6  1 29 25 22 14 15
  23825083.198    23933295.309 6   1882041.313 2
  23253877.835   -14562348.617 6  -1817538.623 3
  20741274.824    22520741.814 9    379245.255 9
  24215474.766    17372928.703 5  -1281895.867 2
  22064379.398     1061863.288 7  -2468558.384 6
  20892837.899    13117459.977 7    381103.150 8
 94  2  1 17 34 29.9990000  0  6  1 29 25 22 14 15
  23838476.846    24003672.244 6   1936880.373 2
  23240959.598   -14630225.131 6  -1870429.328 3
  20746246.702    22546853.929 9    399592.352 9
  24197117.694    17276468.813 5  -1357059.277 2
  22048379.325      977758.805 7  -2534094.296 6
  20898018.223    13144669.984 8    402305.739 8
 94  2  1 17 34 59.9990000  0  6  1 29 25 22 14 15
  23851894.987    24074187.451 5   1991827.191 2
  23228095.054   -14697830.400 6  -1923108.740 3
  20751333.671    22573599.496 9    420433.058 9
  24178772.164    17180078.299 5  -1432168.665 2
  22032423.501      893943.292 7  -2599405.076 6
  20903335.492    13172604.141 7    424072.568 8
 94  2  1 17 35 29.9990000  0  6  1 29 25 22 14 15
  23865339.060    24144850.274 5   2046889.039 2
  23215276.858   -14765158.898 6  -1975572.424 3
  20756552.098    22601004.282 9    441787.438 9
  24160446.901    17083794.186 6  -1507195.108 2
  22016533.331      810405.389 8  -2664499.527 6
  20908791.775    13201272.747 8    446411.725 8
 94  2  1 17 35 59.9990000  0  6  1 29 25 22 14 15
  23878808.555    24215651.467 5   2102058.697 2
  23202521.888   -14832206.950 6  -2027817.613 3
  20761889.183    22629067.119 9    463654.576 9
  24142155.154    16987639.470 6  -1582120.771 2
  22000678.777      727124.815 7  -2729393.501 6
  20914388.090    13230674.806 8    469322.390 8
 94  2  1 17 36 29.9990000  0  6  1 29 25 22 14 15
  23892293.130    24286565.710 4   2157316.420 2
  23189821.601   -14898988.961 6  -2079855.449 4
  20767348.554    22657766.508 9    486017.729 9
  24123881.754    16891623.389 6  -1656938.374 2
  21984877.886      644071.575 7  -2794110.287 6
  20920123.000    13260794.773 8    492792.486 8
 94  2  1 17 36 59.9990000  0  6  1 29 25 22 14 15
  23905815.089    24357570.003 5   2212644.359 2
  23177153.181   -14965525.027 6  -2131701.670 4
  20772932.218    22687089.989 9    508867.197 9
  24105637.584    16795755.541 6  -1731640.399 2
  21969118.546      561241.046 8  -2858653.536 6
  20925987.390    13291625.468 8    516816.360 8
 94  2  1 17 37 29.9990000  0  6  1 29 25 22 14 15
  23919354.256    24428696.611 6   2268067.608 2
  23164548.077   -15031776.711 6  -2183326.260 4
  20778632.952    22717068.141 9    532226.797 9
  24087427.891    16700060.443 5  -1806207.864 2
  21953405.943      478693.601 8  -2922976.200 6
  20931997.120    13323202.521 8    541421.867 8
 94  2  1 17 37 59.9990000  0  6  1 29 25 22 14 15
  23932904.005    24499916.892 5   2323563.848 2
  23151986.054   -15097776.057 6  -2234754.257 4
  20784455.491    22747648.674 9    556055.793 9
  24069244.189    16604488.865 5  -1880679.010 2
  21937751.651      396424.528 7  -2987081.978 7
  20938142.715    13355485.222 8    566577.176 8
 94  2  1 17 38 29.9990000  0  6  1 29 25 22 14 15
  23946481.036    24571236.819 5   2379137.748 2
  23139475.864   -15163512.453 6  -2285977.362 4
  20790386.435    22778832.194 9    580354.632 9
  24051068.102    16509040.792 5  -1955053.924 2
  21922155.757      314469.865 7  -3050942.764 7
  20944413.234    13388475.139 8    592283.574 8
 94  2  1 17 38 59.9990000  0  6  1 29 25 22 14 15
  23960073.266    24642666.481 5   2434797.135 3
  23127017.539   -15228998.415 6  -2337005.296 4
  20796434.298    22810610.729 9    605117.109 9
  24032918.936    16413688.313 4  -2029354.350 2
  21906619.043      232832.267 7  -3114556.441 7
  20950827.354    13422163.610 8    618534.320 8
 94  2  1 17 39 29.9990000  0  6  1 29 25 22 14 15
  23973680.486    24714214.294 4   2490548.558 3
  23114596.058   -15294239.080 6  -2387842.100 4
  20802595.273    22842983.555 9    630342.691 9
  24014798.341    16318423.605 5  -2103586.322 2
  21891143.307      151496.245 7  -3177935.119 7
  20957368.825    13456537.786 8    645319.348 8
 94  2  1 17 39 59.9990000  0  6  1 29 25 22 14 15
  23987317.506    24785882.345 5   2546393.655 3
  23102230.848   -15359251.651 6  -2438501.152 4
  20808870.049    22875958.339 9    656037.321 9
  23996696.003    16223259.479 5  -2177739.926 2
  21875719.674       70446.171 7  -3241091.016 7
  20964038.578    13491589.277 8    672632.174 8
 94  2  1 17 40 29.9990000  0  6  1 29 25 22 14 15
  24000987.412    24857668.361 6   2602330.774 3
  23089902.543   -15424053.307 6  -2488995.883 3
  20815261.924    22909543.216 9    682207.351 9
  23978607.785    16128196.227 5  -2251814.902 2
  21860349.735      -10329.737 7  -3304033.280 7
  20970835.743    13527322.302 8    700476.061 8
 94  2  1 17 40 59.9990000  0  6  1 29 25 22 14 15
  24014676.176    24929594.921 6   2658377.362 2
  23077611.262   -15488622.424 6  -2539309.431 4
  20821771.947    22943759.003 9    708869.005 9
  23960542.562    16033258.003 5  -2325792.506 2
  21845033.068      -90815.378 8  -3366749.360 7
  20977770.961    13563761.300 7    728870.094 8
 94  2  1 17 41 29.9990000  0  6  1 29 25 22 14 15
  24028377.620    25001628.531 5   2714507.291 2
  23065362.372   -15552964.030 6  -2589445.728 4
  20828401.857    22978574.477 9    735997.920 9
  23942494.816    15938443.670 5  -2399673.598 2
  21829770.215     -171035.114 8  -3429258.243 7
  20984835.571    13600881.312 8    757794.738 8
 94  2  1 17 41 59.9990000  0  6  1 29 25 22 14 15
  24042100.800    25073749.615 6   2770705.476 2
  23053167.924   -15617079.929 6  -2639406.124 4
  20835136.485    23013968.060 9    763577.307 9
  23924470.394    15843743.111 5  -2473466.022 2
  21814550.651     -251003.248 7  -3491571.052 8
  20992028.551    13638677.193 7    787246.042 8
 94  2  1 17 42 29.9990000  0  6  1 29 25 22 14 15
  24055832.014    25145916.931 5   2826939.644 2
  23041004.265   -15680985.969 6  -2689203.047 4
  20841975.231    23049905.684 9    791580.636 9
  23906475.501    15749139.226 5  -2547183.051 2
  21799377.555     -330741.345 8  -3553704.613 8
  20999342.048    13677119.488 8    817201.068 8
 94  2  1 17 42 59.9990000  0  6  1 29 25 22 14 15
  24069580.646    25218151.710 5   2883226.409 2
  23028893.339   -15744647.483 6  -2738809.379 4
  20848918.964    23086414.452 9    820029.015 9
  23888491.072    15654668.909 5  -2620796.073 2
  21784250.777     -410226.579 7  -3615641.155 8
  21006783.976    13716222.165 8    847670.669 8
 94  2  1 17 43 29.9990000  0  6  1 29 25 22 14 15
  24083331.227    25290464.747 5   2939574.182 2
  23016820.787   -15808067.700 6  -2788227.663 4
  20855979.946    23123504.905 9    848930.628 9
  23870544.896    15560342.258 6  -2694297.089 2
  21769174.664     -489459.279 7  -3677380.922 8
  21014350.828    13755987.706 8    878656.791 8
 94  2  1 17 43 59.9990000  0  6  1 29 25 22 14 15
  24097121.950    25362876.004 5   2995998.439 2
  23004802.856   -15871233.117 6  -2837447.423 4
  20863153.020    23161208.725 9    878310.205 9
  23852609.392    15466174.125 4  -2767674.629 2
  21754153.683     -568405.806 8  -3738897.646 7
  21022050.187    13796438.748 8    910177.051 8
 94  2  1 17 44 29.9990000  0  6  1 29 25 22 14 15
  24110923.735    25435394.576 5   3052506.326 2
  22992833.403   -15934149.619 6  -2886473.250 4
  20870444.332    23199527.858 9    908169.255 9
  23834728.091    15372158.125 5  -2840933.622 2
  21739184.476     -647051.873 8  -3800180.300 7
  21029875.760    13837569.194 8    942226.732 8
 94  2  1 17 44 59.9990000  0  6  1 29 25 22 14 15
  24124738.381    25508005.725 6   3109086.300 2
  22980893.478   -15996851.118 6  -2935331.510 4
  20877844.739    23238417.027 9    938472.470 9
  23816865.077    15278251.839 6  -2914107.183 2
  21724269.471     -725430.863 8  -3861254.845 7
  21037824.487    13879351.955 8    974784.686 8
 94  2  1 17 45 29.9990000  0  6  1 29 25 22 14 15
  24138598.656    25580719.174 5   3165746.060 2
  22969008.476   -16059334.798 6  -2984020.029 4
  20885349.683    23277864.073 9    969210.405 9
  23799019.182    15184458.553 6  -2987192.645 2
  21709406.960     -803534.527 8  -3922114.827 7
  21045900.057    13921793.776 7   1007856.231 8
 94  2  1 17 45 59.9990000  0  6  1 29 25 22 14 15
  24152421.457    25653521.148 5   3222474.791 2
  22957163.946   -16121603.129 6  -3032540.722 4
  20892962.913    23317845.242 9   1000364.557 9
  23781183.689    15090774.046 5  -3060193.343 3
  21694598.232     -881361.149 8  -3982758.953 7
  21054103.398    13964882.785 8   1041432.052 8
 94  2  1 17 46 29.9990000  0  6  1 29 25 22 14 15
  24166296.331    25726417.432 5   3279276.914 2
  22945348.646   -16183654.311 6  -3080892.263 4
  20900668.628    23358359.840 9   1031934.358 9
  23763383.842    14997217.727 6  -3133094.175 3
  21679839.569     -958909.487 8  -4043186.231 7
  21062426.506    14008617.576 7   1075511.089 8
 94  2  1 17 46 59.9990000  0  6  1 29 25 22 14 15
  24180184.696    25799395.267 4   3336142.710 2
  22933582.721   -16245486.264 6  -3129072.962 4
  20908484.637    23399406.514 9   1063918.762 9
  23745610.766    14903802.384 5  -3205885.131 3
  21665136.158    -1036187.321 8  -4103402.704 7
  21070869.111    14052994.408 7   1110090.425 8
 94  2  1 17 47 29.9990000  0  6  1 29 25 22 14 15
  24194083.614    25872440.743 5   3393061.229 2
  22921858.528   -16307091.060 6  -3177076.615 4
  20916399.068    23441005.981 9   1096333.922 9
  23727856.517    14810542.728 5  -3278554.811 3
  21650482.273    -1113186.111 8  -4163401.742 7
  21079435.620    14098009.936 8   1145167.423 8
 94  2  1 17 47 59.9990000  0  6  1 29 25 22 14 15
  24207997.192    25945546.372 5   3450026.587 2
  22910179.663   -16368474.833 6  -3224908.081 4
  20924418.516    23483166.555 8   1129186.282 9
  23710150.894    14717437.808 5  -3351103.962 3
  21635883.220    -1189899.718 8  -4223178.568 7
  21088121.088    14143660.954 8   1180739.594 8
 94  2  1 17 48 29.9990000  0  6  1 29 25 22 14 15
  24221928.038    26018707.495 5   3507035.108 2
  22898545.137   -16429645.569 6  -3272573.548 4
  20932552.036    23525899.916 9   1162484.993 9
  23692450.758    14624478.518 5  -3423539.578 2
  21621335.851    -1266323.921 8  -4282729.892 7
  21096931.178    14189946.307 8   1216806.095 8
 94  2  1 17 48 59.9990000  0  6  1 29 25 22 14 15
  24235859.484    26091919.995 5   3564083.706 2
  22886943.948   -16490615.615 6  -3320082.604 3
  20940791.022    23569193.217 9   1196220.021 9
  23674776.493    14531641.512 5  -3495879.981 2
  21606848.920    -1342464.886 8  -4342060.519 7
  21105858.968    14236857.809 8   1253360.485 8
 94  2  1 17 49 29.9990000  0  6  1 29 25 22 14 15
  24249802.531    26165199.288 5   3621184.355 2
  22875383.202   -16551384.756 6  -3367435.122 3
  20949137.754    23613044.920 9   1230390.175 9
  23657139.313    14438934.474 5  -3568119.026 2
  21592414.123    -1418320.825 8  -4401169.030 7
  21114900.888    14284397.547 8   1290404.409 8
 94  2  1 17 49 59.9990000  0  6  1 29 25 22 14 15
  24263763.746    26238554.970 5   3678344.537 2
  22863839.453   -16611953.334 6  -3414631.365 3
  20957581.708    23657442.866 8   1264985.968 9
  23639527.436    14346357.178 5  -3640257.032 2
  21578037.965    -1493887.140 8  -4460051.874 7
  21124070.970    14332566.059 8   1327938.288 8
 94  2  1 17 50 29.9990000  0  6  1 29 25 22 14 15
  24277747.745    26311984.830 6   3735562.541 2
  22852360.460   -16672309.405 6  -3461662.061 3
  20966133.977    23702377.312 8   1299999.821 9
  23621935.734    14253914.929 6  -3712289.842 2
  21563710.854    -1569180.627 8  -4518722.124 7
  21133356.412    14381355.747 8   1365956.170 8
 94  2  1 17 50 59.9990000  0  6  1 29 25 22 14 15
  24291720.952    26385485.342 5   3792835.612 2
  22840918.611   -16732452.193 6  -3508526.552 3
  20974786.707    23747833.318 8   1335420.066 9
  23604368.166    14161617.693 5  -3784209.634 2
  21549431.589    -1644219.032 8  -4577193.593 7
  21142756.015    14430757.062 8   1404450.692 8
 94  2  1 17 51 29.9990000  0  6  1 29 25 22 14 15
  24305716.253    26459039.846 5   3850150.730 2
  22829509.949   -16792379.746 6  -3555223.356 4
  20983534.381    23793807.705 9   1371244.235 9
  23586835.673    14069470.921 5  -3856012.176 2
  21535199.392    -1719000.859 8  -4635465.115 7
  21152270.768    14480763.332 8   1443416.581 8
 94  2  1 17 51 59.9990000  0  6  1 29 25 22 14 15
  24319719.349    26532644.506 5   3907504.947 2
  22818157.139   -16852081.000 6  -3601743.786 4
  20992382.276    23840308.073 9   1407478.288 9
  23569324.316    13977476.196 5  -3927696.228 2
  21521020.677    -1793504.550 8  -4693519.931 7
  21161904.628    14531381.087 7   1482858.959 8
 94  2  1 17 52 29.9990000  0  6  1 29 25 22 14 15
  24333745.888    26606304.666 5   3964902.405 2
  22806836.945   -16911569.938 6  -3648098.819 4
  21001327.124    23887335.533 8   1444123.056 9
  23551858.228    13885635.501 5  -3999260.257 2
  21506897.425    -1867725.614 8  -4751354.534 7
  21171651.061    14582605.867 7   1522774.335 8
 94  2  1 17 52 59.9990000  0  6  1 29 25 22 14 15
  24347757.708    26680010.883 5   4022335.710 2
  22795546.162   -16970884.087 6  -3694317.632 4
  21010376.149    23934878.705 8   1481169.679 9
  23534400.024    13793939.897 5  -4070711.184 2
  21492828.045    -1941657.216 8  -4808963.563 7
  21181517.351    14634428.552 8   1563155.613 8
 94  2  1 17 53 29.9990000  0  6  1 29 25 22 14 15
  24361804.034    26753773.600 5   4079813.081 2
  22784291.293   -17030030.503 6  -3740405.736 4
  21019518.470    23982933.005 8   1518614.590 9
  23516995.873    13702400.147 5  -4142040.654 2
  21478822.281    -2015277.273 9  -4866329.826 7
  21191489.917    14686849.328 8   1604002.920 8
 94  2  1 17 53 59.9990000  0  6  1 29 25 22 14 15
  24375854.317    26827599.586 6   4137339.732 2
  22773064.995   -17089029.633 6  -3786379.022 4
  21028757.384    24031475.933 8   1556440.253 9
  23499601.944    13611018.409 5  -4213247.033 2
  21464869.130    -2088590.669 9  -4923457.141 7
  21201578.023    14739855.741 8   1645306.607 8
 94  2  1 17 54 29.9990000  0  6  1 29 25 22 14 15
  24389920.879    26901495.437 6   4194920.854 2
  22761866.248   -17147885.823 7  -3832240.942 4
  21038092.592    24080510.600 9   1594649.100 9
  23482242.702    13519811.325 5  -4284317.378 2
  21450974.559    -2161595.046 8  -4980343.667 7
  21211769.468    14793448.350 7   1687067.054 8
 94  2  1 17 54 59.9990000  0  6  1 29 25 22 14 15
  24403987.831    26975456.524 5   4252552.726 2
  22750698.739   -17206569.803 6  -3877968.695 4
  21047513.899    24130029.284 9   1633235.091 9
  23464918.535    13428793.327 5  -4355240.315 2
  21437143.155    -2234286.564 8  -5036986.382 7
  21222083.587    14847628.222 7   1729285.095 8
 94  2  1 17 55 29.9990000  0  6  1 29 25 22 14 15
  24418066.055    27049480.943 5   4310233.992 2
  22739567.925   -17265049.684 6  -3923537.400 4
  21057032.820    24180033.078 9   1672199.089 9
  23447631.722    13337957.488 5  -4426021.356 2
  21423369.220    -2306667.947 8  -5093387.436 7
  21232501.045    14902388.742 7   1771955.601 8
 94  2  1 17 55 59.9990000  0  6  1 29 25 22 14 15
  24432174.917    27123555.742 5   4367954.554 2
  22728480.730   -17323318.579 6  -3968941.715 4
  21066640.089    24230530.323 9   1711547.569 9
  23430381.245    13247283.177 5  -4496676.515 3
  21409651.946    -2378755.695 8  -5149559.730 7
  21243035.662    14957724.443 7   1815074.282 7
 94  2  1 17 56 29.9990000  0  6  1 29 25 22 14 15
  24446277.604    27197682.571 5   4425715.614 2
  22717437.305   -17381354.326 6  -4014164.349 4
  21076347.458    24281546.510 9   1751300.444 9
  23413149.804    13156769.722 5  -4567206.349 2
  21395988.935    -2450549.509 8  -5205502.937 8
  21253675.866    15013641.647 7   1858646.083 7
 94  2  1 17 56 59.9990000  0  6  1 29 25 22 14 15
  24460382.540    27271856.354 5   4483513.269 2
  22706440.858   -17439163.080 7  -4059210.117 4
  21086152.920    24333080.677 8   1791456.944 9
  23395961.683    13066402.999 6  -4637621.830 2
  21382382.974    -2522063.400 9  -5261228.045 8
  21264429.602    15070133.030 7   1902665.321 7
 94  2  1 17 57 29.9990000  0  6  1 29 25 22 14 15
  24474519.433    27346067.889 5   4541340.280 2
  22695474.450   -17496778.869 6  -4104105.479 4
  21096057.913    24385131.348 9   1832015.861 9
  23378784.774    12976175.781 6  -4707928.628 2
  21368825.340    -2593307.013 9  -5316742.572 8
  21275288.504    15127193.956 8   1947128.343 7
 94  2  1 17 57 59.9990000  0  6  1 29 25 22 14 15
  24488648.921    27420321.058 5   4599199.805 2
  22684539.040   -17554225.876 6  -4148869.326 4
  21106058.510    24437685.601 9   1872967.225 9
  23361653.734    12886113.362 6  -4778107.005 3
  21355321.129    -2664277.851 8  -5372044.509 8
  21286249.276    15184825.807 7   1992036.255 8
 94  2  1 17 58 29.9990000  0  6  1 29 25 22 14 15
  24502778.769    27494607.983 5   4657085.555 3
  22673638.737   -17611514.907 6  -4193510.052 4
  21116149.254    24490718.841 9   1914291.831 9
  23344545.927    12796230.886 6  -4848145.180 3
  21341866.413    -2734980.146 8  -5427137.173 8
  21297324.629    15243018.915 7   2037381.510 7
 94  2  1 17 58 59.9990000  0  6  1 29 25 22 14 15
  24516922.108    27568933.194 5   4715001.197 3
  22662763.076   -17668645.777 6  -4238027.598 4
  21126332.574    24544206.344 9   1955970.377 9
  23327482.640    12706548.750 6  -4918027.237 3
  21328465.061    -2805404.697 8  -5482013.435 8
  21308505.269    15301775.273 8   2083165.660 7
 94  2  1 17 59 29.9990000  0  6  1 29 25 22 14 15
  24531077.289    27643301.803 5   4772950.617 3
  22651922.101   -17725609.870 7  -4282415.186 4
  21136588.864    24598132.175 8   1997990.502 9
  23310455.927    12617079.521 6  -4987743.446 3
  21315116.262    -2875536.122 8  -5536661.283 8
  21319794.943    15361090.208 8   2129385.050 7
 94  2  1 17 59 59.9990000  0  6  1 29 25 22 14 15
  24545232.109    27717722.639 4   4830940.708 3
  22641123.906   -17782382.227 7  -4326653.342 4
  21146937.760    24652502.946 9   2040357.296 9
  23293468.787    12527826.033 5  -5057291.506 3
  21301831.229    -2945363.407 8  -5591072.155 8
  21331185.677    15420959.753 7   2176036.607 7
 94  2  1 18  0 29.9990000  0  6  1 29 25 22 14 15
  24559416.760    27792195.236 5   4888971.245 3
  22630352.483   -17838954.536 6  -4370735.626 4
  21157368.618    24707320.573 9   2083072.320 9
  23276513.275    12438764.386 5  -5126690.042 3
  21288601.748    -3014885.771 8  -5645245.418 8
  21342681.339    15481373.575 7   2223112.314 7
 94  2  1 18  0 59.9990000  0  6  1 29 25 22 14 15
  24573591.187    27866729.976 4   4947050.157 3
  22619624.290   -17895322.655 6  -4414658.825 5
  21167889.385    24762602.573 9   2126149.158 9
  23259604.621    12349887.143 5  -5195944.998 3
  21275431.775    -3084089.139 8  -5699170.086 8
  21354281.509    15542332.291 7   2270612.567 7
 94  2  1 18  1 29.9990000  0  6  1 29 25 22 14 15
  24587776.017    27941330.953 4   5005180.651 2
  22608944.513   -17951488.676 7  -4458424.524 5
  21178506.655    24818378.775 9   2169611.118 9
  23242725.076    12261190.232 6  -5265059.361 3
  21262323.770    -3152970.523 8  -5752843.885 8
  21365986.186    15603836.989 7   2318538.264 7
 94  2  1 18  1 59.9990000  0  6  1 29 25 22 14 15
  24601983.121    28015974.521 4   5063344.285 2
  22598296.635   -18007465.437 7  -4502042.753 5
  21189209.995    24874644.891 9   2213454.816 9
  23225882.736    12172668.000 6  -5334037.686 3
  21249272.065    -3221547.529 8  -5806280.510 8
  21377789.314    15665875.795 7   2366880.129 7
 94  2  1 18  2 29.9990000  0  6  1 29 25 22 14 15
  24616195.892    28090656.244 4   5121537.771 2
  22587675.707   -18063272.167 7  -4545528.490 5
  21200007.350    24931390.980 9   2257672.540 9
  23209068.666    12084325.679 6  -5402875.775 3
  21236280.919    -3289830.170 8  -5859487.758 8
  21389700.848    15728449.466 7   2415638.823 7
 94  2  1 18  2 59.9990000  0  6  1 29 25 22 14 15
  24630414.899    28165355.632 4   5179745.001 2
  22577079.093   -18118923.946 6  -4588893.511 5
  21210895.063    24988594.900 9   2302246.986 9
  23192298.876    11996172.617 6  -5471566.457 3
  21223338.878    -3357830.709 8  -5912475.185 9
  21401706.277    15791547.322 7   2464805.965 7
 94  2  1 18  3 29.9990000  0  6  1 29 25 22 14 15
  24644627.969    28240071.315 4   5237964.820 2
  22566524.060   -18174415.348 7  -4632133.569 5
  21221862.640    25046242.807 9   2347167.404 9
  23175569.497    11908234.371 6  -5540089.758 3
  21210459.614    -3425537.916 8  -5965234.054 9
  21413811.477    15855175.213 7   2514386.087 7
 94  2  1 18  3 59.9990000  0  6  1 29 25 22 14 15
  24658869.670    28314808.360 3   5296201.452 2
  22555993.671   -18229738.631 7  -4675242.587 5
  21232910.622    25104314.229 9   2392417.856 9
  23158873.096    11820518.648 6  -5608439.616 4
  21197632.215    -3492927.512 8  -6017745.393 9
  21426024.572    15919333.689 7   2564379.700 7
 94  2  1 18  4 29.9990000  0  6  1 29 25 22 14 15
  24673086.338    28389576.771 4   5354462.343 2
  22545492.930   -18284894.771 7  -4718221.360 5
  21244045.154    25162802.806 9   2437993.355 9
  23142220.764    11733015.759 6  -5676623.692 3
  21184867.801    -3559987.490 8  -6069999.935 9
  21438333.750    15984013.719 7   2614779.686 7
 94  2  1 18  4 59.9990000  0  6  1 29 25 22 14 15
  24687328.068    28464383.499 4   5412753.171 2
  22535037.548   -18339863.466 7  -4761054.106 5
  21255258.531    25221718.084 9   2483901.341 9
  23125614.810    11645732.043 5  -5744636.911 3
  21172176.957    -3626695.646 8  -6121980.326 9
  21450737.394    16049216.698 7   2665587.151 7
 94  2  1 18  5 29.9990000  0  6  1 29 25 22 14 15
  24701559.966    28539235.523 5   5471079.284 2
  22524612.745   -18394645.161 7  -4803741.155 5
  21266551.293    25281076.111 9   2530154.307 9
  23109045.071    11558660.702 5  -5812484.643 3
  21159548.469    -3693045.472 8  -6173681.487 9
  21463248.302    16114940.189 7   2716800.237 7
 94  2  1 18  5 59.9990000  0  6  1 29 25 22 14 15
  24715826.280    28614134.306 5   5529441.943 2
  22514221.759   -18449243.085 7  -4846284.956 5
  21277936.721    25340898.032 9   2576768.778 9
  23092510.737    11471795.168 5  -5880172.055 3
  21146990.133    -3759047.711 8  -6225111.799 9
  21475850.198    16181179.492 7   2768415.246 6
 94  2  1 18  6 29.9990000  0  6  1 29 25 22 14 15
  24730085.458    28689076.559 4   5587838.347 2
  22503866.358   -18503672.121 7  -4888697.188 5
  21289411.097    25401195.736 9   2623753.999 9
  23076022.692    11385144.581 6  -5947691.949 3
  21134496.043    -3824723.792 9  -6276287.973 9
  21488552.734    16247931.949 7   2820430.104 6
 94  2  1 18  6 59.9990000  0  5 29 25 22 14 15
  22493537.758   -18557964.076 7  -4931002.632 5
  21300971.694    25461957.403 8   2671100.720 9
  23059573.679    11298719.638 6  -6015035.983 3
  21122054.326    -3890087.392 8  -6327220.638 9
  21501348.446    16315192.402 7   2872840.857 6
 94  2  1 18  7 29.9990000  0  5 29 25 22 14 15
  22483232.422   -18612120.227 7  -4973202.190 5
  21312621.869    25523186.949 8   2718812.040 9
  23043179.529    11212528.091 6  -6082198.175 3
  21109677.634    -3955139.702 8  -6377910.731 9
  21514253.432    16382961.740 7   2925648.088 6
 94  2  1 18  7 59.9990000  0  5 29 25 22 14 15
  22472947.472   -18666135.201 7  -5015291.764 6
  21324359.193    25584859.927 8   2766868.885 9
  23026822.343    11126568.694 7  -6149179.445 3
  21097355.745    -4019880.303 9  -6428357.966 9
  21527243.679    16451233.828 7   2978847.064 6
 94  2  1 18  8 29.9990000  0  5 29 25 22 14 15
  22462698.527   -18719999.081 7  -5057263.624 5
  21336176.233    25646945.885 8   2815247.527 9
  23010507.097    11040843.330 6  -6215978.378 4
  21085096.631    -4084297.865 8  -6478553.484 9
  21540330.250    16520005.699 7   3032435.485 6
 94  2  1 18  8 59.9990000  0  5 29 25 22 14 15
  22452484.928   -18773689.117 7  -5099100.030 5
  21348062.614    25709426.851 8   2863933.961 9
  22994236.551    10955346.145 6  -6282599.514 4
  21072900.744    -4148388.833 9  -6528494.507 9
  21553505.768    16589269.656 7   3086407.379 6
 94  2  1 18  9 29.9990000  0  5 29 25 22 14 15
  22442305.355   -18827171.246 7  -5140774.394 5
  21360024.753    25772305.746 8   2912930.453 9
  22978012.383    10870070.492 6  -6349048.018 3
  21060768.054    -4212145.537 9  -6578175.063 9
  21566782.827    16659025.508 7   3140762.532 7
 94  2  1 18  9 59.9990000  0  5 29 25 22 14 15
  22432163.766   -18880456.556 7  -5182295.389 5
  21372070.503    25835573.633 8   2962230.065 9
  22961824.190    10785017.727 6  -6415322.809 3
  21048704.225    -4275558.171 8  -6627587.498 9
  21580149.314    16729268.060 7   3195496.934 7
 94  2  1 18 10 29.9990000  0  5 29 25 22 14 15
  22422064.448   -18933554.255 7  -5223670.204 5
  21384186.106    25899249.755 8   3011847.787 9
  22945683.454    10700201.525 6  -6481413.260 3
  21036699.546    -4338630.259 8  -6676734.582 9
  21593610.265    16799996.207 7   3250609.731 7
 94  2  1 18 10 59.9990000  0  5 29 25 22 14 15
  22411993.340   -18986476.297 7  -5264908.128 5
  21396381.843    25963353.396 8   3061798.627 9
  22929590.025    10615623.552 6  -6547318.080 3
  21024765.408    -4401351.016 8  -6725607.910 9
  21607163.672    16871207.709 7   3306099.184 6
 94  2  1 18 11 29.9990000  0  5 29 25 22 14 15
  22401948.434   -19039251.923 7  -5306031.938 5
  21408667.278    26027886.734 8   3112084.333 9
  22913538.507    10531278.725 6  -6613041.221 3
  21012896.295    -4463715.672 8  -6774203.731 9
  21620799.192    16942892.288 7   3361957.240 6
 94  2  1 18 11 59.9990000  0  5 29 25 22 14 15
  22391934.526   -19091885.898 7  -5347045.390 5
  21421027.721    26092849.164 8   3162704.390 8
  22897538.044    10447198.087 6  -6678558.457 3
  21001097.783    -4525714.370 9  -6822514.394 9
  21634530.526    17015057.712 7   3418190.016 6
 94  2  1 18 12 29.9990000  0  5 29 25 22 14 15
  22381943.463   -19144377.319 6  -5387947.795 5
  21433468.838    26158229.286 8   3213649.893 8
  22881590.315    10363386.529 6  -6743866.094 3
  20989371.910    -4587365.489 8  -6870554.244 9
  21648360.372    17087696.560 7   3474791.655 6
 94  2  1 18 12 59.9990000  0  5 29 25 22 14 15
  22371977.822   -19196727.438 7  -5428740.077 5
  21445987.602    26224007.061 8   3264905.272 8
  22865691.901    10279839.259 6  -6808967.747 4
  20977702.249    -4648670.599 9  -6918324.469 9
  21662267.055    17160800.837 7   3531755.973 6
 94  2  1 18 13 29.9990000  0  5 29 25 22 14 15
  22362045.728   -19248934.072 7  -5469420.540 6
  21458573.279    26290159.576 8   3316452.661 8
  22849846.760    10196566.658 6  -6873855.410 4
  20966100.401    -4709646.978 9  -6965838.508 9
  21676266.913    17234362.063 7   3589076.367 6
 94  2  1 18 13 59.9990000  0  5 29 25 22 14 15
  22352144.452   -19300983.843 7  -5509978.840 5
  21471233.934    26356677.613 8   3368284.873 8
  22834044.040    10113577.445 6  -6938522.188 4
  20954556.952    -4770295.918 8  -7013097.442 9
  21690345.856    17308383.211 7   3646755.116 6
 94  2  1 18 14 29.9990000  0  5 29 25 22 14 15
  22342270.488   -19352856.052 7  -5550398.730 5
  21483964.051    26423579.431 8   3420416.117 8
  22818308.684    10030876.687 6  -7002964.241 4
  20943080.297    -4830607.442 8  -7060093.427 9
  21704527.778    17382868.457 7   3704795.503 6
 94  2  1 18 14 59.9990000  0  5 29 25 22 14 15
  22332433.968   -19404553.580 7  -5590682.487 5
  21496765.999    26490851.770 8   3472836.096 8
  22802625.971     9948456.375 6  -7067187.763 4
  20931669.657    -4890569.241 8  -7106816.914 9
  21718782.220    17457809.661 7   3763191.203 6
 94  2  1 18 15 29.9990000  0  5 29 25 22 14 15
  22322633.392   -19456072.582 7  -5630827.145 6
  21509638.967    26558504.681 8   3525552.609 8
  22787002.287     9866327.822 6  -7131183.937 4
  20920327.908    -4950168.553 8  -7153257.930 9
  21733129.388    17533211.771 7   3821946.038 6
 94  2  1 18 15 59.9990000  0  5 29 25 22 14 15
  22312858.539   -19507425.216 7  -5670842.192 6
  21522582.236    26626539.315 8   3578566.605 8
  22771421.593     9784465.781 6  -7194972.456 4
  20909055.262    -5009405.470 8  -7199416.570 9
  21747570.031    17609064.255 7   3881051.795 6
 94  2  1 18 16 29.9990000  0  5 29 25 22 14 15
  22303115.434   -19558619.966 7  -5710734.203 6
  21535608.698    26694967.661 8   3631887.378 8
  22755900.918     9702864.773 6  -7258557.529 4
  20897852.288    -5068276.341 8  -7245289.974 9
  21762081.065    17685361.905 6   3940504.461 6
 94  2  1 18 16 59.9990000  0  5 29 25 22 14 15
  22293397.152   -19609671.395 7  -5750514.548 6
  21548702.734    26763787.659 8   3685513.283 8
  22740412.620     9621506.429 6  -7321953.562 4
  20886721.354    -5126769.806 9  -7290869.312 9
  21776688.362    17762100.958 7   4000301.075 6
 94  2  1 18 17 29.9990000  0  5 29 25 22 14 15
  22283708.909   -19660582.266 7  -5790185.357 6
  21561875.045    26833007.894 8   3739451.106 8
  22724980.024     9540388.916 6  -7385161.929 4
  20875664.678    -5184888.217 8  -7336156.377 9
  21791373.846    17839276.997 7   4060438.170 6
 94  2  1 18 17 59.9990000  0  5 29 25 22 14 15
  22274056.462   -19711344.771 7  -5829740.547 6
  21575119.546    26902632.773 8   3793704.230 8
  22709588.109     9459514.811 6  -7448180.619 4
  20864676.325    -5242628.752 8  -7381148.988 9
  21806151.845    17916889.365 7   4120915.272 6
 94  2  1 18 18 29.9990000  0  5 29 25 22 14 15
  22264417.984   -19761968.499 7  -5869187.601 6
  21588448.918    26972643.700 8   3848258.175 8
  22694246.020     9378898.062 6  -7510998.778 4
  20853757.254    -5299997.874 8  -7425852.209 9
  21820997.088    17994923.838 7   4181721.299 6
 94  2  1 18 18 59.9990000  0  5 29 25 22 14 15
  22254810.865   -19812446.326 7  -5908520.987 6
  21601839.837    27043020.474 8   3903097.191 8
  22678959.753     9298557.129 6  -7573602.042 4
  20842912.562    -5356990.241 8  -7470261.851 9
  21835917.219    18073381.367 7   4242856.959 6
 94  2  1 18 19 29.9990000  0  5 29 25 22 14 15
  22245232.076   -19862771.703 7  -5947735.581 6
  21615300.279    27113759.883 8   3958218.753 8
  22663729.487     9218523.406 6  -7635965.908 4
  20832138.920    -5413626.691 9  -7514394.144 9
  21850934.393    18152260.399 7   4304321.088 6
 94  2  1 18 19 59.9990000  0  5 29 25 22 14 15
  22235691.751   -19912940.681 7  -5986828.300 6
  21628826.735    27184850.859 8   4013614.301 8
  22648557.440     9138802.005 6  -7698086.354 4
  20821425.777    -5469914.096 9  -7558254.456 9
  21866024.746    18231555.854 7   4366109.686 6
 94  2  1 18 20 29.9990000  0  5 29 25 22 14 15
  22226169.083   -19962946.277 7  -6025793.679 6
  21642425.950    27256281.470 9   4069274.493 8
  22633450.149     9059405.272 7  -7759953.824 4
  20810783.954    -5525846.499 9  -7601838.152 9
  21881193.465    18311267.187 7   4428222.377 6
 94  2  1 18 20 59.9990000  0  5 29 25 22 14 15
  22216687.068   -20012796.126 7  -6064637.680 6
  21656074.811    27328036.885 8   4125187.768 8
  22618404.524     8980319.380 7  -7821579.077 4
  20800203.978    -5581436.938 9  -7645155.373 9
  21896439.231    18391384.426 7   4490651.319 6
 94  2  1 18 21 29.9990000  0  5 29 25 22 14 15
  22207232.873   -20062492.179 7  -6103361.869 6
  21669797.361    27400134.475 8   4181367.666 8
  22603403.030     8901541.213 6  -7882964.546 4
  20789690.737    -5636683.420 9  -7688204.578 9
  21911762.073    18471904.076 7   4553393.861 6
 94  2  1 18 21 59.9990000  0  5 29 25 22 14 15
  22197803.470   -20112034.885 7  -6141966.552 6
  21683583.108    27472579.140 8   4237817.980 8
  22588477.712     8823066.248 6  -7944113.783 4
  20779250.104    -5691547.061 9  -7730955.471 9
  21927156.625    18552828.130 6   4616451.525 6
 94  2  1 18 22 29.9990000  0  5 29 25 22 14 15
  22188402.998   -20161423.234 7  -6180450.966 6
  21697431.601    27545386.198 7   4294550.702 8
  22573602.310     8744922.282 6  -8005005.135 5
  20768886.819    -5746002.480 9  -7773388.266 9
  21942638.777    18634166.755 7   4679832.187 6
 94  2  1 18 22 59.9990000  0  5 29 25 22 14 15
  22179037.902   -20210662.998 7  -6218819.588 6
  21711361.187    27618563.284 8   4351571.761 8
  22558795.561     8667098.970 6  -8065646.551 5
  20758599.830    -5800050.389 9  -7815503.494 9
  21958195.877    18715912.981 7   4743530.490 6
 94  2  1 18 23 29.9990000  0  5 29 25 22 14 15
  22169691.572   -20259757.633 7  -6257075.138 6
  21725357.958    27692118.126 8   4408887.186 8
  22544051.108     8589589.596 6  -8126043.357 5
  20748393.696    -5853688.655 9  -7857299.562 9
  21973828.975    18798058.038 7   4807539.621 6
 94  2  1 18 23 59.9990000  0  5 29 25 22 14 15
  22160380.198   -20308693.482 7  -6295206.976 6
  21739424.130    27766031.188 8   4466481.718 7
  22529358.849     8512403.535 6  -8186188.225 5
  20738265.687    -5906916.675 9  -7898775.957 9
  21989540.558    18880602.001 7   4871859.506 6
 94  2  1 18 24 29.9990000  0  5 29 25 22 14 15
  22151097.095   -20357465.512 7  -6333211.145 6
  21753554.008    27840294.052 8   4524348.848 7
  22514732.065     8435548.201 6  -8246075.378 4
  20728207.710    -5959750.417 8  -7939945.098 9
  22005315.967    18963544.950 7   4936490.317 6
 94  2  1 18 24 59.9990000  0  5 29 25 22 14 15
  22141847.328   -20406082.370 7  -6371094.436 6
  21767751.849    27914893.201 8   4582477.987 7
  22500162.602     8358999.883 6  -8305723.322 4
  20718234.215    -6012197.466 9  -7980812.933 9
  22021170.611    19046874.542 6   5001422.402 6
 94  2  1 18 25 29.9990000  0  5 29 25 22 14 15
  22132625.502   -20454554.988 7  -6408865.286 6
  21782009.828    27989812.165 8   4640856.348 7
  22485662.090     8282774.787 6  -8365119.360 4
  20708324.156    -6064262.510 9  -8021383.097 9
  22037105.539    19130586.104 6   5066652.167 6
 94  2  1 18 25 59.9990000  0  5 29 25 22 14 15
  22123428.979   -20502885.663 7  -6446525.552 6
  21796321.770    28065041.736 8   4699476.727 7
  22471217.040     8206897.142 6  -8424244.709 4
  20698489.134    -6115936.613 9  -8061648.653 9
  22053105.823    19214679.668 6   5132179.564 6
 94  2  1 18 26 29.9990000  0  5 29 25 22 14 15
  22114255.060   -20551075.041 7  -6484075.711 6
  21810698.648    28140587.834 8   4758343.780 7
  22456845.799     8131367.072 6  -8483099.223 4
  20688730.530    -6167217.112 8  -8101607.470 9
  22069185.101    19299152.929 7   5198002.848 6
 94  2  1 18 26 59.9990000  0  5 29 25 22 14 15
  22105119.814   -20599119.907 7  -6521513.279 6
  21825139.770    28216449.479 8   4817456.706 7
  22442533.707     8056176.883 6  -8541688.878 5
  20679049.272    -6218108.783 9  -8141263.310 9
  22085321.580    19383996.416 7   5264114.597 6
 94  2  1 18 27 29.9990000  0  5 29 25 22 14 15
  22096002.226   -20647009.565 7  -6558829.905 6
  21839625.082    28292629.126 7   4876817.400 7
  22428298.092     7981341.946 6  -8600001.746 5
  20669437.506    -6268613.327 9  -8180617.520 9
  22101544.819    19469214.624 6   5330518.362 6
 94  2  1 18 27 59.9990000  0  5 29 25 22 14 15
  22086916.836   -20694733.887 7  -6596017.691 6
  21854191.668    28369129.256 8   4936427.859 7
  22414121.776     7906847.622 6  -8658049.154 5
  20659904.796    -6318717.466 9  -8219659.702 9
  22117833.293    19554806.225 6   5397213.056 6
 94  2  1 18 28 29.9990000  0  5 29 25 22 14 15
  22077866.221   -20742312.651 7  -6633092.049 6
  21868808.409    28445942.951 8   4996282.633 7
  22400006.918     7832653.286 6  -8715862.812 5
  20650439.868    -6368435.243 9  -8258400.842 9
  22134180.646    19640751.925 6   5464183.682 6
 94  2  1 18 28 59.9990000  0  5 29 25 22 14 15
  22068832.965   -20789755.540 7  -6670060.548 6
  21883486.248    28523088.585 8   5056396.075 7
  22385946.172     7758772.754 6  -8773431.964 5
  20641059.602    -6417746.652 9  -8296825.312 9
  22150609.842    19727052.415 6   5531430.769 5
 94  2  1 18 29 29.9990000  0  5 29 25 22 14 15
  22059833.525   -20837078.900 7  -6706935.917 6
  21898233.758    28600571.198 8   5116772.096 7
  22371948.682     7685221.367 6  -8830744.613 5
  20631753.204    -6466638.759 8  -8334923.062 9
  22167100.885    19813706.038 7   5598953.037 5
 94  2  1 18 29 59.9990000  0  5 29 25 22 14 15
  22050848.895   -20884286.271 7  -6743720.895 6
  21913042.007    28678393.891 8   5177413.107 7
  22358019.095     7612005.093 6  -8887796.120 5
  20622530.779    -6515098.104 8  -8372683.597 9
  22183658.903    19900706.436 7   5666745.503 5
 94  2  1 18 30 29.9990000  0  5 29 25 22 14 15
  22041887.409   -20931378.554 7  -6780416.189 6
  21927919.177    28756564.319 8   5238325.094 7
  22344149.707     7539143.616 7  -8944571.193 5
  20613393.465    -6563124.219 9  -8410106.540 9
  22200280.775    19988054.424 6   5734808.830 5
 94  2  1 18 30 59.9990000  0  5 29 25 22 14 15
  22032953.384   -20978340.580 8  -6817009.999 6
  21942857.506    28835073.972 8   5299501.366 7
  22330363.181     7466674.738 7  -9001040.354 5
  20604336.165    -6610714.620 8  -8447190.002 9
  22216967.793    20075756.721 6   5803148.267 5
 94  2  1 18 31 29.9990000  0  5 29 25 22 14 15
  22024039.984   -21025161.151 7  -6853493.544 6
  21957854.054    28913888.725 8   5360915.410 7
  22316641.620     7394583.212 7  -9057215.430 5
  20595361.488    -6657887.797 9  -8483948.323 9
  22233719.776    20163801.034 6   5871754.192 5
 94  2  1 18 31 59.9990000  0  5 29 25 22 14 15
  22015162.710   -21071815.294 7  -6889847.515 6
  21972902.436    28992981.056 8   5422545.715 7
  22302994.708     7322857.388 6  -9113105.534 5
  20586462.059    -6704645.430 9  -8520382.864 9
  22250535.255    20252179.822 6   5940620.740 5
 94  2  1 18 32 29.9990000  0  5 29 25 22 14 15
  22006319.612   -21118295.166 7  -6926065.558 6
  21988009.967    29072344.225 8   5484387.071 7
  22289412.791     7251493.638 6  -9168713.572 5
  20577642.495    -6750991.491 9  -8556496.697 9
  22267421.215    20340892.639 6   6009747.548 5
 94  2  1 18 32 59.9990000  0  5 29 25 22 14 15
  21997510.121   -21164598.330 7  -6962145.928 6
  22003156.802    29151959.940 8   5546425.216 7
  22275903.423     7180490.398 6  -9224040.691 5
  20568906.782    -6796918.334 9  -8592283.846 9
  22284364.376    20429932.562 6   6079129.240 5
 94  2  1 18 33 29.9990000  0  5 29 25 22 14 15
  21988730.908   -21210719.321 7  -6998084.365 6
  22018356.609    29231830.149 8   5608661.691 7
  22262453.324     7109840.309 6  -9279092.619 5
  20560246.797    -6842415.152 9  -8627735.934 9
  22301364.437    20519298.041 6   6148764.599 5
 94  2  1 18 33 59.9990000  0  5 29 25 22 14 15
  21979985.033   -21256665.573 7  -7033886.646 6
  22033610.979    29311989.501 7   5671123.456 7
  22249090.105     7039571.855 7  -9333847.159 5
  20551670.694    -6887467.779 9  -8662841.879 9
  22318434.469    20609001.255 6   6218663.161 5
 94  2  1 18 34 29.9990000  0  5 29 25 22 14 15
  21971271.205   -21302477.650 7  -7069584.360 6
  22048923.718    29392446.013 7   5733816.765 7
  22235786.635     6969692.014 7  -9388298.897 5
  20543181.441    -6932095.702 9  -8697616.917 9
  22335573.244    20699026.846 6   6288812.929 5
 94  2  1 18 34 59.9990000  0  5 29 25 22 14 15
  21962580.102   -21348154.922 7  -7105177.022 6
  22064290.210    29473195.078 7   5796738.043 7
  22222568.846     6900215.935 7  -9442435.991 5
  20534767.017    -6976292.401 9  -8732055.909 9
  22352761.695    20789368.865 6   6359209.281 5
 94  2  1 18 35 29.9990000  0  5 29 25 22 14 15
  21953908.485   -21393709.147 7  -7140673.818 6
  22079712.253    29554247.005 7   5859895.321 7
  22209420.668     6831137.984 7  -9496262.898 5
  20526438.452    -7020076.344 9  -8766173.275 9
  22370011.723    20880017.777 6   6429844.745 5
 94  2  1 18 35 59.9990000  0  5 29 25 22 14 15
  21945259.503   -21439150.845 7  -7176082.919 6
  22095188.379    29635590.288 7   5923279.633 7
  22196343.631     6762457.706 6  -9549779.931 5
  20518185.496    -7063454.106 9  -8799974.150 9
  22387321.170    20970964.462 6   6500712.226 5
 94  2  1 18 36 29.9990000  0  5 29 25 22 14 15
  21936646.616   -21484453.834 8  -7211383.962 6
  22110720.297    29717219.859 7   5986887.022 7
  22183360.129     6694177.480 7  -9602985.271 5
  20510009.856    -7106402.089 9  -8833440.139 9
  22404682.871    21062213.177 6   6571815.054 5
 94  2  1 18 36 59.9990000  0  5 29 25 22 14 15
  21928049.647   -21529612.058 8  -7246572.207 6
  22126306.057    29799118.222 7   6050703.850 7
  22170434.578     6626277.882 7  -9655894.017 5
  20501922.325    -7148910.552 9  -8866563.622 9
  22422099.823    21153756.925 6   6643147.800 5
 94  2  1 18 37 29.9990000  0  5 29 25 22 14 15
  21919483.138   -21574626.471 7  -7281648.386 6
  22141943.651    29881287.514 7   6114731.780 8
  22157585.713     6558758.754 7  -9708506.278 5
  20493915.677    -7190977.749 9  -8899343.269 9
  22439577.184    21245601.622 6   6714715.019 4
 94  2  1 18 37 59.9990000  0  5 29 25 22 14 15
  21910941.061   -21619495.666 7  -7316611.398 6
  22157626.215    29963719.043 7   6178964.074 8
  22144815.663     6491624.993 7  -9760818.236 5
  20485996.750    -7232591.939 9  -8931769.927 9
  22457113.514    21337748.927 6   6786518.038 4
 94  2  1 18 38 29.9990000  0  5 29 25 22 14 15
  21902434.840   -21664228.998 8  -7351468.590 6
  22173371.165    30046418.141 8   6243404.856 8
  22132114.596     6424875.278 7  -9812830.948 5
  20478166.980    -7273742.565 8  -8963835.360 9
  22474709.382    21430194.592 6   6858553.590 4
 94  2  1 18 38 59.9990000  0  5 29 25 22 14 15
  21893946.186   -21708837.473 8  -7386228.457 6
  22189159.315    30129377.983 7   6308048.813 7
  22119484.010     6358510.662 6  -9864543.626 5
  20470423.461    -7314436.497 9  -8995544.920 9
  22492359.514    21522936.190 7   6930819.726 4
 94  2  1 18 39 29.9990000  0  5 29 25 22 14 15
  21885474.441   -21753314.168 7  -7420885.619 6
  22204992.224    30212600.872 7   6372897.733 7
  22106929.091     6292539.639 6  -9915949.654 5
  20462764.723    -7354678.037 9  -9026901.971 9
  22510057.671    21615972.504 6   7003315.486 4
 94  2  1 18 39 59.9990000  0  5 29 25 22 14 15
  21877038.821   -21797668.911 8  -7455447.787 6
  22220879.995    30296090.483 7   6437954.493 7
  22094449.661     6226959.073 7  -9967051.375 5
  20455199.970    -7394456.904 8  -9057898.503 9
  22527821.274    21709288.612 6   7076029.276 4
 94  2  1 18 40 29.9990000  0  5 29 25 22 14 15
  21868622.178   -21841883.670 8  -7489900.836 6
  22236816.362    30379845.920 7   6503218.385 7
  22082045.448     6161781.907 7 -10017838.758 5
  20447716.610    -7433767.966 9  -9088530.516 9
  22545633.113    21802884.894 6   7148961.377 4
 94  2  1 18 40 59.9990000  0  5 29 25 22 14 15
  21860242.769   -21885937.270 8  -7524228.370 6
  22252806.663    30463864.210 7   6568687.068 7
  22069720.860     6097025.314 7 -10068298.456 5
  20440321.480    -7472618.560 9  -9118803.724 9
  22563496.666    21896761.359 6   7222111.815 4
 94  2  1 18 41 29.9990000  0  5 29 25 22 14 15
  21851888.782   -21929830.363 8  -7558430.856 6
  22268843.820    30548145.433 7   6634360.677 7
  22057482.013     6032697.218 7 -10118424.251 5
  20433017.516    -7511008.644 9  -9148718.086 9
  22581408.516    21990907.672 6   7295472.491 4
 94  2  1 18 41 59.9990000  0  5 29 25 22 14 15
  21843563.995   -21973568.652 8  -7592512.655 6
  22284929.724    30632688.841 7   6700238.585 7
  22045329.356     5968810.062 7 -10168206.411 5
  20425800.553    -7548934.858 8  -9178270.975 9
  22599375.678    22085322.975 6   7369042.827 4
 94  2  1 18 42 29.9990000  0  5 29 25 22 14 15
  21835268.948   -22017146.377 7  -7626469.329 7
  22301062.845    30717470.929 7   6766302.438 6
  22033257.193     5905366.855 7 -10217642.653 6
  20418670.948    -7586410.998 9  -9207473.170 9
  22617393.055    22180004.231 6   7442820.366 4
 94  2  1 18 42 59.9990000  0  5 29 25 22 14 15
  21827006.008   -22060576.693 7  -7660311.135 7
  22317248.221    30802496.312 7   6832555.892 6
  22021262.857     5842365.830 7 -10266734.368 6
  20411624.626    -7623427.906 9  -9236317.536 9
  22635460.287    22274951.898 6   7516805.529 4
 94  2  1 18 43 29.9990000  0  5 29 25 22 14 15
  21818769.780   -22103876.538 8  -7694051.302 7
  22333477.845    30887768.448 7   6899001.611 6
  22009359.537     5779796.789 7 -10315489.453 6
  20404669.022    -7659987.062 9  -9264805.194 9
  22653580.972    22370160.929 6   7590994.308 4
 94  2  1 18 43 59.9990000  0  5 29 25 22 14 15
  21810553.488   -22147047.284 8  -7727690.843 7
  22349753.877    30973276.840 8   6965631.453 6
  21997525.470     5717658.695 7 -10363908.748 6
  20397797.239    -7696096.935 9  -9292942.771 9
  22671748.395    22465624.320 6   7665381.295 4
 94  2  1 18 44 29.9990000  0  5 29 25 22 14 15
  21802370.983   -22190083.411 8  -7761225.518 7
  22366058.960    31059019.563 7   7032443.879 6
  21985795.580     5655949.252 7 -10411994.014 6
  20391008.289    -7731756.973 8  -9320729.836 9
  22689958.329    22561336.749 6   7739962.370 4
 94  2  1 18 44 59.9990000  0  5 29 25 22 14 15
  21794199.480   -22232981.775 8  -7794652.812 7
  22382429.846    31145017.751 7   7099455.362 6
  21974129.906     5594677.565 7 -10459738.192 6
  20384311.465    -7766961.846 8  -9348162.214 9
  22708215.659    22657297.134 6   7814736.623 4
 94  2  1 18 45 29.9990000  0  5 29 25 22 14 15
  21786062.843   -22275736.841 7  -7827968.464 7
  22398837.997    31231268.646 7   7166663.757 6
  21962555.099     5533860.707 7 -10507127.930 6
  20377699.242    -7801710.935 9  -9375239.420 9
  22726527.402    22753503.284 6   7889702.413 4
 94  2  1 18 45 59.9990000  0  5 29 25 22 14 15
  21777956.365   -22318347.898 8  -7861171.894 7
  22415299.301    31317754.702 7   7234055.391 6
  21951073.078     5473494.251 7 -10554166.723 6
  20371174.349    -7835996.202 9  -9401955.227 9
  22744881.986    22849950.019 6   7964855.630 4
 94  2  1 18 46 29.9990000  0  5 29 25 22 14 15
  21769871.831   -22360829.874 8  -7894274.738 7
  22431801.107    31404462.955 7   7301620.158 6
  21939671.342     5413559.901 7 -10600868.771 6
  20364742.602    -7869810.980 9  -9428304.431 9
  22763283.487    22946628.304 6   8040189.275 4
 94  2  1 18 46 59.9990000  0  5 29 25 22 14 15
  21761810.622   -22403185.504 8  -7927279.160 7
  22448340.058    31491396.462 7   7369360.407 6
  21928344.433     5354067.884 7 -10647226.192 6
  20358394.857    -7903132.010 8  -9454268.893 9
  22781720.363    23043546.918 6   8115710.169 4
 94  2  1 18 47 29.9990000  0  5 29 25 22 14 15
  21753773.486   -22445412.661 8  -7960183.427 7
  22464918.760    31578543.797 7   7437267.361 6
  21917104.015     5295015.816 7 -10693240.775 6
  20352152.698    -7935943.226 8  -9479836.081 9
  22800208.924    23140707.885 6   8191419.961 4
 94  2  1 18 47 59.9990000  0  5 29 25 22 14 15
  21745767.468   -22487505.477 8  -7992983.012 7
  22481545.760    31665888.249 6   7505327.900 6
  21905947.148     5236392.532 7 -10738921.228 6
  20346006.323    -7968244.168 9  -9505005.656 9
  22818742.154    23238103.696 6   8267312.749 4
 94  2  1 18 48 29.9990000  0  5 29 25 22 14 15
  21737785.494   -22529453.190 8  -8025669.593 7
  22498196.293    31753441.969 6   7573551.474 6
  21894876.412     5178216.015 7 -10784253.560 6
  20339960.169    -8000034.427 8  -9529777.320 9
  22837324.669    23335733.613 6   8343387.982 4
 94  2  1 18 48 59.9990000  0  6 29 25 22 18 14 15
  21729830.022   -22571246.311 8  -8058235.672 7
  22514908.793    31841206.723 6   7641939.486 5
  21883895.225     5120498.827 7 -10829227.965 6
  24113878.669     -587897.20115    -52894.952
  20334005.031    -8031323.629 8  -9554158.538 9
  22855948.496    23433591.251 6   8419640.620 4
 94  2  1 18 49 29.9990000  0  6 29 25 22 18 14 15
  21721911.454   -22612875.909 8  -8090674.337 7
  22531644.977    31929175.400 6   7710486.396 5
  21873002.775     5063241.116 7 -10873844.343 6
  24099792.351     -661895.728 5   -110558.073
  20328139.622    -8062132.950 8  -9578165.814 9
  22874606.709    23531664.490 6   8496061.262 4
 94  2  1 18 49 59.9990000  0  6 29 25 22 18 14 15
  21714016.719   -22654353.780 8  -8122994.771 7
  22548422.112    32017349.043 7   7779193.025 5
  21862195.407     5006437.922 7 -10918106.511 6
  24085723.061     -735857.924 3   -168190.878 1
  20322369.396    -8092468.190 8  -9601803.693 9
  22893308.183    23629942.352 6   8572641.343 3
 94  2  1 18 50 29.9990000  0  6 29 25 22 18 14 15
  21706151.154   -22695692.337 8  -8155206.665 7
  22565252.371    32105764.361 7   7848087.978 5
  21851469.163     4950101.866 7 -10962004.685 6
  24071655.090     -809769.049 4   -225783.978 1
  20316690.518    -8122316.509 8  -9625062.148 9
  22912056.034    23728430.915 6   8649385.586 3
 94  2  1 18 50 59.9990000  0  6 29 25 22 18 14 15
  21698310.982   -22736885.117 8  -8187304.941 8
  22582123.671    32194416.008 7   7917167.102 6
  21840844.848     4894245.914 7 -11005528.752 6
  24057611.492     -883622.631 4   -283332.350 1
  20311101.667    -8151666.371 8  -9647932.191 9
  22930820.823    23827131.968 5   8726295.431 3
 94  2  1 18 51 29.9990000  0  6 29 25 22 18 14 15
  21690494.973   -22777943.924 8  -8219298.859 8
  22599038.891    32283310.087 7   7986435.086 6
  21830308.012     4838878.137 7 -11048672.403 6
  24043565.826     -957404.693 5   -340824.866 1
  20305620.322    -8180504.135 9  -9670403.188 9
  22949650.667    23926045.540 5   8803370.913 3
 94  2  1 18 51 59.9990000  0  6 29 25 22 18 14 15
  21682707.354   -22818886.747 8  -8251202.351 8
  22615995.572    32372444.261 7   8055890.195 5
  21819863.663     4783996.716 7 -11091437.104 6
  24029526.995    -1031117.889 4   -398263.751 1
  20300226.426    -8208829.168 8  -9692474.665 9
  22968518.825    24025160.828 6   8880603.492 3
 94  2  1 18 52 29.9990000  0  6 29 25 22 18 14 15
  21674945.547   -22859697.714 8  -8283003.109 8
  22633003.098    32461806.405 7   8125522.956 5
  21809516.986     4729620.605 7 -11133808.052 6
  24015522.760    -1104747.237 4   -455637.341 1
  20294933.530    -8236646.009 8  -9714150.154 9
  22987416.333    24124479.977 6   8957994.998 4
 94  2  1 18 52 59.9990000  0  6 29 25 22 18 14 15
  21667207.394   -22900362.856 8  -8314690.271 8
  22650043.511    32551358.582 7   8195303.763 5
  21799262.794     4675751.367 7 -11175784.037 6
  24001523.051    -1178297.745 4   -512949.452 2
  20289732.790    -8263965.263 8  -9735437.916 9
  23006356.501    24223995.152 6   9035539.160 4
 94  2  1 18 53 29.9990000  0  6 29 25 22 18 14 15
  21659489.537   -22940893.417 8  -8346272.564 8
  22667123.887    32641103.920 7   8265235.093 5
  21789103.547     4622363.251 7 -11217385.120 6
  23987547.177    -1251770.235 4   -570200.757 2
  20284627.774    -8290801.060 8  -9756348.936 9
  23025331.055    24323701.902 6   9113232.674 4
 94  2  1 18 53 59.9990000  0  6 29 25 22 18 14 15
  21651803.009   -22981282.611 8  -8377744.702 8
  22684231.813    32731019.199 7   8335298.858 5
  21779030.911     4569440.656 7 -11258623.446 6
  23973564.946    -1325186.388 3   -627408.085 1
  20279611.077    -8317164.620 9  -9776892.006 9
  23044333.250    24423589.556 6   9191067.138 4
 94  2  1 18 54 29.9990000  0  6 29 25 22 18 14 15
  21644142.982   -23021533.275 8  -8409108.867 8
  22701375.355    32821084.150 7   8405479.248 5
  21769049.021     4516975.450 7 -11299505.384 6
  23959614.014    -1398566.323 4   -684587.330 1
  20274685.697    -8343051.431 9  -9797063.563 9
  23063376.637    24523652.534 6   9269038.222 4
 94  2  1 18 54 59.9990000  0  6 29 25 22 18 14 15
  21636509.606   -23061656.158 8  -8440373.482 8
  22718544.169    32911307.745 7   8475783.226 5
  21759151.073     4464956.016 7 -11340039.984 6
  23945658.016    -1471916.571 5   -741743.484 1
  20269854.272    -8368454.033 9  -9816857.823 9
  23082449.763    24623885.639 5   9347141.875 4
 94  2  1 18 55 29.9990000  0  6 29 25 22 18 14 15
  21628896.646   -23101662.949 8  -8471547.636 8
  22735740.744    33001698.997 7   8546217.856 5
  21749334.549     4413378.213 7 -11380230.445 6
  23931705.435    -1545221.366 5   -798864.056 1
  20265112.275    -8393365.738 9  -9836269.566 9
  23101556.615    24724286.296 6   9425376.104 4
 94  2  1 18 55 59.9990000  0  6 29 25 22 18 14 15
  21621307.250   -23141540.639 8  -8502621.173 8
  22752976.382    33092251.717 7   8616778.329 5
  21739610.511     4362260.766 7 -11420062.188 6
  23917759.480    -1618477.791 4   -855947.008 1
  20260466.721    -8417762.724 9  -9855280.231 9
  23120692.997    24824854.970 6   9503741.201 3
 94  2  1 18 56 29.9990000  0  6 29 25 22 18 14 15
  21613746.185   -23181289.550 8  -8533594.373 8
  22770240.471    33182988.690 6   8687482.357 5
  21729967.237     4311614.696 7 -11459526.639 6
  23903836.009    -1691661.881 4   -912973.549 1
  20255922.677    -8441641.227 9  -9873886.897 9
  23139863.886    24925593.378 6   9582238.569 3
 94  2  1 18 56 59.9990000  0  6 29 25 22 18 14 15
  21606203.856   -23220896.464 8  -8564456.898 8
  22787535.917    33273917.687 6   8758335.997 5
  21720423.704     4261445.495 7 -11498619.487 6
  23889935.082    -1764759.247 4   -969932.504 1
  20251476.395    -8465009.980 9  -9892096.327 9
  23159064.993    25026497.095 6   9660864.767 3
 94  2  1 18 57 29.9990000  0  6 29 25 22 18 14 15
  21598699.452   -23260357.912 8  -8595206.093 8
  22804881.159    33365031.578 6   8829333.742 5
  21710975.624     4211768.124 7 -11537329.118 6
  23876030.768    -1837783.607 4  -1026834.655 1
  20247127.156    -8487874.102 9  -9909912.547 9
  23178298.988    25127558.438 6   9739613.790 3
 94  2  1 18 57 59.9990000  0  6 29 25 22 18 14 15
  21591215.193   -23299662.332 8  -8625832.924 8
  22822261.747    33456337.872 6   8900481.396 5
  21701615.594     4162600.390 7 -11575641.622 6
  23862149.957    -1910763.767 5  -1083702.321 1
  20242870.702    -8510230.170 9  -9927332.912 9
  23197549.081    25228773.363 5   9818482.499 3
 94  2  1 18 58 29.9990000  0  6 29 25 22 18 14 15
  21583764.631   -23338813.573 8  -8656340.407 8
  22839666.108    33547840.483 6   8971782.039 5
  21692360.941     4113961.823 7 -11613541.781 6
  23848279.759    -1983695.123 5  -1140531.963 1
  20238712.311    -8532087.042 9  -9944364.258 9
  23216850.109    25330144.259 6   9897472.760 3
 94  2  1 18 58 59.9990000  0  6 29 25 22 18 14 15
  21576353.072   -23377809.159 8  -8686726.592 8
  22857118.886    33639517.148 6   9043218.315 5
  21683205.279     4065857.845 7 -11651025.390 6
  23834394.512    -2056595.076 5  -1197337.060 1
  20234648.324    -8553448.260 9  -9961009.394 9
  23236159.891    25431667.474 5   9976581.712 3
 94  2  1 18 59 29.9990000  0  6 29 25 22 18 14 15
  21568949.967   -23416668.096 8  -8717006.260 8
  22874591.600    33731364.410 6   9114787.516 5
  21674151.127     4018280.067 7 -11688098.980 6
  23820522.635    -2129462.842 5  -1254117.162 2
  20230679.792    -8574306.508 9  -9977262.602 9
  23255512.903    25533334.815 5  10055802.905 3
 94  2  1 18 59 59.9990000  0  6 29 25 22 18 14 15
  21561580.948   -23455402.788 9  -8747189.154 8
  22892100.409    33823368.737 6   9186479.088 6
  21665194.498     3971203.317 7 -11724782.163 6
  23806664.129    -2202296.953 5  -1310870.993 2
  20226805.724    -8594667.549 9  -9993128.374 9
  23274876.019    25635134.782 5  10135127.469 3
 94  2  1 19  0 29.9990000  0  6 29 25 22 18 14 15
  21554236.632   -23493996.245 8  -8777262.000 8
  22909639.916    33915528.999 6   9258292.154 6
  21656328.826     3924633.033 7 -11761070.713 6
  23792825.230    -2275066.774 5  -1367574.763 2
  20223026.180    -8614526.009 9 -10008602.521 9
  23294281.914    25737076.102 5  10214562.185 3
 94  2  1 19  0 59.9990000  0  6 29 25 22 18 14 15
  21546927.482   -23532432.041 9  -8807211.983 8
  22927210.572    34007850.968 6   9330231.224 5
  21647561.185     3878567.400 7 -11796966.011 6
  23778986.840    -2347771.789 6  -1424227.926 2
  20219346.558    -8633860.996 9 -10023668.778 9
  23313712.363    25839154.372 5  10294103.565 3
 94  2  1 19  1 29.9990000  0  6 29 25 22 18 14 15
  21539633.892   -23570722.848 8  -8837048.987 9
  22944807.670    34100336.361 6   9402297.686 5
  21638896.164     3833007.262 7 -11832467.439 6
  23765161.701    -2420408.688 5  -1480828.131 2
  20215769.104    -8652662.777 9 -10038319.547 9
  23333143.111    25941361.277 5  10373745.264 3
 94  2  1 19  1 59.9990000  0  6 29 25 22 18 14 15
  21532377.595   -23608863.326 8  -8866768.860 8
  22962436.636    34192975.515 6   9474483.898 5
  21630325.038     3787969.979 7 -11867561.420 6
  23751351.192    -2492975.338 4  -1537373.524 2
  20212296.398    -8670929.509 9 -10052553.397 9
  23352630.221    26043699.174 6  10453488.969 3
 94  2  1 19  2 29.9990000  0  6 29 25 22 18 14 15
  21525148.580   -23646860.100 8  -8896376.784 8
  22980093.422    34285764.742 6   9546787.048 5
  21621859.228     3743467.679 7 -11902238.556 6
  23737562.118    -2565460.052 5  -1593855.140 2
  20208919.296    -8688649.501 9 -10066361.216 9
  23372129.441    26146164.965 5  10533332.323 3
 94  2  1 19  2 59.9990000  0  6 29 25 22 18 14 15
  21517939.500   -23684736.527 8  -8925890.898 8
  22997779.678    34378708.739 7   9619210.836 5
  21613490.852     3699502.053 7 -11936497.507 7
  23723790.072    -2637867.110 5  -1650276.228 2
  20205655.156    -8705802.816 9 -10079727.460 9
  23391654.085    26248755.792 6  10613273.212 3
 94  2  1 19  3 29.9990000  0  6 29 25 22 18 14 15
  21510758.422   -23722506.694 8  -8955322.219 8
  23015496.993    34471806.720 6   9691754.630 5
  21605223.955     3656073.657 7 -11970337.844 7
  23710025.161    -2710196.317 5  -1706636.749 2
  20202497.652    -8722395.588 9 -10092656.937 9
  23411203.671    26351473.744 6  10693313.065 3
 94  2  1 19  3 59.9990000  0  6 29 25 22 18 14 15
  21503590.954   -23760156.886 8  -8984660.049 8
  23033240.509    34565060.153 6   9764419.560 5
  21597067.771     3613185.505 7 -12003757.181 7
  23696259.801    -2782448.886 5  -1762937.529 2
  20199447.054    -8738431.716 9 -10105152.629 9
  23430767.737    26454321.792 5  10773454.298 3
 94  2  1 19  4 29.9990000  0  6 29 25 22 18 14 15
  21496446.929   -23797687.311 8  -9013904.578 8
  23051014.635    34658469.332 6   9837205.790 5
  21589004.643     3570831.268 8 -12036760.549 7
  23682527.717    -2854648.404 4  -1819196.845 2
  20196498.535    -8753927.690 9 -10117227.448 9
  23450357.705    26557289.049 4  10853688.484 3
 94  2  1 19  4 59.9990000  0  6 29 25 22 18 14 15
  21489331.086   -23835093.538 8  -9043052.279 9
  23068828.093    34752028.409 7   9910108.868 5
  21581050.759     3529009.212 8 -12069349.153 7
  23668789.338    -2926810.450 4  -1875427.005 2
  20193646.699    -8768902.682 9 -10128896.302 9
  23469986.317    26660373.459 5  10934013.938 3
 94  2  1 19  5 29.9990000  0  6 29 25 22 18 14 15
  21482234.189   -23872364.802 8  -9072094.857 9
  23086649.075    34845719.090 6   9983114.451 5
  21573185.464     3487709.508 7 -12101530.748 6
  23655072.694    -2998941.816 4  -1931633.221 2
  20190894.455    -8783385.307 9 -10140181.484 9
  23489612.320    26763566.714 5  11014424.141 3
 94  2  1 19  5 59.9990000  0  6 29 25 22 18 14 15
  21475172.577   -23909489.657 8  -9101023.345 9
  23104503.515    34939536.536 6  10056218.847 5
  21565425.367     3446926.957 7 -12133309.375 7
  23641360.936    -3071032.959 5  -1987808.068 1
  20188232.358    -8797374.296 9 -10151082.018 9
  23509273.998    26866859.319 5  11094911.776 3
 94  2  1 19  6 29.9990000  0  6 29 25 22 18 14 15
  21468135.969   -23946473.567 8  -9129841.958 9
  23122385.416    35033478.101 6  10129419.905 5
  21557766.059     3406656.407 7 -12164689.050 7
  23627640.905    -3143079.533 4  -2043948.309 2
  20185664.845    -8810862.094 9 -10161592.011 9
  23528944.940    26970243.565 5  11175470.857 3
 94  2  1 19  7  0.0000000  0  6 29 25 22 18 14 15
  21461125.322   -23983308.819 8  -9158544.786 9
  23140284.344    35127549.466 7  10202722.141 5
  21550193.691     3366895.158 7 -12195671.871 7
  23613952.351    -3215063.723 3  -2100039.856 1
  20183199.951    -8823828.691 9 -10171695.884 9
  23548643.104    27073723.768 6  11256104.635 3
 94  2  1 19  7 30.0000000  0  6 29 25 22 18 14 15
  21454146.244   -24019978.609 8  -9187118.656 9
  23158205.908    35221748.640 6  10276123.963 5
  21542730.598     3327653.447 7 -12226249.846 7
  23600266.196    -3286966.967 4  -2156068.281 1
  20180831.501    -8836251.515 9 -10181376.036 9
  23568342.016    27177289.058 5  11336804.726 3
 94  2  1 19  8  0.0000000  0  6 29 25 22 18 14 15
  21447196.905   -24056499.817 7  -9215576.742 9
  23176158.619    35316071.409 6  10349622.103 4
  21535358.701     3288937.680 7 -12256417.974 7
  23586580.460    -3358792.683 3  -2212036.380 1
  20178574.514    -8848119.717 9 -10190624.005 9
  23588069.469    27280929.608 5  11417563.525 3
 94  2  1 19  8 30.0000000  0  6 29 25 22 18 14 15
  21440270.829   -24092881.843 8  -9243926.362 9
  23194133.096    35410515.197 6  10423214.553 4
  21528099.197     3250765.603 7 -12286162.445 7
  23572949.766    -3430548.176 3  -2267949.613 1
  20176424.012    -8859420.008 9 -10199429.445 9
  23607805.316    27384650.878 5  11498385.232 3
 94  2  1 19  9  0.0000000  0  6 29 25 22 18 14 15
  21433377.701   -24129129.131 8  -9272171.016 9
  23212122.982    35505073.444 7  10496896.174 4
  21520937.365     3213134.819 7 -12315485.122 7
  23559295.149    -3502248.141 4  -2323819.789 1
  20174381.316    -8870153.306 8 -10207793.099 9
  23627562.509    27488446.740 5  11579265.073 3
 94  2  1 19  9 30.0000000  0  6 29 25 22 18 14 15
  21426502.801   -24165249.583 8  -9300316.844 9
  23230136.701    35599755.021 6  10570673.937 4
  21513885.557     3176053.942 7 -12344379.304 7
  23545673.449    -3573893.854 4  -2379647.699 1
  20172444.657    -8880317.822 9 -10215713.533 9
  23647329.534    27592318.124 6  11660203.695 3
 94  2  1 19 10  0.0000000  0  6 29 25 22 18 14 15
  21419650.505   -24201259.784 8  -9328376.745 9
  23248185.436    35694562.269 6  10644549.572 4
  21506929.503     3139520.370 7 -12372847.049 7
  23532043.865    -3645501.365 4  -2435445.727 1
  20170616.553    -8889925.285 8 -10223199.892 9
  23667106.213    27696259.568 5  11741196.941 3
 94  2  1 19 10 30.0000000  0  6 29 25 22 18 14 15
  21412822.821   -24237148.768 8  -9356342.184 9
  23266235.280    35789500.784 6  10718527.499 4
  21500075.857     3103515.374 7 -12400902.877 7
  23518418.358    -3717090.326 3  -2491229.317 1
  20168892.506    -8899000.198 9 -10230271.266 9
  23686898.391    27800264.699 5  11822239.810 3
 94  2  1 19 11  0.0000000  0  6 29 25 22 18 14 15
  21406021.250   -24272888.104 8  -9384191.033 9
  23284327.995    35884575.057 6  10792611.245 4
  21493325.490     3068044.600 7 -12428542.461 7
  23504792.011    -3788643.327 3  -2546984.938 1
  20167265.862    -8907554.308 9 -10236936.835 9
  23706700.793    27904336.791 5  11903334.839 3
 94  2  1 19 11 30.0000000  0  6 29 25 22 18 14 15
  21399253.585   -24308460.343 8  -9411909.668 9
  23302454.496    35979770.603 6  10866789.503 4
  21486688.985     3033131.270 7 -12455747.648 7
  23491186.470    -3860141.029 3  -2602697.308 1
  20165738.000    -8915588.539 9 -10243197.307 9
  23726519.263    28008478.090 5  11984483.841 3
 94  2  1 19 12  0.0000000  0  6 29 25 22 18 14 15
  21392511.163   -24343865.769 8  -9439498.340 9
  23320587.024    36075057.809 6  10941039.184 4
  21480149.792     2998774.937 7 -12482518.810 7
  23477594.270    -3931590.001 3  -2658371.927 1
  20164302.444    -8923111.357 8 -10249059.267 9
  23746338.692    28112676.120 4  12065677.050 2
 94  2  1 19 12 30.0000000  0  6 29 25 22 18 14 15
  21385811.221   -24379078.542 8  -9466936.856 9
  23338737.208    36170449.969 5  11015370.609 5
  21473714.477     2965010.314 7 -12508828.924 7
  23464009.774    -4002953.718 4  -2713980.104 1
  20162976.372    -8930092.049 9 -10254498.785 9
  23766190.619    28216953.425 5  12146932.045 2
 94  2  1 19 13  0.0000000  0  6 29 25 22 18 14 15
  21379146.595   -24414125.422 9  -9494246.128 9
  23356902.593    36265919.131 5  11089762.073 5
  21467410.261     2931838.337 7 -12534677.220 7
  23450460.504    -4074223.360 4  -2769514.899 1
  20161754.808    -8936516.327 9 -10259504.748 9
  23786052.499    28321292.046 5  12228234.760 2
 94  2  1 19 13 30.0000000  0  6 29 25 22 18 14 15
  21372503.104   -24449034.140 9  -9521447.749 9
  23375092.440    36361472.928 6  11164219.496 5
  21461205.097     2899251.168 7 -12560069.844 7
  23436907.726    -4145404.048 5  -2824980.420 1
  20160638.530    -8942367.745 8 -10264064.313 9
  23805911.530    28425686.093 6  12309580.646 2
 94  2  1 19 14  0.0000000  0  6 29 25 22 18 14 15
  21365878.920   -24483829.437 9  -9548560.967 9
  23393295.598    36457138.233 6  11238763.787 5
  21455113.374     2867227.222 7 -12585023.577 7
  23423372.457    -4216505.234 4  -2880383.990 1
  20159637.194    -8947649.649 8 -10268180.106 9
  23825791.218    28530133.064 5  12390967.771 2
 94  2  1 19 14 30.0000000  0  6 29 25 22 18 14 15
  21359281.087   -24518500.818 9  -9575577.639 9
  23411521.751    36552933.006 6  11313408.958 5
  21449125.889     2835765.460 7 -12609539.276 7
  23409860.811    -4287522.980 5  -2935722.508 1
  20158739.255    -8952348.864 8 -10271841.866 9
  23845680.319    28634637.606 5  12472399.729 2
 94  2  1 19 15  0.0000000  0  6 29 25 22 18 14 15
  21352702.112   -24553053.883 8  -9602502.109 9
  23429775.934    36648848.718 6  11388148.357 5
  21443241.743     2804842.706 7 -12633634.957 7
  23396356.000    -4358483.565 5  -2991016.497 1
  20157957.636    -8956476.281 9 -10275058.077 9
  23865555.810    28739187.966 4  12553867.443 2
 94  2  1 19 15 30.0000000  0  6 29 25 22 18 14 15
  21346157.373   -24587480.688 9  -9629328.207 9
  23448053.860    36744891.450 6  11462986.711 5
  21437462.104     2774455.388 8 -12657313.406 7
  23382871.875    -4429405.434 5  -3046280.195 1
  20157276.448    -8960057.996 9 -10277849.051 9
  23885466.676    28843780.958 4  12635368.386 2
 94  2  1 19 16  0.0000000  0  6 29 25 22 18 14 15
  21339627.024   -24621779.355 8  -9656054.451 9
  23466343.269    36841039.267 6  11537906.987 5
  21431785.024     2744609.353 8 -12680570.075 7
  23369373.719    -4500304.942 4  -3101526.565 2
  20156693.831    -8963112.062 9 -10280228.862 9
  23905371.276    28948399.597 4  12716889.273 2
 94  2  1 19 16 30.0000000  0  6 29 25 22 18 14 15
  21333138.196   -24655906.066 8  -9682646.715 9
  23484666.614    36937294.407 6  11612910.862 5
  21426213.981     2715344.938 8 -12703373.540 7
  23355884.947    -4571157.474 5  -3156736.365 2
  20156219.380    -8965606.125 8 -10282172.325 9
  23925283.071    29053061.394 4  12798443.808 2
 94  2  1 19 17  0.0000000  0  6 29 25 22 18 14 15
  21326670.803   -24689888.851 9  -9709126.808 9
  23502992.057    37033636.745 5  11687982.715 4
  21420749.933     2686642.933 7 -12725738.746 7
  23342409.666    -4641984.201 5  -3211926.024 2
  20155841.521    -8967570.918 8 -10283703.366 9
  23945217.561    29157740.982 5  12880012.294 2
 94  2  1 19 17 30.0000000  0  6 29 25 22 18 14 15
  21320233.899   -24723721.753 9  -9735490.105 9
  23521340.885    37130064.084 5  11763120.754 4
  21415396.809     2658518.777 7 -12747653.717 7
  23328948.475    -4712771.246 6  -3267084.713 2
  20155572.697    -8968995.243 9 -10284813.261 9
  23965148.243    29262437.314 5  12961593.749 3
 94  2  1 19 18  0.0000000  0  6 29 25 22 18 14 15
  21313821.009   -24757404.622 8  -9761736.506 9
  23539704.222    37226564.433 5  11838315.716 4
  21410154.518     2630966.561 7 -12769122.987 7
  23315480.209    -4783519.238 5  -3322213.048 3
  20155413.657    -8969852.788 8 -10285481.501 9
  23985068.583    29367144.153 5  13043183.394 3
 94  2  1 19 18 30.0000000  0  6 29 25 22 18 14 15
  21307441.365   -24790937.894 9  -9787866.358 9
  23558092.832    37323139.671 6  11913569.053 4
  21405022.251     2603965.652 7 -12790162.682 7
  23302021.266    -4854227.231 5  -3377310.152 3
  20155356.247    -8970141.931 9 -10285706.849 9
  24004987.603    29471858.804 5  13124779.097 3
 94  2  1 19 19  0.0000000  0  6 29 25 22 18 14 15
  21301086.635   -24824327.552 9  -9813884.286 9
  23576487.048    37419797.282 6  11988886.562 3
  21399982.530     2577520.180 7 -12810769.582 7
  23288571.917    -4924878.720 4  -3432363.246 2
  20155405.533    -8969861.781 9 -10285488.572 9
  24024921.613    29576584.464 5  13206383.442 3
 94  2  1 19 19 30.0000000  0  6 29 25 22 18 14 15
  21294762.123   -24857572.204 9  -9839789.225 9
  23594886.480    37516521.626 5  12064256.078 3
  21395055.591     2551632.495 7 -12830941.841 7
  23275140.496    -4995468.452 5  -3487368.109 2
  20155568.470    -8969009.005 8 -10284824.107 9
  24044854.454    29681313.054 5  13287990.042 2
 94  2  1 19 20  0.0000000  0  6 29 25 22 18 14 15
  21288458.687   -24890673.190 9  -9865582.223 9
  23613293.617    37613316.806 5  12139680.820 3
  21390243.383     2526310.081 8 -12850673.595 7
  23261731.348    -5065981.984 5  -3542313.692 2
  20155839.093    -8967584.358 8 -10283714.021 9
  24064770.596    29786052.466 5  13369605.036 2
 94  2  1 19 20 30.0000000  0  6 29 25 22 18 14 15
  21282183.851   -24923648.777 9  -9891277.484 9
  23631746.233    37710179.014 6  12215157.720 2
  21385528.607     2501557.335 8 -12869961.469 7
  23248331.645    -5136408.803 6  -3597191.694 2
  20156215.812    -8965616.350 8 -10282180.521 9
  24084715.998    29890796.821 5  13451223.887 2
 94  2  1 19 21  0.0000000  0  6 29 25 22 18 14 15
  21275937.105   -24956495.665 9  -9916872.480 9
  23650190.424    37807099.090 6  12290679.762 2
  21380934.377     2477389.618 7 -12888793.455 7
  23234937.697    -5206745.644 6  -3651999.602 2
  20156692.482    -8963110.984 8 -10280228.322 9
  24104641.644    29995541.624 5  13532843.127 2
 94  2  1 19 21 30.0000000  0  6 29 25 22 18 14 15
  21269707.688   -24989212.666 8  -9942366.237 9
  23668628.230    37904071.947 6  12366242.852 2
  21376439.499     2453797.045 7 -12907177.270 7
  23221565.155    -5277017.037 6  -3706756.501 2
  20157270.932    -8960069.837 8 -10277858.632 9
  24124579.491    30100277.318 5  13614455.238 2
 94  2  1 19 22  0.0000000  0  6 29 25 22 18 14 15
  21263507.140   -25021799.241 9  -9967758.376 9
  23687093.976    38001102.331 6  12441850.812 2
  21372061.060     2430779.403 8 -12925113.116 7
  23208204.994    -5347225.934 6  -3761464.742 2
  20157949.572    -8956495.558 8 -10275073.492 9
  24144509.934    30205002.173 5  13696058.939 2
 94  2  1 19 22 30.0000000  0  6 29 25 22 18 14 15
  21257339.330   -25054231.490 9  -9993030.256 9
  23705580.258    38098203.177 5  12517513.706 2
  21367791.146     2408349.911 8 -12942590.663 7
  23194856.855    -5417371.925 6  -3816123.916 2
  20158738.686    -8952367.171 8 -10271856.587 9
  24164440.496    30309717.012 5  13777654.786 2
 94  2  1 19 23  0.0000000  0  6 29 25 22 18 14 15
  21251197.242   -25086489.163 9 -10018166.126 9
  23724074.875    38195380.466 6  12593236.097 3
  21363639.620     2386514.257 8 -12959605.473 7
  23181519.508    -5487476.836 6  -3870751.146 2
  20159630.898    -8947661.543 8 -10268189.915 9
  24184359.816    30414424.319 5  13859244.774 3
 94  2  1 19 23 30.0000000  0  7 19 29 25 22 18 14 15
  24637938.310   -10075728.53513   -201469.538
  21245090.320   -25118577.233 8 -10043169.787 9
  23742575.247    38292641.589 6  12669023.869 3
  21359596.949     2365270.786 8 -12976158.850 7
  23168185.609    -5557536.145 5  -3925342.751 2
  20160642.458    -8942363.879 8 -10264061.886 9
  24204276.618    30519127.003 5  13940831.223 3
 94  2  1 19 24  0.0000000  0  7 19 29 25 22 18 14 15
  24620944.005   -10165030.541 3   -271055.440 1
  21239016.315   -25150507.863 9 -10068050.795 9
  23761099.273    38389976.243 6  12744868.954 3
  21355664.001     2344614.755 7 -12992254.459 7
  23154862.532    -5627549.532 6  -3979898.631 3
  20161760.354    -8936482.618 8 -10259479.106 9
  24224186.285    30623814.710 4  14022405.932 3
 94  2  1 19 24 30.0000000  0  7 19 29 25 22 18 14 15
  24603982.707   -10254152.608 4   -340501.253 1
  21232968.122   -25182296.757 9 -10092821.378 9
  23779637.779    38487382.825 6  12820770.115 2
  21351841.348     2324546.538 7 -13007892.055 7
  23141553.816    -5697524.157 6  -4034424.280 3
  20162991.002    -8930025.178 8 -10254447.382 9
  24244120.175    30728483.828 4  14103966.139 3
 94  2  1 19 25  0.0000000  0  7 19 29 25 22 18 14 15
  24587075.642   -10343104.236 4   -409814.210 2
  21226944.812   -25213954.078 8 -10117489.427 9
  23798185.549    38584857.395 5  12896724.227 2
  21348131.536     2305055.776 8 -13023079.677 7
  23128245.699    -5767443.792 6  -4088907.145 3
  20164324.329    -8923005.264 8 -10248977.331 9
  24264033.979    30833133.815 5  14185511.489 3
 94  2  1 19 25 30.0000000  0  7 19 29 25 22 18 14 15
  24570177.930   -10431898.831 4   -479004.792 2
  21220939.879   -25245492.196 8 -10142064.587 9
  23816741.113    38682388.381 5  12972722.278 2
  21344538.793     2286140.175 8 -13037819.117 7
  23114952.991    -5837280.254 6  -4143325.107 3
  20165762.913    -8915436.418 8 -10243079.556 9
  24283946.883    30937755.585 5  14267034.879 2
 94  2  1 19 26  0.0000000  0  7 19 29 25 22 18 14 15
  24553302.552   -10520559.457 3   -548091.012 2
  21214956.651   -25276918.927 8 -10166552.939 9
  23835313.586    38779957.780 5  13048750.251 2
  21341048.699     2267790.183 8 -13052117.839 7
  23101668.018    -5907049.010 6  -4197690.397 3
  20167308.913    -8907326.997 8 -10236760.566 9
  24303847.437    31042337.505 4  14348527.216 2
 94  2  1 19 26 30.0000000  0  7 19 29 25 22 18 14 15
  24536441.595   -10609093.230 3   -617078.500 2
  21209001.634   -25308217.634 8 -10190941.552 9
  23853892.354    38877560.871 5  13124804.518 3
  21337662.753     2250015.297 8 -13065968.414 7
  23088417.251    -5976738.944 6  -4251994.241 3
  20168955.523    -8898665.579 8 -10230011.443 9
  24323735.488    31146883.922 3  14429991.818 2
 94  2  1 19 27  0.0000000  0  7 19 29 25 22 18 14 15
  24519628.245   -10697481.123 3   -685952.173 2
  21203077.855   -25339358.553 8 -10215207.202 9
  23872472.111    38975199.094 5  13200886.125 3
  21334393.367     2232830.779 8 -13079358.958 7
  23075176.048    -6046344.847 6  -4306232.596 2
  20170715.634    -8889433.680 8 -10222817.782 9
  24343627.288    31251396.705 4  14511430.170 2
 94  2  1 19 27 30.0000000  0  7 19 29 25 22 18 14 15
  24502836.629   -10785708.055 4   -754700.513 2
  21197185.104   -25370339.867 8 -10239348.488 9
  23891056.546    39072877.035 5  13276998.724 3
  21331236.372     2216246.828 8 -13092281.535 7
  23061937.123    -6115885.190 6  -4360419.897 2
  20172582.921    -8879621.406 8 -10215171.886 9
  24363519.626    31355876.060 5  14592842.575 2
 94  2  1 19 28  0.0000000  0  7 19 29 25 22 18 14 15
  24486080.779   -10873774.262 4   -823323.611 2
  21191320.834   -25401154.801 8 -10263360.124 9
  23909660.137    39170590.877 5  13353139.217 3
  21328197.196     2200268.658 8 -13104732.046 7
  23048706.383    -6185383.106 6  -4414574.133 2
  20174559.933    -8869230.393 8 -10207075.027 9
  24383381.057    31460317.935 4  14674225.700 2
 94  2  1 19 28 30.0000000  0  7 19 29 25 22 18 14 15
  24469365.101   -10961673.295 5   -891816.472 2
  21185488.551   -25431797.940 8 -10287237.900 9
  23928253.295    39268344.528 5  13429310.815 3
  21325272.931     2184909.896 8 -13116699.941 7
  23035499.895    -6254838.612 6  -4468695.241 2
  20176649.156    -8858269.964 9 -10198534.447 9
  24403245.695    31564715.302 4  14755574.163 2
 94  2  1 19 29  0.0000000  0  7 19 29 25 22 18 14 15
  24452670.888   -11049385.781 5   -960163.964 2
  21179689.156   -25462268.832 8 -10310981.451 9
  23946871.456    39366157.616 5  13505528.706 3
  21322469.931     2170168.041 8 -13128187.082 7
  23022283.695    -6324242.054 6  -4522775.806 2
  20178836.292    -8846740.547 8 -10189550.525 9
  24423116.988    31669068.407 4  14836888.130 2
 94  2  1 19 29 30.0000000  0  7 19 29 25 22 18 14 15
  24436018.376   -11136923.800 4  -1028375.414 1
  21173921.299   -25492586.869 9 -10334605.872 9
  23965494.473    39464021.108 5  13581785.799 3
  21319776.896     2156024.079 8 -13139208.371 7
  23009090.818    -6393597.623 6  -4576819.133 2
  20181138.668    -8834651.312 8 -10180130.366 9
  24442961.390    31773368.306 4  14918160.629 2
 94  2  1 19 30  0.0000000  0  7 19 29 25 22 18 14 15
  24419378.786   -11224290.923 4  -1096453.626 1
  21168182.612   -25522744.491 8 -10358105.314 9
  23984116.622    39561944.440 4  13658089.581 2
  21317203.777     2142484.956 8 -13149758.321 7
  22995901.299    -6462892.002 6  -4630814.681 2
  20183548.520    -8821996.826 8 -10170269.765 9
  24462793.680    31877613.846 5  14999390.796 2
 94  2  1 19 30 30.0000000  0  7 19 29 25 22 18 14 15
  24402795.946   -11311484.519 4  -1164396.797 1
  21162470.906   -25552746.646 9 -10381483.620 9
  24002771.147    39659945.355 4  13734453.804 2
  21314738.194     2129541.911 8 -13159843.799 7
  22982733.365    -6532105.562 6  -4684747.287 3
  20186066.627    -8808764.570 8 -10159958.934 9
  24482627.889    31981805.499 5  15080579.026 2
 94  2  1 19 31  0.0000000  0  7 19 29 25 22 18 14 15
  24386233.612   -11398500.427 4  -1232201.438 1
  21156791.428   -25582605.140 9 -10404749.967 9
  24021424.144    39758021.670 4  13810876.860 2
  21312387.221     2117187.538 8 -13169470.571 7
  22969576.613    -6601240.151 6  -4738618.339 3
  20188690.920    -8794951.750 8 -10149195.732 9
  24502422.916    32085938.664 3  15161721.637 2
 94  2  1 19 31 30.0000000  0  7 19 29 25 22 18 14 15
  24369700.477   -11485341.486 4  -1299869.833 1
  21151132.636   -25612324.528 8 -10427907.938 9
  24040086.734    39856174.902 4  13887359.841 2
  21310149.361     2105448.240 7 -13178618.101 8
  22956434.911    -6670301.118 6  -4792432.050 4
  20191434.321    -8780550.698 8 -10137974.183 9
  24522247.621    32190018.087 4  15242822.402 1
 94  2  1 19 32  0.0000000  0  7 19 29 25 22 18 14 15
  24353211.592   -11571985.934 4  -1367384.948 1
  21145507.630   -25641891.040 8 -10450946.772 9
  24058805.026    39954410.756 5  13963907.166 2
  21308037.353     2094344.610 8 -13187270.271 7
  22943308.498    -6739282.107 6  -4846183.433 5
  20194286.127    -8765542.413 8 -10126279.425 9
  24542044.806    32294049.486 4  15323885.766 1
 94  2  1 19 32 30.0000000  0  7 19 29 25 22 18 14 15
  24336776.400   -11658408.431 4  -1434727.180 1
  21139913.922   -25671302.163 9 -10473864.560 9
  24077505.959    40052704.598 5  14040499.666 2
  21306049.639     2083880.552 8 -13195424.083 7
  22930195.576    -6808192.584 6  -4899879.868 5
  20197265.404    -8749924.147 9 -10114109.367 9
  24561831.828    32398029.701 3  15404909.069 1
 94  2  1 19 33  0.0000000  0  7 19 29 25 22 18 14 15
  24320373.766   -11744602.691 4  -1501891.495 1
  21134346.716   -25700550.128 9 -10496655.185 9
  24096223.292    40151027.197 5  14117114.642 2
  21304179.473     2074058.647 8 -13203077.510 7
  22917090.448    -6877046.954 6  -4953532.602 5
  20200344.902    -8733709.787 8 -10101474.824 9
  24581610.965    32501951.805 3  15485887.193 1
 94  2  1 19 33 30.0000000  0  7 19 29 25 22 18 14 15
  24303992.116   -11830584.569 3  -1568890.246 1
  21128818.124   -25729618.373 9 -10519305.771 9
  24114938.645    40249360.645 5  14193738.036 2
  21302426.197     2064864.045 8 -13210242.115 7
  22904001.330    -6945839.684 6  -5007137.265 5
  20203547.195    -8716896.021 8 -10088373.205 9
  24601374.123    32605810.161 3  15566815.642 1
 94  2  1 19 34  0.0000000  0  6 19 29 25 22 18 14
  24287680.559   -11916362.705 4  -1635730.372 1
  21123320.529   -25758500.606 8 -10541811.399 9
  24133645.875    40347681.128 5  14270351.246 2
  21300797.065     2056267.924 8 -13216940.374 7
  22890919.406    -7014569.105 6  -5060692.588 4
  20206856.424    -8699493.927 8 -10074813.167 9
 94  2  1 19 34 30.0000000  0  6 19 29 25 22 18 14
  24271398.920   -12001956.456 5  -1702426.838 1
  21117860.529   -25787185.014 8 -10564162.907 9
  24152346.508    40445988.020 4  14346953.936 2
  21299272.411     2048264.450 8 -13223176.842 8
  22877858.858    -7083208.654 6  -5114177.901 4
  20210276.337    -8681525.470 8 -10060811.796 9
 94  2  1 19 35  0.0000000  0  6 19 29 25 22 18 14
  24255148.070   -12087401.093 4  -1769006.894 1
  21112437.733   -25815684.098 8 -10586369.986 9
  24171062.042    40544291.910 4  14423554.252 2
  21297857.690     2040836.142 8 -13228965.164 8
  22864813.779    -7151745.266 7  -5167582.975 4
  20213804.085    -8663004.723 8 -10046380.058 9
 94  2  1 19 35 30.0000000  0  6 19 29 25 22 18 14
  24238906.904   -12172691.178 3  -1835466.616 1
  21107045.756   -25844018.779 8 -10608448.968 9
  24189781.233    40642620.358 4  14500173.657 1
  21296553.383     2033991.207 8 -13234298.878 8
  22851801.857    -7220160.901 7  -5220893.770 4
  20217435.291    -8643920.826 9 -10031509.509 9
 94  2  1 19 36  0.0000000  0  6 19 29 25 22 18 14
  24222699.584   -12257819.475 4  -1901800.441 1
  21101681.420   -25872206.804 8 -10630413.657 9
  24208483.845    40740984.020 3  14576820.568 1
  21295363.237     2027732.909 8 -13239175.492 8
  22838802.256    -7288460.627 7  -5274114.246 4
  20221170.585    -8624289.364 8 -10016212.284 9
 94  2  1 19 36 30.0000000  0  6 19 29 25 22 18 14
  24206539.391   -12342770.432 3  -1967996.032 1
  21096345.354   -25900252.878 9 -10652267.727 9
  24227220.664    40839397.355 4  14653506.285 1
  21294289.650     2022072.082 8 -13243586.537 7
  22825826.909    -7356656.911 7  -5327254.157 4
  20225009.397    -8604101.620 8 -10000481.594 9
 94  2  1 19 37  0.0000000  0  5 29 25 22 18 14
  21091031.593   -25928159.267 9 -10674012.972 9
  24245956.733    40937874.275 5  14730241.524 1
  21293325.637     2017026.493 7 -13247518.194 7
  22812864.243    -7424763.298 6  -5380324.016 4
  20228965.728    -8583324.524 8  -9984291.664 9
 94  2  1 19 37 30.0000000  0  5 29 25 22 18 14
  21085749.639   -25955915.307 9 -10695641.054 9
  24264707.972    41036399.254 5  14807014.163 1
  21292486.968     2012597.459 8 -13250969.411 7
  22799919.444    -7492796.923 6  -5433337.179 4
  20233029.475    -8561955.760 8  -9967640.698 9
 94  2  1 19 38  0.0000000  0  5 29 25 22 18 14
  21080504.920   -25983490.451 9 -10717128.168 9
  24283456.453    41134946.895 5  14883804.461 1
  21291755.354     2008785.192 8 -13253940.046 7
  22786985.168    -7560776.510 6  -5486308.244 4
  20237212.389    -8539996.368 9  -9950529.491 9
 94  2  1 19 38 30.0000000  0  5 29 25 22 18 14
  21075294.437   -26010875.439 9 -10738467.136 9
  24302210.899    41233509.847 5  14960606.649 1
  21291147.945     2005591.951 7 -13256428.317 7
  22774054.610    -7628700.999 7  -5539236.467 4
  20241505.267    -8517435.553 8  -9932949.668 9
 94  2  1 19 39  0.0000000  0  5 29 25 22 18 14
  21070117.921   -26038068.879 9 -10759656.833 9
  24320964.297    41332080.833 4  15037415.193 1
  21290659.583     2003021.328 7 -13258431.432 8
  22761144.977    -7696557.781 7  -5592111.905 4
  20245910.058    -8494279.584 8  -9914906.053 9
 94  2  1 19 39 30.0000000  0  5 29 25 22 18 14
  21064982.746   -26065065.883 9 -10780693.441 9
  24339726.358    41430654.980 4  15114226.103 1
  21290289.879     2001066.364 8 -13259954.773 8
  22748244.338    -7764348.413 7  -5644935.802 4
  20250421.935    -8470560.110 8  -9896423.375 9
 94  2  1 19 40  0.0000000  0  5 29 25 22 18 14
  21059879.409   -26091882.133 9 -10801589.235 9
  24358480.175    41529237.751 3  15191043.764 1
  21290033.796     1999716.667 8 -13261006.501 8
  22735351.614    -7832076.571 6  -5697710.980 4
  20255038.109    -8446292.343 8  -9877513.451 9
 94  2  1 19 40 30.0000000  0  5 29 25 22 18 14
  21054807.790   -26118514.121 9 -10822341.417 9
  24377263.162    41627853.369 4  15267887.115 1
  21289896.521     1998987.250 8 -13261574.905 8
  22722480.024    -7899719.556 6  -5750419.767 4
  20259763.198    -8421470.869 8  -9858172.053 9
 94  2  1 19 41  0.0000000  0  5 29 25 22 18 14
  21049778.891   -26144959.028 9 -10842947.837 9
  24396034.577    41726511.725 3  15344763.570 1
  21289874.037     1998893.828 7 -13261647.719 8
  22709627.112    -7967271.331 6  -5803057.480 4
  20264592.375    -8396094.376 8  -9838398.182 9
 94  2  1 19 41 30.0000000  0  6 19 29 25 22 18 14
  24047013.709     2560800.39113    -38459.837
  21044780.512   -26171225.428 9 -10863415.163 9
  24414802.304    41825193.758 3  15421658.575 1
  21289976.146     1999420.040 8 -13261237.710 8
  22696788.230    -8034746.090 6  -5855635.171 4
  20269529.297    -8370162.077 8  -9818191.207 9
 94  2  1 19 42  0.0000000  0  6 19 29 25 22 18 14
  24031258.656     2478017.814 3   -102965.764 1
  21039813.610   -26197334.807 9 -10883760.127 9
  24433599.771    41923874.070 4  15498552.239 1
  21290193.855     2000556.436 8 -13260352.190 8
  22683963.529    -8102150.376 7  -5908157.967 4
  20274572.496    -8343640.059 8  -9797524.724 9
 94  2  1 19 42 30.0000000  0  6 19 29 25 22 18 14
  24015546.143     2395429.857 4   -167320.020 1
  21034871.501   -26223287.584 9 -10903983.053 9
  24452358.474    42022532.428 4  15575428.789 1
  21290525.066     2002308.246 8 -13258987.133 8
  22671150.549    -8169485.054 7  -5960626.459 4
  20279739.119    -8316517.977 9  -9776390.655 9
 94  2  1 19 43  0.0000000  0  6 19 29 25 22 18 14
  23999864.629     2313032.245 5   -231525.931 1
  21029965.608   -26249089.918 9 -10924088.756 9
  24471134.056    42121157.146 5  15652279.107 1
  21290971.097     2004653.968 8 -13257159.286 8
  22658347.013    -8236757.078 7  -6013046.216 4
  20285010.699    -8288791.208 8  -9754785.398 9
 94  2  1 19 43 30.0000000  0  6 19 29 25 22 18 14
  23984231.532     2230844.331 5   -295568.414 2
  21025084.027   -26274731.382 9 -10944069.121 9
  24489887.214    42219759.980 4  15729112.435 1
  21291534.258     2007599.246 7 -13254864.250 8
  22645559.036    -8303965.430 7  -6065416.280 4
  20290405.794    -8260446.962 8  -9732698.994 9
 94  2  1 19 44  0.0000000  0  6 19 29 25 22 18 14
  23968628.504     2148876.868 4   -359439.156 2
  21020235.694   -26300206.885 9 -10963920.175 9
  24508648.376    42318354.951 3  15805939.634 1
  21292210.320     2011154.306 8 -13252094.074 8
  22632780.682    -8371112.392 7  -6117738.560 4
  20295913.432    -8231507.880 8  -9710149.090 9
 94  2  1 19 44 30.0000000  0  6 19 29 25 22 18 14
  23953075.361     2067108.735 5   -423154.557 2
  21015422.376   -26325501.150 9 -10983629.998 9
  24527415.683    42416962.414 4  15882776.640 1
  21293009.386     2015330.472 8 -13248839.925 8
  22620012.731    -8438191.534 6  -6170007.948 4
  20301525.097    -8202009.965 8  -9687163.730 9
 94  2  1 19 45  0.0000000  0  6 19 29 25 22 18 14
  23937547.401     1985536.465 5   -486717.320 2
  21010644.014   -26350605.690 8 -11003191.964 9
  24546174.597    42515604.878 3  15959640.917 1
  21293921.625     2020146.805 8 -13245086.925 8
  22607263.397    -8505191.611 6  -6222215.733 4
  20307247.145    -8171944.813 8  -9663736.350 9
 94  2  1 19 45 30.0000000  0  6 19 29 25 22 18 14
  23922067.617     1904174.639 5   -550116.164 2
  21005900.997   -26375520.851 8 -11022606.379 9
  24564940.975    42614277.604 3  16036528.704 1
  21294961.485     2025621.796 8 -13240820.695 8
  22594524.646    -8572103.259 6  -6274354.625 5
  20313078.109    -8141310.429 9  -9639865.439 9
 94  2  1 19 46  0.0000000  0  5 19 29 22 18 14
  23906624.348     1823021.281 5   -613352.513 2
  21001196.834   -26400248.486 9 -11041874.633 9
  21296127.498     2031739.626 8 -13236053.518 8
  22581811.887    -8638901.900 6  -6326405.433 5
  20319017.837    -8110105.496 8  -9615549.907 9
 94  2  1 19 46 30.0000000  0  5 19 29 22 18 14
  23891217.594     1742068.679 5   -676432.490 2
  20996527.447   -26424806.438 9 -11061010.695 9
  21297409.860     2038477.187 8 -13230803.487 8
  22569129.827    -8705586.390 6  -6378367.319 5
  20325059.584    -8078322.782 8  -9590784.188 9
 94  2  1 19 47  0.0000000  0  6 19 29 25 22 18 14
  23875861.505     1661333.323 4   -739343.125 2
  20991879.404   -26449212.907 9 -11080028.712 9
  24621309.992   -20623873.91114     39718.078
  21298800.417     2045811.471 7 -13225088.455 8
  22556460.987    -8772159.001 6  -6430242.067 5
  20331224.456    -8045953.429 8  -9565561.319 9
 94  2  1 19 47 30.0000000  0  7 19 29 25 22 18  4 14
  23860530.389     1580804.724 4   -802092.730 2
  20987259.453   -26473478.205 8 -11098936.725 9
  24640084.794   -20525247.100 3    116572.573
  21300309.962     2053711.134 8 -13218932.868 8
  22543813.912    -8838624.393 7  -6482033.242 5
  24769149.944    20129914.74715     -7720.524
  20337489.189    -8013018.941 8  -9539898.103 9
 94  2  1 19 48  0.0000000  0  6 19 29 22 18  4 14
  23845251.946     1500471.577 3   -864690.032 2
  20982676.285   -26497580.950 9 -11117718.069 9
  21301922.936     2062182.525 8 -13212331.740 8
  22531183.746    -8904984.338 7  -6533742.295 5
  24766567.832    20116357.399 5    -18284.573
  20343867.873    -7979520.542 8  -9513795.483 9
 94  2  1 19 48 30.0000000  0  6 19 29 22 18  4 14
  23829983.576     1420325.924 3   -927141.310 2
  20978123.997   -26521513.731 9 -11136366.965 9
  21303639.277     2071253.860 7 -13205263.205 8
  22518575.075    -8971254.807 7  -6585381.580 5
  24764069.841    20103270.885 4    -28481.872 1
  20350346.568    -7945464.913 8  -9487258.645 9
 94  2  1 19 49  0.0000000  0  6 19 29 22 18  4 14
  23814774.834     1340352.803 4   -989458.110 2
  20973605.735   -26545254.780 9 -11154866.472 9
  21305488.068     2080933.773 8 -13197720.399 8
  22505984.871    -9037440.774 7  -6636954.995 5
  24761677.347    20090668.839 4    -38301.677 1
  20356934.987    -7910853.984 8  -9460289.115 9
 94  2  1 19 49 30.0000000  0  6 19 29 22 18  4 14
  23799582.192     1260564.743 4  -1051630.681 2
  20969129.144   -26568762.398 8 -11173184.094 9
  21307453.567     2091256.030 8 -13189677.064 8
  22493404.020    -9103535.525 7  -6688457.357 5
  24759373.472    20078572.462 4    -47727.343 1
  20363627.824    -7875674.575 8  -9432876.619 9
 94  2  1 19 50  0.0000000  0  6 19 29 22 18  4 14
  23784455.684     1180978.066 4  -1113646.323 2
  20964699.980   -26592039.762 9 -11191322.306 9
  21309539.793     2102236.624 8 -13181120.744 8
  22480840.078    -9169547.054 7  -6739894.893 5
  24757170.178    20067013.990 3    -56734.005 1
  20370433.802    -7839917.857 8  -9405014.266 9
 94  2  1 19 50 30.0000000  0  6 19 29 22 18  4 14
  23769349.112     1101619.663 4  -1175484.191 2
  20960314.047   -26615097.151 9 -11209289.107 9
  21311756.938     2113868.177 8 -13172057.189 8
  22468300.209    -9235468.253 7  -6791262.039 5
  24755075.168    20056003.163 3    -65313.940 1
  20377347.256    -7803575.012 8  -9376695.195 9
 94  2  1 19 51  0.0000000  0  6 19 29 22 18  4 14
  23754288.858     1022508.725 4  -1237129.026 2
  20955968.705   -26637943.150 9 -11227091.184 9
  21314088.394     2126128.760 8 -13162503.470 8
  22455769.814    -9301299.540 7  -6842559.100 5
  24753066.679    20045509.499 2    -73490.880 1
  20384376.130    -7766642.001 8  -9347916.250 9
 94  2  1 19 51 30.0000000  0  6 19 29 22 18  4 14
  23739286.104      943664.652 4  -1298566.074 2
  20951651.244   -26660612.187 8 -11244755.385 9
  21316541.955     2139015.639 7 -13152461.731 8
  22443257.616    -9367046.623 7  -6893790.539 5
  24751180.684    20035514.338 3    -81279.345 1
  20391517.216    -7729117.280 8  -9318676.221 9
 94  2  1 19 52  0.0000000  0  6 19 29 22 18  4 14
  23724337.133      865074.932 4  -1359804.867 2
  20947368.738   -26683127.679 9 -11262299.922 9
  21319110.997     2152509.121 8 -13141947.347 8
  22430760.168    -9432707.500 7  -6944954.816 5
  24749367.449    20026012.250 3    -88683.571 1
  20398765.658    -7691012.402 8  -9288984.122 9
 94  2  1 19 52 30.0000000  0  6 19 29 22 18  4 14
  23709410.946      786726.250 4  -1420855.874 2
  20943115.703   -26705469.699 9 -11279709.314 9
  21321790.152     2166608.958 8 -13130960.458 8
  22418282.536    -9498271.428 7  -6996043.565 5
  24747670.324    20016991.036 4    -95713.052 1
  20406126.403    -7652329.559 8  -9258841.670 9
 94  2  1 19 53  0.0000000  0  6 19 29 22 18  4 14
  23694547.896      708588.417 4  -1481742.576 2
  20938895.165   -26727638.179 8 -11296983.466 9
  21324590.063     2181320.532 8 -13119496.898 8
  22405824.930    -9563744.530 7  -7047061.561 5
  24746038.194    20008464.648 4   -102356.811 1
  20413599.059    -7613076.162 8  -9228254.637 9
 94  2  1 19 53 30.0000000  0  6 19 29 22 18  4 14
  23679717.912      630632.243 5  -1542487.665 2
  20934712.100   -26749623.264 8 -11314114.702 9
  21327507.374     2196641.891 8 -13107558.187 8
  22393384.353    -9629129.134 7  -7098010.561 5
  24744511.381    20000457.469 4   -108596.169 1
  20421172.476    -7573272.824 8  -9197239.069 9
 94  2  1 19 54  0.0000000  0  6 19 29 22 18  4 14
  23664916.769      552846.407 5  -1603100.068 2
  20930568.639   -26771384.012 8 -11331071.156 9
  21330532.010     2212581.775 7 -13095137.519 8
  22380965.630    -9694412.956 7  -7148881.049 5
  24743084.879    19992978.360 4   -114424.093 1
  20428849.052    -7532926.626 8  -9165800.496 9
 94  2  1 19 54 30.0000000  0  6 19 29 22 18  4 14
  23650149.472      475240.071 6  -1663572.507 2
  20926474.643   -26792916.413 8 -11347849.652 9
  21333691.373     2229138.488 8 -13082236.192 8
  22368554.672    -9759595.281 7  -7199672.425 5
  24741772.537    19986017.416 4   -119848.159 1
  20436630.135    -7492031.804 8  -9133934.417 9
 94  2  1 19 55  0.0000000  0  6 19 29 22 18  4 14
  23635417.071      397821.082 5  -1723899.016 2
  20922421.359   -26814226.045 9 -11364454.580 9
  21336959.440     2246306.998 8 -13068858.123 8
  22356172.314    -9824682.777 7  -7250389.897 5
  24740524.741    19979562.334 4   -124878.235 1
  20444517.165    -7450594.611 8  -9101645.712 9
 94  2  1 19 55 30.0000000  0  6 19 29 22 18  4 14
  23620724.243      320614.072 5  -1784060.319 2
  20918407.198   -26835305.228 8 -11380879.912 9
  21340337.502     2264082.212 8 -13055007.323 8
  22343807.344    -9889665.408 7  -7301025.712 5
  24739404.627    19973604.556 4   -129520.740 1
  20452507.144    -7408606.794 8  -9068927.944 9
 94  2  1 19 56  0.0000000  0  6 19 29 22 18  4 14
  23606082.709      243628.501 5  -1844049.007 2
  20914433.419   -26856183.655 8 -11397148.815 9
  21343839.228     2282452.322 8 -13040692.963 8
  22331463.300    -9954546.992 7  -7351582.774 5
  24738362.188    19968129.266 4   -133787.052 1
  20460607.266    -7366053.564 8  -9035769.604 9
 94  2  1 19 56 30.0000000  0  6 19 29 22 18  4 14
  23591464.289      166878.916 4  -1903853.933 2
  20910497.953   -26876884.567 8 -11413279.387 9
  21347451.127     2301420.080 8 -13025912.873 8
  22319135.714   -10019314.393 7  -7402050.884 5
  24737414.604    19963150.979 3   -137666.279 1
  20468811.896    -7322917.212 8  -9002156.887 9
 94  2  1 19 57  0.0000000  0  5 19 29 22 18 14
  23576912.363       90363.624 4  -1963476.344 2
  20906596.664   -26897408.561 9 -11429272.093 9
  21351171.522     2320989.940 8 -13010663.616 8
  22306835.199   -10083966.274 7  -7452428.939 5
  20477137.253    -7279192.615 8  -8968085.788 9
 94  2  1 19 57 30.0000000  0  5 19 29 22 18 14
  23562374.138       14060.129 3  -2022933.563 2
  20902716.840   -26917777.986 9 -11445144.391 9
  21355001.670     2341143.467 8 -12994959.594 8
  22294548.056   -10148514.013 7  -7502725.845 5
  20485565.138    -7234889.124 8  -8933563.606 9
 94  2  1 19 58  0.0000000  0  5 19 29 22 18 14
  23547904.445      -62034.595 4  -2082228.113 2
  20898871.252   -26937981.942 9 -11460887.716 9
  21358950.866     2361894.959 8 -12978789.588 8
  22282289.122   -10212951.413 7  -7552936.792 5
  20494106.225    -7190010.134 8  -8898592.976 9
 94  2  1 19 58 30.0000000  0  5 19 29 22 18 14
  23533459.035     -137928.368 4  -2141366.101 2
  20895062.599   -26957991.098 8 -11476479.278 9
  21363016.951     2383259.298 8 -12962142.043 8
  22270048.236   -10277282.711 7  -7603065.018 5
  20502753.559    -7144566.371 8  -8863182.261 9
 94  2  1 19 59  0.0000000  0  5 19 29 22 18 14
  23519059.164     -213617.898 5  -2200344.952 2
  20891297.116   -26977777.585 9 -11491897.303 9
  21367194.739     2405238.562 7 -12945015.331 7
  22257819.162   -10341514.679 6  -7653115.910 5
  20511507.499    -7098558.800 8  -8827332.232 9
 94  2  1 19 59 30.0000000  0  5 19 29 22 18 14
  23504697.846     -289103.181 5  -2259164.617 2
  20887576.482   -26997338.843 9 -11507139.831 9
  21371506.534     2427842.751 8 -12927401.691 7
  22245618.539   -10405649.877 7  -7703091.361 5
  20520367.385    -7051996.776 8  -8791050.147 9
 94  2  1 20  0  0.0000000  0  5 19 29 22 18 14
  23490378.379     -364374.748 5  -2317817.780 2
  20883898.988   -27016673.683 9 -11522205.942 9
  21375923.316     2451081.166 8 -12909293.835 8
  22233429.637   -10469688.136 6  -7752991.254 5
  20529334.477    -7004870.849 8  -8754328.657 9
 94  2  1 20  0 30.0000000  0  5 19 29 22 18 14
  23476095.637     -439408.960 5  -2376285.991 2
  20880264.544   -27035774.367 9 -11537089.591 9
  21380472.757     2474950.598 8 -12890694.278 7
  22221265.918   -10533621.588 7  -7802809.514 5
  20538413.242    -6957168.299 8  -8717157.856 9
 94  2  1 20  1  0.0000000  0  5 19 29 22 18 14
  23461861.701     -514205.884 5  -2434569.308 2
  20876667.874   -27054679.021 9 -11551820.483 9
  21385123.797     2499430.579 7 -12871618.969 7
  22209109.513   -10597463.875 8  -7852556.737 5
  20547593.667    -6908901.805 8  -8679547.627 9
 94  2  1 20  1 30.0000000  0  5 19 29 22 18 14
  23447679.150     -588749.643 5  -2492655.329 2
  20873101.662   -27073391.422 9 -11566401.589 9
  21389902.279     2524535.691 7 -12852056.573 7
  22196988.125   -10661197.216 7  -7902219.059 6
  20556892.719    -6860061.612 8  -8641490.349 9
 94  2  1 20  2  0.0000000  0  5 19 29 22 18 14
  23433542.766     -663036.617 5  -2550541.246 2
  20869576.193   -27091907.861 9 -11580829.991 9
  21394794.022     2550259.291 8 -12832012.235 7
  22184884.094   -10724809.771 7  -7951787.269 6
  20566295.200    -6810645.518 8  -8602984.326 9
 94  2  1 20  2 30.0000000  0  5 19 29 22 18 14
  23419454.799     -737061.392 4  -2608222.848 2
  20866098.690   -27110213.720 9 -11595094.273 9
  21399812.638     2576605.273 8 -12811482.894 7
  22172805.666   -10788289.076 7  -8001251.618 6
  20575807.435    -6760662.615 8  -8564036.626 9
 94  2  1 20  3  0.0000000  0  5 19 29 22 18 14
  23405408.503     -810848.054 4  -2665719.001 2
  20862650.148   -27128321.282 9 -11609204.077 9
  21404941.967     2603570.711 7 -12790470.885 7
  22160749.183   -10851637.952 7  -8050614.365 6
  20585423.188    -6710128.882 8  -8524659.702 9
 94  2  1 20  3 30.0000000  0  5 19 29 22 18 14
  23391418.388     -884410.621 5  -2723040.476 2
  20859246.544   -27146214.742 9 -11623147.027 9
  21410196.310     2631150.672 8 -12768980.033 7
  22148720.790   -10914849.471 7  -8099870.025 6
  20595140.421    -6659056.597 8  -8484863.136 9
 94  2  1 20  4  0.0000000  0  5 19 29 22 18 14
  23377454.445     -957753.880 5  -2780191.009 2
  20855887.400   -27163876.738 9 -11636909.612 9
  21415552.911     2659337.623 7 -12747016.181 7
  22136721.567   -10977922.918 7  -8149018.139 6
  20604962.551    -6607447.923 8  -8444648.609 9
 94  2  1 20  4 30.0000000  0  5 19 29 22 18 14
  23363536.101    -1030896.659 5  -2837185.332 2
  20852563.870   -27181324.806 9 -11650505.529 9
  21421027.511     2688113.555 7 -12724593.403 7
  22124736.823   -11040878.538 7  -8198074.424 6
  20614882.983    -6555328.056 8  -8404035.764 9
 94  2  1 20  5  0.0000000  0  5 19 29 22 18 14
  23349652.712    -1103857.788 5  -2894038.067 2
  20849283.601   -27198572.248 9 -11663945.095 9
  21426623.317     2717475.060 8 -12701714.323 7
  22112778.732   -11103726.467 7  -8247046.797 6
  20624896.501    -6502705.016 8  -8363030.831 9
 94  2  1 20  5 30.0000000  0  5 19 29 22 18 14
  23335805.838    -1176602.380 5  -2950722.082 2
  20846043.774   -27215584.299 8 -11677201.249 9
  21432320.783     2747439.544 8 -12678365.378 7
  22100847.172   -11166446.091 7  -8295919.189 6
  20635011.199    -6449546.332 8  -8321608.508 9
 94  2  1 20  6  0.0000000  0  5 19 29 22 18 14
  23322017.243    -1249132.815 6  -3007239.187 2
  20842845.918   -27232378.190 9 -11690287.405 9
  21438133.909     2777990.882 8 -12654559.144 7
  22088930.422   -11229052.982 7  -8344703.732 6
  20645223.000    -6395861.802 8  -8279776.450 9
 94  2  1 20  6 30.0000000  0  5 19 29 22 18 14
  23308252.782    -1321441.431 6  -3063583.461 2
  20839695.249   -27248948.002 9 -11703198.936 9
  21444058.947     2809132.271 7 -12630293.115 7
  22077038.224   -11291542.749 7  -8393396.998 6
  20655541.886    -6341647.870 8  -8237531.850 9
 94  2  1 20  7  0.0000000  0  5 19 29 22 18 14
  23294530.022    -1393522.432 5  -3119750.393 3
  20836587.870   -27265288.483 9 -11715931.783 9
  21450094.638     2840847.530 8 -12605579.945 7
  22065167.283   -11353930.157 8  -8442010.500 6
  20665961.712    -6286887.996 8  -8194861.852 9
 94  2  1 20  7 30.0000000  0  5 19 29 22 18 14
  23280867.011    -1465363.113 6  -3175730.001 3
  20833520.094   -27281402.652 9 -11728488.275 9
  21456238.075     2873127.928 8 -12580426.370 7
  22053314.118   -11416221.650 8  -8490549.278 6
  20676490.184    -6231587.501 8  -8151770.573 9
 94  2  1 20  8  0.0000000  0  5 19 29 22 18 14
  23267234.399    -1536962.149 5  -3231521.376 3
  20830495.488   -27297293.216 9 -11740870.527 9
  21462488.988     2905982.393 8 -12554825.468 7
  22041478.252   -11478410.058 8  -8539007.738 6
  20687113.479    -6175748.752 8  -8108259.899 9
 94  2  1 20  8 30.0000000  0  5 19 29 22 18 14
  23253647.805    -1608320.986 5  -3287125.583 3
  20827515.731   -27312961.243 9 -11753079.390 9
  21468851.873     2939420.171 7 -12528770.095 7
  22029670.087   -11540487.974 8  -8587380.118 6
  20697841.582    -6119364.576 8  -8064324.218 9
 94  2  1 20  9  0.0000000  0  5 19 29 22 18 14
  23240130.313    -1679436.727 6  -3342540.295 3
  20824572.728   -27328428.459 9 -11765131.758 9
  21475328.619     2973440.428 8 -12502260.798 7
  22017871.185   -11602449.970 7  -8635662.151 6
  20708672.484    -6062439.990 8  -8019967.424 9
 94  2  1 20  9 30.0000000  0  5 19 29 22 18 14
  23226636.654    -1750328.535 5  -3397780.567 3
  20821667.859   -27343697.504 9 -11777029.710 9
  21481914.100     3008056.476 8 -12475287.256 7
  22006107.239   -11664278.894 8  -8683840.532 6
  20719602.048    -6004989.749 8  -7975201.023 9
 94  2  1 20 10  0.0000000  0  5 19 29 22 18 14
  23213187.095    -1821010.964 5  -3452857.709 3
  20818798.336   -27358760.542 9 -11788767.142 9
  21488612.393     3043264.019 8 -12447852.835 7
  21994374.411   -11725973.056 8  -8731913.872 6
  20730640.256    -5947004.555 8  -7930017.798 9
 94  2  1 20 10 30.0000000  0  5 19 29 22 18 14
  23199776.149    -1891485.092 6  -3507772.537 3
  20815971.563   -27373614.578 9 -11800341.687 9
  21495427.335     3079065.984 8 -12419955.234 7
  21982654.835   -11787536.647 8  -8779885.483 6
  20741778.985    -5888477.578 8  -7884412.371 9
 94  2  1 20 11  0.0000000  0  5 19 29 22 18 14
  23186406.185    -1961749.535 6  -3562524.001 3
  20813196.324   -27388230.347 9 -11811730.595 9
  21502353.710     3115473.458 7 -12391585.784 7
  21970964.548   -11848969.217 8  -8827754.990 6
  20753020.153    -5829391.483 8  -7838371.304 9
 94  2  1 20 11 30.0000000  0  5 19 29 22 18 14
  23173062.962    -2031818.014 6  -3617122.747 4
  20810457.060   -27402596.667 9 -11822925.118 9
  21509392.747     3152481.848 7 -12362748.078 7
  21959294.827   -11910285.284 8  -8875533.711 6
  20764368.677    -5769753.518 8  -7791900.188 9
 94  2  1 20 12  0.0000000  0  5 19 29 22 18 14
  23159772.323    -2101670.993 5  -3671553.614 4
  20807768.192   -27416725.595 9 -11833934.652 9
  21516549.393     3190081.692 7 -12333449.522 7
  21947649.628   -11971483.206 8  -8923220.355 6
  20775820.839    -5709571.206 8  -7745004.905 9
 94  2  1 20 12 30.0000000  0  5 19 29 22 18 14
  23146521.077    -2171305.791 6  -3725814.427 4
  20805121.954   -27430628.363 8 -11844767.956 9
  21523812.764     3228251.859 7 -12303706.541 7
  21936026.015   -12032568.711 8  -8970819.401 6
  20787373.371    -5648870.992 8  -7697706.057 9
 94  2  1 20 13  0.0000000  0  5 19 29 22 18 14
  23133315.639    -2240724.932 6  -3779907.183 4
  20802512.830   -27444314.283 9 -11855432.295 9
  21531186.490     3266987.638 7 -12273522.859 7
  21924424.797   -12093535.043 7  -9018325.583 6
  20799025.284    -5587666.902 8  -7650014.598 9
 94  2  1 20 13 30.0000000  0  5 19 29 22 18 14
  23120147.285    -2309909.917 5  -3833817.501 3
  20799953.412   -27457802.637 9 -11865942.700 9
  21538661.845     3306276.985 8 -12242907.797 7
  21912847.411   -12154368.146 7  -9065727.950 6
  20810755.983    -5525984.503 8  -7601950.406 9
 94  2  1 20 14  0.0000000  0  5 19 29 22 18 14
  23107036.462    -2378844.833 5  -3887532.911 3
  20797427.421   -27471078.699 9 -11876287.672 9
  21546248.842     3346121.385 8 -12211860.219 7
  21901300.006   -12215064.679 7  -9113023.894 6
  20822588.942    -5463814.151 8  -7553506.017 9
 94  2  1 20 14 30.0000000  0  5 19 29 22 18 14
  23093959.455    -2447536.767 6  -3941059.051 3
  20794940.192   -27484124.904 9 -11886453.546 9
  21553932.733     3386531.186 7 -12180372.076 7
  21889774.784   -12275627.584 7  -9160215.673 6
  20834519.452    -5401142.729 8  -7504671.168 9
 94  2  1 20 15  0.0000000  0  5 19 29 22 18 14
  23080940.457    -2515973.070 6  -3994385.986 3
  20792505.398   -27496924.521 9 -11896427.253 9
  21561737.680     3427533.990 8 -12148421.858 7
  21878277.594   -12336042.251 7  -9207292.034 6
  20846541.460    -5337949.789 8  -7455429.938 9
 94  2  1 20 15 30.0000000  0  5 19 29 22 18 14
  23067955.757    -2584152.727 5  -4047512.936 3
  20790122.168   -27509459.495 8 -11906194.762 9
  21569649.592     3469115.675 8 -12116020.563 7
  21866809.363   -12396308.515 7  -9254252.714 6
  20858664.887    -5274224.547 8  -7405773.935 9
 94  2  1 20 16  0.0000000  0  5 19 29 22 18 14
  23055030.235    -2652087.882 5  -4100449.351 3
  20787788.823   -27521722.214 9 -11915750.120 9
  21577674.617     3511284.905 7 -12083161.441 7
  21855366.914   -12456420.327 8  -9301093.033 6
  20870898.008    -5209938.399 8  -7355680.877 9
 94  2  1 20 16 30.0000000  0  5 19 29 22 18 14
  23042157.566    -2719774.539 6  -4153192.126 4
  20785508.872   -27533718.069 9 -11925097.533 9
  21585813.023     3554056.777 7 -12049832.727 7
  21843965.327   -12516349.334 8  -9347790.893 6
  20883240.463    -5145091.855 8  -7305151.115 9
 94  2  1 20 17  0.0000000  0  5 19 29 22 18 14
  23029324.650    -2787221.676 6  -4205748.282 4
  20783269.722   -27545464.815 9 -11934250.841 9
  21594068.767     3597408.857 8 -12016051.882 7
  21832594.649   -12576102.375 7  -9394351.654 6
  20895681.880    -5079712.852 8  -7254206.477 9
 94  2  1 20 17 30.0000000  0  5 19 29 22 18 14
  23016526.091    -2854456.516 6  -4258138.997 4
  20781075.541   -27556983.782 9 -11943226.664 9
  21602417.597     3641315.691 7 -11981838.791 7
  21821253.141   -12635703.609 8  -9440794.136 6
  20908218.032    -5013833.188 8  -7202871.694 9
 94  2  1 20 18  0.0000000  0  5 19 29 22 18 14
  23003777.476    -2921488.452 6  -4310371.609 4
  20778926.688   -27568298.119 9 -11952043.039 9
  21610878.310     3685767.924 7 -11947200.703 7
  21809941.102   -12695162.553 8  -9487125.753 7
  20920843.791    -4947487.922 8  -7151174.154 9
 94  2  1 20 18 30.0000000  0  5 19 29 22 18 14
  22991060.010    -2988276.972 6  -4362414.571 3
  20776817.768   -27579367.135 8 -11960668.259 9
  21619451.085     3730798.875 8 -11912111.661 7
  21798654.216   -12754458.334 8  -9533330.208 7
  20933558.229    -4880661.794 8  -7099101.866 9
 94  2  1 20 19  0.0000000  0  5 19 29 22 18 14
  22978392.820    -3054829.699 6  -4414273.797 3
  20774757.924   -27590187.760 9 -11969099.903 9
  21628123.692     3776399.047 8 -11876579.063 7
  21787394.850   -12813609.561 8  -9579422.047 7
  20946373.038    -4813344.620 8  -7046646.955 9
 94  2  1 20 19 30.0000000  0  5 19 29 22 18 14
  22965775.125    -3121153.420 6  -4465954.575 3
  20772747.816   -27600759.256 9 -11977337.454 9
  21636911.718     3822562.615 7 -11840607.475 7
  21776168.882   -12872630.252 8  -9625412.169 7
  20959275.326    -4745523.264 8  -6993799.190 9
 94  2  1 20 20  0.0000000  0  5 19 29 22 18 14
  22953205.726    -3187238.704 6  -4517449.553 3
  20770786.903   -27611080.207 8 -11985379.764 9
  21645801.493     3869291.559 7 -11804195.323 7
  21764961.711   -12931506.425 8  -9671289.656 7
  20972278.284    -4677183.962 8  -6940547.828 9
 94  2  1 20 20 30.0000000  0  5 19 29 22 18 14
  22940674.372    -3253084.266 6  -4568757.713 3
  20768869.011   -27621149.250 9 -11993225.759 9
  21654801.053     3916597.678 7 -11767333.427 7
  21753787.336   -12990232.511 8  -9717050.254 7
  20985385.180    -4608307.866 8  -6886878.176 9
 94  2  1 20 21  0.0000000  0  5 19 29 22 18 14
  22928181.180    -3318691.867 6  -4619880.444 3
  20767002.024   -27630969.642 8 -12000878.027 9
  21663912.525     3964466.294 7 -11730033.228 7
  21742639.674   -13048810.434 7  -9762695.362 7
  20998597.034    -4538894.769 8  -6832790.088 9
 94  2  1 20 21 30.0000000  0  5 19 29 22 18 14
  22915743.391    -3384060.762 6  -4670817.154 3
  20765174.879   -27640557.143 9 -12008348.806 9
  21673131.203     4012889.632 7 -11692300.756 7
  21731526.038   -13107236.378 8  -9808222.032 7
  21011903.232    -4468966.923 8  -6778300.880 9
 94  2  1 20 22  0.0000000  0  5 19 29 22 18 14
  22903355.097    -3449188.082 6  -4721565.610 3
  20763392.672   -27649915.000 8 -12015640.649 9
  21682448.094     4061862.013 8 -11654140.482 7
  21720432.248   -13165499.043 8  -9853621.497 7
  21025302.306    -4398552.162 8  -6723432.299 9
 94  2  1 20 22 30.0000000  0  5 19 29 22 18 14
  22891006.106    -3514069.940 6  -4772122.790 3
  20761657.743   -27659028.735 8 -12022742.262 9
  21691871.230     4111368.964 8 -11615563.654 7
  21709377.221   -13223611.300 8  -9898903.753 7
  21038794.526    -4327658.798 8  -6668190.757 9
 94  2  1 20 23  0.0000000  0  5 19 29 22 18 14
  22878700.525    -3578711.789 6  -4822492.957 4
  20759976.987   -27667880.775 8 -12029639.957 9
  21701385.354     4161395.680 7 -11576581.778 7
  21698343.509   -13281588.992 8  -9944081.158 7
  21052369.398    -4256308.134 7  -6612592.859 9
 94  2  1 20 23 30.0000000  0  5 19 29 22 18 14
  22866455.712    -3643107.218 6  -4872671.118 4
  20758342.548   -27676459.187 9 -12036324.442 9
  21711006.563     4211957.707 8 -11537182.803 7
  21687341.516   -13339418.067 7  -9989142.735 7
  21066034.987    -4184502.658 8  -6556640.593 9
 94  2  1 20 24  0.0000000  0  5 19 29 22 18 14
  22854245.225    -3707250.306 6  -4922652.646 4
  20756766.210   -27684738.831 8 -12042776.108 9
  21720727.813     4263055.491 7 -11497366.331 7
  21676362.876   -13397102.046 8 -10034091.274 7
  21079785.538    -4112234.240 8  -6500327.565 9
 94  2  1 20 24 30.0000000  0  5 19 29 22 18 14
  22842088.431    -3771146.246 6  -4972441.590 4
  20755245.932   -27692726.578 8 -12049000.325 9
  21730558.667     4314698.736 7 -11457124.855 7
  21665408.999   -13454651.166 8 -10078934.707 7
  21093633.132    -4039478.041 8  -6443634.469 8
 94  2  1 20 25  0.0000000  0  5 19 29 22 18 14
  22829970.700    -3834810.433 6  -5022049.943 4
  20753776.020   -27700454.049 8 -12055021.739 9
  21740497.027     4366910.328 7 -11416440.516 7
  21654487.290   -13512053.771 7 -10123663.981 7
  21107569.704    -3966236.366 8  -6386563.060 8
 94  2  1 20 25 30.0000000  0  5 19 29 22 18 14
  22817903.514    -3898241.721 6  -5071476.809 4
  20752351.586   -27707937.432 9 -12060852.935 9
  21750542.203     4419694.360 8 -11375310.081 7
  21643593.132   -13569294.328 7 -10168266.966 7
  21121600.081    -3892500.382 8  -6329106.507 8
 94  2  1 20 26  0.0000000  0  5 19 29 22 18 14
  22805871.614    -3961465.875 6  -5120742.270 4
  20750970.412   -27715195.891 8 -12066508.887 9
  21760684.602     4473025.033 7 -11333753.688 7
  21632730.812   -13626383.286 8 -10212751.834 7
  21135722.943    -3818287.136 8  -6271278.034 8
 94  2  1 20 26 30.0000000  0  5 19 29 22 18 14
  22793876.138    -4024496.522 6  -5169856.978 4
  20749629.980   -27722247.745 8 -12072003.838 9
  21770939.392     4526891.802 7 -11291779.632 7
  21621897.182   -13683322.158 8 -10257119.764 7
  21149929.568    -3743620.362 8  -6213096.185 8
 94  2  1 20 27  0.0000000  0  5 19 29 22 18 14
  22781927.550    -4087312.985 6  -5218804.794 4
  20748337.275   -27729045.576 8 -12077300.849 9
  21781291.466     4581303.474 7 -11249380.939 7
  21611098.268   -13740078.819 8 -10301345.703 7
  21164232.936    -3668498.404 8  -6154559.627 8
 94  2  1 20 27 30.0000000  0  5 19 29 22 18 14
  22770015.416    -4149896.177 6  -5267570.882 4
  20747099.672   -27735554.732 8 -12082372.905 9
  21791751.105     4636237.923 7 -11206574.890 7
  21600333.560   -13796653.298 8 -10345429.673 7
  21178607.715    -3592920.828 8  -6095668.049 8
 94  2  1 20 28  0.0000000  0  5 19 29 22 18 14
  22758148.821    -4212231.751 6  -5316143.990 4
  20745912.464   -27741784.086 9 -12087226.929 9
  21802297.923     4691690.139 7 -11163365.389 7
  21589602.849   -13853037.304 8 -10389365.240 7
  21193080.226    -3516886.714 8  -6036420.735 8
 94  2  1 20 28 30.0000000  0  5 19 29 22 18 14
  22746332.771    -4274308.435 6  -5364515.404 4
  20744779.068   -27747733.723 9 -12091863.003 9
  21812954.646     4747671.384 7 -11119743.659 7
  21578909.312   -13909226.247 8 -10433148.800 7
  21207637.968    -3440382.015 8  -5976806.719 8
 94  2  1 20 29  0.0000000  0  5 19 29 22 18 14
  22734568.975    -4336135.603 6  -5412692.362 4
  20743696.997   -27753416.573 8 -12096291.184 9
  21823707.272     4804169.127 7 -11075719.447 7
  21568249.022   -13965226.380 8 -10476785.234 7
  21222286.127    -3363404.741 8  -5916824.482 8
 94  2  1 20 29 30.0000000  0  5 19 29 22 18 14
  22722855.185    -4397722.370 6  -5460682.041 4
  20742662.054   -27758867.876 9 -12100538.961 9
  21834545.459     4861167.481 7 -11031305.218 7
  21557628.005   -14021055.970 8 -10520288.772 7
  21237022.395    -3285968.780 8  -5856484.820 8
 94  2  1 20 30  0.0000000  0  5 19 29 22 18 14
  22711174.341    -4459083.353 6  -5508495.787 4
  20741666.563   -27764089.237 8 -12104607.552 9
  21845494.659     4918674.610 7 -10986494.480 7
  21547038.046   -14076721.498 8 -10563664.468 7
  21251844.464    -3208072.760 8  -5795786.683 8
 94  2  1 20 30 30.0000000  0  5 19 29 22 18 14
  22699542.544    -4520227.139 6  -5556140.283 4
  20740720.598   -27769047.451 8 -12108471.073 9
  21856530.978     4976694.704 7 -10941284.038 7
  21536472.370   -14132235.217 8 -10606921.866 7
  21266752.843    -3129722.553 8  -5734734.637 8
 94  2  1 20 31  0.0000000  0  5 19 29 22 18 14
  22687953.736    -4581139.158 6  -5603604.174 4
  20739832.043   -27773723.698 8 -12112114.914 9
  21867676.812     5035241.903 7 -10895662.877 7
  21525940.721   -14187585.198 8 -10650051.706 7
  21281747.653    -3050915.684 8  -5673326.747 8
 94  2  1 20 31 30.0000000  0  5 19 29 22 18 14
  22676407.860    -4641814.446 7  -5650883.596 4
  20738998.950   -27778107.103 8 -12115530.538 9
  21878916.241     5094326.404 7 -10849623.012 7
  21515439.861   -14242762.066 9 -10693046.649 7
  21296835.428    -2971648.832 8  -5611560.421 8
 94  2  1 20 32  0.0000000  0  5 19 29 22 18 14
  22664904.343    -4702257.195 6  -5697981.834 4
  20738221.708   -27782197.936 8 -12118718.193 9
  21890265.604     5153943.807 7 -10803167.911 7
  21504974.346   -14297756.157 9 -10735899.137 7
  21312007.744    -2891927.249 8  -5549439.769 8
 94  2  1 20 32 30.0000000  0  5 19 29 22 18 14
  22653441.479    -4762467.888 6  -5744899.270 4
  20737492.013   -27786009.918 8 -12121688.557 9
  21901710.361     5214085.025 7 -10756304.672 7
  21494550.892   -14352557.429 9 -10778601.397 7
  21327259.895    -2811756.696 8  -5486969.265 8
 94  2  1 20 33  0.0000000  0  5 19 29 22 18 14
  22642027.750    -4822457.176 6  -5791644.128 4
  20736816.401   -27789560.214 8 -12124455.005 9
  21913249.583     5274731.068 7 -10709048.011 7
  21484151.421   -14407171.485 8 -10821157.774 7
  21342601.864    -2731139.396 8  -5424150.654 8
 94  2  1 20 33 30.0000000  0  5 19 29 22 18 14
  22630652.695    -4882227.654 6  -5838218.515 4
  20736199.548   -27792837.744 9 -12127008.921 9
  21924881.770     5335863.084 7 -10661412.696 7
  21473795.840   -14461599.341 8 -10863569.068 7
  21358024.178    -2650085.758 7  -5360992.027 8
 94  2  1 20 34  0.0000000  0  5 19 29 22 18 14
  22619329.324    -4941754.810 6  -5884603.252 4
  20735629.402   -27795816.463 9 -12129329.989 9
  21936612.769     5397491.599 7 -10613390.449 6
  21463475.305   -14515830.600 8 -10905827.162 7
  21373534.210    -2568576.521 7  -5297478.390 8
 94  2  1 20 34 30.0000000  0  5 19 29 22 18 14
  22608042.078    -5001041.595 6  -5930800.712 4
  20735119.186   -27798495.233 9 -12131417.358 9
  21948432.326     5459624.038 7 -10564975.558 6
  21453192.994   -14569878.185 8 -10947942.124 7
  21389133.041    -2486609.174 8  -5233607.802 8
 94  2  1 20 35  0.0000000  0  5 19 29 22 18 14
  22596814.521    -5060079.884 6  -5976804.553 4
  20734667.069   -27800880.760 9 -12133276.193 9
  21960349.586     5522264.517 7 -10516164.818 6
  21442938.473   -14623746.737 9 -10989917.620 7
  21404817.014    -2404186.636 8  -5169382.504 8
 94  2  1 20 35 30.0000000  0  5 19 29 22 18 14
  22585622.069    -5118883.112 7  -6022625.191 4
  20734263.128   -27803007.633 8 -12134933.492 9
  21972364.728     5585399.122 7 -10466969.058 6
  21432723.075   -14677438.604 8 -11031755.443 7
  21420586.247    -2321324.304 7  -5104814.510 8
 94  2  1 20 36  0.0000000  0  5 19 29 22 18 14
  22574471.828    -5177452.260 7  -6068263.446 4
  20733899.810   -27804904.519 8 -12136411.588 9
  21984480.811     5649040.436 7 -10417378.393 6
  21422541.283   -14730952.353 8 -11073454.449 7
  21436437.593    -2238014.839 7  -5039898.105 8
 94  2  1 20 36 30.0000000  0  5 19 29 22 18 14
  22563370.154    -5235789.836 6  -6113721.247 4
  20733581.580   -27806572.032 8 -12137710.941 9
  21996685.841     5713190.304 7 -10367391.468 6
  21412390.491   -14784284.517 8 -11115011.965 7
  21452373.271    -2154277.428 8  -4974648.244 8
 94  2  1 20 37  0.0000000  0  5 19 29 22 18 14
  22552313.568    -5293891.674 6  -6158995.349 5
  20733310.838   -27807997.841 8 -12138821.962 9
  22008984.917     5777819.633 7 -10317030.932 6
  21402272.405   -14837433.127 8 -11156426.433 7
  21468386.925    -2070132.221 7  -4909080.588 8
 94  2  1 20 37 30.0000000  0  5 19 29 22 18 14
  22541305.699    -5351745.015 6  -6204075.861 4
  20733093.368   -27809150.668 8 -12139720.270 9
  22021372.581     5842923.840 7 -10266300.411 6
  21392199.169   -14890391.639 8 -11197692.810 7
  21484478.285    -1985580.677 8  -4843196.332 8
 94  2  1 20 38  0.0000000  0  5 19 29 22 18 14
  22530347.685    -5409342.853 6  -6248957.238 4
  20732932.080   -27809993.119 8 -12140376.729 9
  22033855.579     5908508.753 7 -10215195.286 6
  21382155.342   -14943168.648 8 -11238817.735 7
  21500644.923    -1900630.902 7  -4777001.768 8
 94  2  1 20 38 30.0000000  0  5 19 29 22 18 14
  22519435.000    -5466680.563 7  -6293635.917 5
  20732833.808   -27810497.576 8 -12140769.803 9
  22046424.198     5974564.473 7 -10163723.294 6
  21372151.717   -14995747.655 8 -11279788.330 8
  21516883.122    -1815282.536 7  -4710496.608 8
 94  2  1 20 39  0.0000000  0  5 19 29 22 18 14
  22508575.647    -5523751.884 7  -6338107.021 5
  20732807.456   -27810666.055 8 -12140901.067 9
  22059083.984     6041091.093 7 -10111884.369 6
  21362185.417   -15048116.578 8 -11320595.260 8
  21533205.112    -1729523.644 8  -4643671.568 8
 94  2  1 20 39 30.0000000  0  5 19 29 22 18 14
  22497754.908    -5580584.699 6  -6382392.278 5
  20732830.660   -27810525.668 8 -12140791.680 9
  22071835.626     6108109.993 7 -10059661.879 6
  21352260.158   -15100268.749 8 -11361233.299 8
  21549601.661    -1643349.016 8  -4576522.587 8
 94  2  1 20 40  0.0000000  0  5 19 29 22 18 14
  22486993.648    -5637187.626 7  -6426498.403 5
  20732916.371   -27810080.418 8 -12140444.718 9
  22084684.161     6175635.856 7 -10007044.333 6
  21342378.429   -15152192.045 8 -11401692.980 8
  21566079.964    -1556751.741 7  -4509044.230 7
 94  2  1 20 40 30.0000000  0  5 19 29 22 18 14
  22476262.427    -5693561.603 6  -6470426.077 5
  20733053.316   -27809349.663 8 -12139875.310 9
  22097628.870     6243653.507 7  -9954043.590 6
  21332541.849   -15203884.078 8 -11441972.431 8
  21582640.979    -1469728.332 7  -4441233.819 7
 94  2  1 20 41  0.0000000  0  5 19 29 22 18 14
  22465572.188    -5749711.109 6  -6514178.880 5
  20733248.061   -27808337.429 8 -12139086.543 9
  22110669.962     6312168.961 7  -9900654.926 6
  21322748.199   -15255357.209 8 -11482081.336 8
  21599280.989    -1382276.704 7  -4373089.759 7
 94  2  1 20 41 30.0000000  0  5 19 29 22 18 14
  22454936.481    -5805651.441 6  -6557768.703 5
  20733493.261   -27807038.240 8 -12138074.194 9
  22123795.475     6381167.651 7  -9846889.729 6
  21312990.284   -15306622.838 8 -11522028.529 8
  21616007.310    -1294389.953 8  -4304606.627 7
 94  2  1 20 42  0.0000000  0  5 19 29 22 18 14
  22444334.620    -5861349.935 7  -6601170.054 5
  20733797.251   -27805422.503 8 -12136815.157 9
  22137015.093     6450627.975 7  -9792764.798 6
  21303278.507   -15357687.604 8 -11561819.224 8
  21632815.683    -1206068.140 8  -4235784.504 7
 94  2  1 20 42 30.0000000  0  5 19 29 22 18 14
  22433780.847    -5916802.943 7  -6644380.132 5
  20734171.931   -27803492.080 8 -12135310.922 9
  22150316.945     6520538.092 7  -9738289.399 6
  21293597.549   -15408549.439 8 -11601451.819 8
  21649703.892    -1117315.972 8  -4166627.041 7
 94  2  1 20 43  0.0000000  0  5 19 29 22 18 14
  22423272.042    -5972017.400 7  -6687404.312 5
  20734599.495   -27801240.922 8 -12133556.771 9
  22163708.284     6590918.602 7  -9683447.448 6
  21283959.402   -15459194.777 8 -11640915.678 8
  21666668.038    -1028137.339 7  -4097137.228 7
 94  2  1 20 43 30.0000000  0  5 19 29 22 18 14
  22412815.071    -6026972.446 7  -6730226.365 5
  20735087.797   -27798656.142 8 -12131542.659 9
  22177192.799     6661765.709 7  -9628241.952 6
  21274365.983   -15509608.183 8 -11680198.846 8
  21683723.051     -938542.610 8  -4027323.204 7
 94  2  1 20 44  0.0000000  0  5 19 29 22 18 14
  22402407.596    -6081654.323 6  -6772835.586 5
  20735640.645   -27795752.505 8 -12129280.075 9
  22190763.264     6733082.535 7  -9572670.440 6
  21264816.124   -15559792.155 8 -11719303.207 8
  21700847.016     -848558.111 8  -3957205.501 7
 94  2  1 20 44 30.0000000  0  5 19 29 22 18 14
  22392053.184    -6136071.542 6  -6815238.552 5
  20736252.941   -27792534.160 8 -12126772.247 9
  22204427.265     6804893.671 7  -9516713.707 6
  21255313.932   -15609735.565 8 -11758220.121 9
  21718047.489     -758171.348 7  -3886774.318 7
 94  2  1 20 45  0.0000000  0  5 19 29 22 18 14
  22381751.326    -6190226.765 7  -6857437.422 5
  20736925.405   -27789008.968 8 -12124025.343 9
  22218183.002     6877191.610 7  -9460377.658 6
  21245852.872   -15659452.740 9 -11796960.733 9
  21735321.500     -667390.159 7  -3816035.806 7
 94  2  1 20 45 30.0000000  0  5 19 29 22 18 14
  22371497.225    -6244106.848 7  -6899421.832 5
  20737656.659   -27785180.932 8 -12121042.444 9
  22232032.214     6949958.892 7  -9403675.887 6
  21236432.793   -15708949.764 8 -11835529.814 9
  21752671.479     -576228.132 7  -3745000.507 7
 94  2  1 20 46  0.0000000  0  5 19 29 22 18 14
  22361292.949    -6297737.509 7  -6941211.955 5
  20738436.659   -27781063.973 8 -12117834.425 9
  22245973.643     7023197.812 7  -9346606.616 6
  21227057.024   -15758223.399 8 -11873924.819 9
  21770089.691     -484681.017 7  -3673665.157 7
 94  2  1 20 46 30.0000000  0  5 19 29 22 18 14
  22351132.233    -6351124.496 7  -6982812.165 5
  20739278.506   -27776651.153 8 -12114395.855 9
  22259999.823     7096900.558 7  -9289175.890 6
  21217725.324   -15807257.245 9 -11912132.981 9
  21787584.619     -392749.851 7  -3602030.559 7
 94  2  1 20 47  0.0000000  0  5 19 29 22 18 14
  22341019.754    -6404257.389 7  -7024214.397 6
  20740174.046   -27771927.688 8 -12110715.222 9
  22274107.276     7171065.156 7  -9231385.286 6
  21208442.401   -15856034.822 8 -11950141.463 9
  21805150.568     -300443.246 7  -3530103.415 7
 94  2  1 20 47 30.0000000  0  5 19 29 22 18 14
  22330951.254    -6457152.480 7  -7065431.284 6
  20741129.695   -27766904.761 8 -12106801.263 9
  22288311.743     7245682.792 7  -9173241.719 6
  21199211.941   -15904559.691 8 -11987953.013 9
  21822788.018     -207770.482 7  -3457890.953 7
 94  2  1 20 48  0.0000000  0  5 19 29 22 18 14
  22320931.531    -6509808.151 7  -7106461.654 6
  20742148.869   -27761561.113 8 -12102637.367 9
  22302590.168     7320762.956 7  -9114737.704 6
  21190023.362   -15952824.678 8 -12025562.093 9
  21840493.071     -114701.588 7  -3385369.812 7
 94  2  1 20 48 30.0000000  0  5 19 29 22 18 14
  22310957.106    -6562227.711 7  -7147308.032 6
  20743225.034   -27755895.218 8 -12098222.380 9
  22316965.216     7396294.246 7  -9055882.141 6
  21180886.407   -16000854.946 8 -12062988.228 9
  21858276.070      -21252.815 7  -3312552.652 7
 94  2  1 20 49  0.0000000  0  5 19 29 22 18 14
  22301030.468    -6614416.488 7  -7187974.562 6
  20744370.511   -27749907.052 8 -12093556.273 9
  22331423.127     7472280.769 7  -8996671.860 6
  21171786.058   -16048667.747 9 -12100244.929 9
  21876132.938       72589.579 7  -3239428.774 7
 94  2  1 20 49 30.0000000  0  5 19 29 22 18 14
  22291133.539    -6666394.246 7  -7228476.649 6
  20745563.116   -27743613.905 8 -12088652.524 9
  22345966.869     7548684.999 7  -8937136.122 6
  21162726.180   -16096287.385 9 -12137351.127 9
  21894067.872      166816.289 7  -3166005.449 7
 94  2  1 20 50  0.0000000  0  5 19 29 22 18 14
  22281293.062    -6718155.198 7  -7268809.821 6
  20746822.993   -27736996.073 8 -12083495.761 9
  22360585.589     7625506.445 7  -8877275.265 6
  21153701.647   -16143705.429 8 -12174300.238 9
  21912074.546      261432.872 7  -3092278.303 7
 94  2  1 20 50 30.0000000  0  5 19 29 22 18 14
  22271480.405    -6769689.246 7  -7308966.190 6
  20748141.570   -27730050.455 8 -12078083.573 9
  22375283.334     7702752.969 6  -8817083.163 6
  21144720.075   -16190904.967 8 -12211079.055 9
  21930146.006      356425.461 7  -3018258.180 7
 94  2  1 20 51  0.0000000  0  5 19 29 22 18 14
  22261718.353    -6820980.474 7  -7348933.319 6
  20749527.091   -27722780.936 8 -12072419.020 9
  22390063.731     7780407.225 7  -8756573.389 6
  21135778.495   -16237875.157 8 -12247679.166 9
  21948296.251      451790.125 7  -2943948.120 7
 94  2  1 20 51 30.0000000  0  5 19 29 22 18 14
  22252008.735    -6872010.679 7  -7388697.079 6
  20750974.309   -27715163.799 8 -12066483.575 9
  22404920.726     7858485.355 7  -8695733.301 6
  21126889.918   -16284586.410 8 -12284077.530 9
  21966513.799      547517.988 7  -2869355.056 7
 94  2  1 20 52  0.0000000  0  5 19 29 22 18 14
  22242346.274    -6922795.452 7  -7428269.588 6
  20752489.011   -27707219.343 8 -12060293.083 9
  22419852.969     7936983.031 7  -8634566.296 6
  21118050.568   -16331046.731 8 -12320280.347 9
  21984789.807      643581.188 7  -2794500.673 7
 94  2  1 20 52 30.0000000  0  5 19 29 22 18 14
  22232731.270    -6973317.257 7  -7467637.192 6
  20754062.142   -27698942.519 8 -12053843.614 9
  22434879.526     8015894.026 7  -8573077.230 6
  21109256.036   -16377251.773 8 -12356284.237 9
  22003133.238      739972.021 7  -2719391.011 7
 94  2  1 20 53  0.0000000  0  5 19 29 22 18 14
  22223163.274    -7023584.828 7  -7506806.676 6
  20755702.786   -27690333.077 8 -12047134.953 9
  22449967.391     8095201.513 7  -8511279.201 6
  21100511.240   -16423216.109 9 -12392100.561 9
  22021539.985      836697.359 7  -2644020.703 7
 94  2  1 20 53 30.0000000  0  5 19 29 22 18 14
  22213641.746    -7073632.982 7  -7545805.207 6
  20757401.980   -27681403.166 8 -12040176.580 9
  22465130.444     8174903.743 6  -8449173.570 6
  21091808.595   -16468944.179 8 -12427732.788 9
  22040007.740      933740.213 7  -2568402.942 6
 94  2  1 20 54  0.0000000  0  5 19 29 22 18 14
  22204161.079    -7123449.617 7  -7584623.321 6
  20759165.149   -27672152.683 8 -12032968.412 9
  22480375.340     8254999.039 6  -8386761.645 6
  21083152.357   -16514434.971 8 -12463180.109 9
  22058535.304     1031114.595 7  -2492526.883 6
 94  2  1 20 54 30.0000000  0  5 19 29 22 18 14
  22194725.052    -7173032.971 7  -7623259.644 6
  20760984.410   -27662584.501 8 -12025512.674 9
  22495694.105     8335492.981 7  -8324039.100 6
  21074539.320   -16559693.690 8 -12498446.597 9
  22077130.621     1128821.438 7  -2416391.734 6
 94  2  1 20 55  0.0000000  0  5 19 29 22 18 14
  22185329.286    -7222407.468 7  -7661733.224 6
  20762860.061   -27652709.764 8 -12017818.066 9
  22511091.865     8416415.416 7  -8260982.610 6
  21065973.680   -16604706.226 8 -12533521.270 9
  22095783.198     1226863.163 7  -2339995.665 6
 94  2  1 20 55 30.0000000  0  5 19 29 22 18 14
  22175976.241    -7271563.080 7  -7700036.271 6
  20764800.318   -27642524.676 8 -12009881.648 9
  22526575.996     8497781.194 7  -8197580.702 6
  21057459.304   -16649447.808 8 -12568384.795 9
  22114506.855     1325234.404 7  -2263342.824 6
 94  2  1 20 56  0.0000000  0  5 19 29 22 18 14
  22166664.238    -7320506.922 7  -7738174.275 6
  20766795.467   -27632043.646 8 -12001714.616 9
  22542133.576     8579565.737 7  -8133852.450 6
  21048995.114   -16693941.026 8 -12603054.787 9
  22133286.934     1423928.607 7  -2186438.315 6
 94  2  1 20 56 30.0000000  0  5 19 29 22 18 14
  22157387.700    -7369244.565 7  -7776151.587 6
  20768843.229   -27621256.646 8 -11993309.169 9
  22557779.954     8661771.034 6  -8069796.378 6
  21040576.912   -16738171.456 8 -12637520.043 9
  22152131.109     1522944.644 7  -2109283.054 6
 94  2  1 20 57  0.0000000  0  5 19 29 22 18 14
  22148154.931    -7417762.009 7  -7813957.338 6
  20770962.492   -27610150.343 8 -11984654.897 9
  22573500.081     8744381.803 7  -8005424.337 5
  21032214.201   -16782129.157 8 -12671772.767 9
  22171036.471     1622281.489 7  -2031877.789 6
 94  2  1 20 57 30.0000000  0  5 19 29 22 18 14
  22138967.312    -7466036.980 7  -7851574.145 6
  20773134.069   -27598721.676 8 -11975749.439 9
  22589294.617     8827364.279 7  -7940762.657 5
  21023897.569   -16825836.777 9 -12705830.611 9
  22189999.603     1721931.863 7  -1954228.219 6
 94  2  1 20 58  0.0000000  0  5 19 29 22 18 14
  22129828.499    -7514064.452 7  -7888998.075 6
  20775374.597   -27586967.943 8 -11966590.698 9
  22605155.796     8910717.048 7  -7875812.445 5
  21015622.967   -16869300.624 9 -12739698.543 9
  22209018.406     1821897.465 7  -1876333.039 6
 94  2  1 20 58 30.0000000  0  5 19 29 22 18 14
  22120736.753    -7561827.083 7  -7926215.645 6
  20777671.218   -27574882.949 8 -11957173.808 9
  22621091.174     8994450.112 7  -7810565.893 5
  21007404.337   -16912508.379 9 -12773366.886 9
  22228099.297     1922182.077 7  -1798189.252 6
 94  2  1 20 59  0.0000000  0  5 19 29 22 18 14
  22111697.920    -7609322.145 7  -7963224.699 6
  20780033.102   -27562474.635 8 -11947505.000 9
  22637087.830     9078560.561 6  -7745025.278 5
  20999225.339   -16955473.902 9 -12806846.488 9
  22247249.080     2022792.724 7  -1719791.397 6
 94  2  1 20 59 30.0000000  0  5 19 29 22 18 14
  22102710.532    -7656566.704 7  -8000038.574 6
  20782461.211   -27549747.262 8 -11937587.546 9
  22653173.704     9163051.763 7  -7679188.004 5
  20991093.318   -16998197.674 9 -12840137.723 9
  22266460.710     2123736.813 7  -1641133.771 6
 94  2  1 21  0  0.0000000  0  5 19 29 22 18 14
  22093767.483    -7703576.894 7  -8036669.834 6
  20784937.317   -27536696.442 8 -11927418.096 9
  22669320.796     9247922.500 7  -7613054.973 5
  20983011.963   -17040660.679 8 -12873225.764 9
  22285726.752     2225014.351 7  -1562216.301 6
 94  2  1 21  0 30.0000000  0  6 19 29 31 22 18 14
  22084867.964    -7750356.613 7  -8073121.471 6
  20787489.630   -27523309.225 8 -11916986.488 9
  24817393.416      850978.73113   -221093.519
  22685542.686     9333170.269 6  -7546628.147 5
  20974984.930   -17082857.806 9 -12906106.618 9
  22305064.685     2326622.981 7  -1483040.814 6
 94  2  1 21  1  0.0000000  0  6 19 29 31 22 18 14
  22076005.529    -7796920.419 7  -8109404.895 6
  20790096.835   -27509577.442 8 -11906286.411 9
  24802420.522      772472.125 3   -282269.395
  22701835.117     9418783.800 7  -7479916.303 5
  20967005.474   -17124793.785 8 -12938783.983 9
  22324458.259     2428545.391 7  -1403620.836 6
 94  2  1 21  1 30.0000000  0  6 19 29 31 22 18 14
  22067180.629    -7843285.196 7  -8145533.241 6
  20792783.216   -27495494.324 8 -11895312.540 9
  24787517.239      693964.623 4   -343443.577
  22718190.504     9504743.949 7  -7412934.395 5
  20959079.261   -17166461.670 9 -12971252.451 9
  22343913.471     2530762.646 7  -1323971.103 6
 94  2  1 21  2  0.0000000  0  6 19 29 31 22 18 14
  22058403.305    -7889428.107 7  -8181488.683 6
  20795528.445   -27481043.571 8 -11884052.200 9
  24772594.380      615461.985 4   -404614.892
  22734622.758     9591058.934 7  -7345675.974 5
  20951202.244   -17207846.153 9 -13003500.090 9
  22363418.747     2633270.665 7  -1244094.817 6
 94  2  1 21  2 30.0000000  0  6 19 29 31 22 18 14
  22049661.897    -7935340.951 7  -8217264.867 6
  20798345.925   -27466224.744 8 -11872505.041 9
  24757639.203      536956.187 5   -465788.343
  22751115.720     9677730.292 7  -7278139.848 5
  20943378.021   -17248953.817 9 -13035532.015 9
  22382981.195     2736066.812 7  -1163993.990 6
 94  2  1 21  3  0.0000000  0  6 19 29 31 22 18 14
  22040964.048    -7981019.662 7  -8252858.616 6
  20801243.119   -27451033.095 8 -11860667.385 9
  24742706.481      458435.191 4   -526973.565 1
  22767665.703     9764760.877 6  -7210323.792 5
  20935612.077   -17289771.626 9 -13067338.083 9
  22402597.185     2839160.743 7  -1083661.136 6
 94  2  1 21  3 30.0000000  0  6 19 29 31 22 18 14
  22032321.391    -8026466.997 7  -8288272.069 6
  20804195.775   -27435492.907 8 -11848558.139 9
  24727758.049      379865.666 4   -588196.617 1
  22784294.591     9852143.047 6  -7142233.810 5
  20927900.906   -17330297.980 9 -13098917.027 9
  22422267.587     2942538.931 7  -1003106.807 6
 94  2  1 21  4  0.0000000  0  5 19 29 22 18 14
  22023722.624    -8071672.180 7  -8323496.824 6
  20807218.702   -27419614.100 8 -11836185.009 9
  22800991.622     9939883.080 6  -7073864.985 5
  20920243.337   -17370534.581 9 -13130270.207 9
  22441993.241     3046188.083 7   -922341.322 6
 94  2  1 21  4 30.0000000  0  5 19 29 22 18 14
  22015165.798    -8116648.453 7  -8358543.235 6
  20810305.245   -27403390.312 8 -11823543.099 9
  22817761.772    10027988.046 7  -7005211.767 6
  20912643.298   -17410477.755 9 -13161394.734 9
  22461775.526     3150111.874 7   -841361.839 6
 94  2  1 21  5  0.0000000  0  6 19 29 31 22 18 14
  22006642.638    -8161388.594 7  -8393405.648 6
  20813461.071   -27386818.747 8 -11810630.171 9
  24682857.713      733858.92615    -63360.141
  22834597.577    10116470.547 7  -6936264.328 5
  20905099.651   -17450120.201 9 -13192284.919 9
  22481602.151     3254316.010 7   -760163.861 6
 94  2  1 21  5 30.0000000  0  6 19 29 31 22 18 14
  21998176.589    -8205892.617 7  -8428084.076 6
  20816677.994   -27369903.171 8 -11797449.196 9
  24667876.784      655175.369 5   -124675.654
  22851510.369    10205329.218 6  -6867023.791 5
  20897609.696   -17489469.957 9 -13222947.053 9
  22501480.759     3358789.857 7   -678755.792 6
 94  2  1 21  6  0.0000000  0  6 19 29 31 22 18 14
  21989752.871    -8250159.621 7  -8462577.782 6
  20819963.659   -27352638.335 8 -11783996.063 9
  24652919.389      576534.434 5   -185954.166 1
  22868493.791    10294567.459 6  -6797487.497 5
  20890176.462   -17528537.174 9 -13253388.999 9
  22521415.069     3463548.566 7   -597125.726 6
 94  2  1 21  6 30.0000000  0  6 19 29 31 22 18 14
  21981375.291    -8294191.559 7  -8496888.326 6
  20823308.294   -27335033.817 8 -11770278.256 9
  24637955.398      497940.906 5   -247195.603 1
  22885546.016    10384177.333 6  -6727661.619 5
  20882792.663   -17567327.818 8 -13283615.439 9
  22541404.960     3568594.953 7   -515271.478 6
 94  2  1 21  7  0.0000000  0  6 19 29 31 22 18 14
  21973040.101    -8337982.861 7  -8531011.387 6
  20826722.750   -27317108.931 8 -11756310.802 9
  24623003.310      419383.633 5   -308408.880 1
  22902665.635    10474141.977 6  -6657559.301 5
  20875462.048   -17605852.374 9 -13313634.538 9
  22561446.356     3673911.815 7   -433206.494 6
 94  2  1 21  7 30.0000000  0  6 19 29 31 22 18 14
  21964754.107    -8381528.530 7  -8564943.028 6
  20830196.985   -27298856.688 8 -11742088.281 9
  24608052.600      340851.589 4   -369602.384 1
  22919849.798    10564452.389 6  -6587187.570 6
  20868183.028   -17644101.028 9 -13343438.657 9
  22581536.887     3779490.493 6   -350937.485 6
 94  2  1 21  8  0.0000000  0  6 19 29 31 22 18 14
  21956515.690    -8424839.700 7  -8598691.962 6
  20833730.548   -27280290.258 8 -11727620.935 9
  24593119.847      262303.930 4   -430808.080 1
  22937096.708    10655085.389 6  -6516564.501 6
  20860955.961   -17682074.668 9 -13373028.465 9
  22601674.067     3885315.300 6   -268476.677 6
 94  2  1 21  8 30.0000000  0  6 19 29 31 22 18 14
  21948314.538    -8467919.073 7  -8632260.255 6
  20837328.927   -27261382.648 8 -11712887.729 9
  24578157.446      183724.922 4   -492038.185 1
  22954401.718    10746042.534 6  -6445688.811 6
  20853788.822   -17719755.576 9 -13402390.198 9
  22621868.027     3991394.376 7   -185817.746 6
 94  2  1 21  9  0.0000000  0  7 19 29 27 31 22 18 14
  21940159.374    -8510778.850 7  -8665657.428 6
  20840994.040   -27242124.525 8 -11697881.397 9
  24184885.892     -813115.51213   -160478.876 1
  24563205.357      105113.520 5   -553293.544 1
  22971767.766    10837321.747 6  -6374562.128 6
  20846671.899   -17757143.433 9 -13431523.551 9
  22642100.900     4097734.700 7   -102955.243 5
 94  2  1 21  9 30.0000000  0  7 19 29 27 31 22 18 14
  21932039.765    -8553434.453 7  -8698895.547 6
  20844723.758   -27222508.812 8 -11682596.430 9
  24171213.827     -884906.682 3   -216419.867 1
  24548232.462       26469.480 5   -614574.389 2
  22989204.175    10928909.457 6  -6303195.100 5
  20839614.185   -17794234.389 9 -13460425.560 9
  22662386.656     4204350.087 7    -19878.445 5
 94  2  1 21 10  0.0000000  0  7 19 29 27 31 22 18 14
  21923960.268    -8595899.366 7  -8731985.041 6
  20848523.927   -27202533.966 8 -11667031.611 9
  24157589.519     -956586.574 5   -272274.337 1
  24533242.150      -52192.789 3   -675869.437 1
  23006681.716    11020801.775 6  -6231590.742 5
  20832613.762   -17831031.471 9 -13489098.557 9
  22682723.557     4311249.945 6     63420.067 5
 94  2  1 21 10 30.0000000  0  7 19 29 27 31 22 18 14
  21915922.533    -8638173.402 7  -8764925.804 6
  20852401.563   -27182193.188 8 -11651181.658 9
  24143959.635    -1028159.463 4   -328045.376 1
  24518294.918     -130857.716 5   -737166.458 1
  23024226.350    11112991.820 6  -6159754.356 5
  20825666.371   -17867535.883 9 -13517543.528 9
  22703122.126     4418418.003 7    146927.567 5
 94  2  1 21 11  0.0000000  0  7 19 29 27 31 22 18 14
  21907912.828    -8680241.542 8  -8797706.126 7
  20856334.780   -27161494.328 8 -11635052.674 9
  24130351.875    -1099634.029 4   -383739.846 1
  24503327.210     -209511.497 5   -798454.860 1
  23041836.009    11205469.212 6  -6087694.092 5
  20818777.560   -17903738.258 9 -13545753.137 9
  22723561.166     4525829.417 7    230624.641 5
 94  2  1 21 11 30.0000000  0  7 19 29 27 31 22 18 14
  21899947.312    -8722098.672 8  -8830321.985 7
  20860340.277   -27140449.706 8 -11618654.258 9
  24116769.838    -1171031.708 4   -439374.339 1
  24488356.414     -288152.249 5   -859733.148 1
  23059481.673    11298218.604 6  -6015421.844 5
  20811944.690   -17939630.387 9 -13573721.012 9
  22744034.682     4633456.488 6    314489.823 5
 94  2  1 21 12  0.0000000  0  7 19 29 27 31 22 18 14
  21892022.628    -8763723.353 7  -8862756.805 7
  20864418.773   -27119051.904 9 -11601980.631 9
  24103200.721    -1242340.134 4   -494939.186 1
  24473394.941     -366762.189 5   -920987.514 2
  23077186.216    11391260.511 6  -5942921.661 5
  20805177.835   -17975201.894 9 -13601439.037 9
  22764561.622     4741288.808 6    398514.932 5
 94  2  1 21 12 30.0000000  0  7 19 29 27 31 22 18 14
  21884155.474    -8805091.970 7  -8894992.075 7
  20868554.770   -27097293.655 8 -11585026.160 9
  24089642.727    -1313544.727 4   -550423.160 2
  24458453.075     -445321.220 5   -982202.102 2
  23094951.138    11484610.385 6  -5870181.526 5
  20798470.339   -18010440.117 9 -13628897.348 9
  22785116.082     4849324.272 6    482698.305 5
 94  2  1 21 13  0.0000000  0  7 19 29 27 31 22 18 14
  21876331.791    -8846207.742 8  -8927030.307 7
  20872761.668   -27075187.627 8 -11567800.666 9
  24076117.411    -1384643.669 4   -605824.859 2
  24443522.272     -523806.910 5  -1043359.591 1
  23112769.213    11578281.911 5  -5797190.773 5
  20791832.154   -18045347.626 9 -13656097.975 9
  22805722.287     4957579.948 6    567053.320 5
 94  2  1 21 13 30.0000000  0  7 19 29 27 31 22 18 14
  21868548.429    -8887091.318 7  -8958887.583 7
  20877028.944   -27052746.882 8 -11550314.354 9
  24062608.163    -1455626.032 4   -661135.794 2
  24428616.171     -602216.036 5  -1104457.603 1
  23130672.459    11672281.527 6  -5723944.322 5
  20785246.793   -18079946.657 9 -13683058.206 9
  22826365.786     5066052.384 7    651577.154 5
 94  2  1 21 14  0.0000000  0  7 19 29 27 31 22 18 14
  21860816.272    -8927740.260 8  -8990562.022 7
  20881371.078   -27029943.618 8 -11532545.566 9
  24049130.064    -1526464.043 4   -716334.242 2
  24413685.367     -680531.865 3  -1165482.815 1
  23148616.686    11766627.487 6  -5650428.037 5
  20778719.622   -18114244.902 9 -13709784.084 9
  22847051.226     5174758.536 7    736283.135 5
 94  2  1 21 14 30.0000000  0  7 19 29 27 31 22 18 14
  21853126.056    -8968168.015 8  -9022064.134 7
  20885776.528   -27006787.187 8 -11514501.585 9
  24035671.811    -1597167.548 4   -771427.747 2
  24398793.147     -758761.216 3  -1226440.587 1
  23166638.140    11861313.645 6  -5576646.597 5
  20772247.702   -18148242.431 9 -13736275.638 9
  22867779.116     5283694.938 6    821168.547 5
 94  2  1 21 15  0.0000000  0  7 19 29 27 31 22 18 14
  21845470.495    -9008385.476 7  -9053402.374 7
  20890246.223   -26983288.550 8 -11496190.955 9
  24022233.973    -1667736.596 4   -826416.528 2
  24383946.555     -836930.287 4  -1287351.414 1
  23184714.666    11956326.473 6  -5502610.621 5
  20765835.951   -18181942.914 9 -13762535.749 9
  22888557.311     5392855.884 6    906228.917 5
 94  2  1 21 15 30.0000000  0  7 19 29 27 31 22 18 14
  21837858.195    -9048388.451 8  -9084573.481 7
  20894788.859   -26959432.350 8 -11477601.692 9
  24008846.561    -1738161.532 5   -881293.032 2
  24369050.887     -915059.319 3  -1348231.127 1
  23202857.476    12051657.931 6  -5428326.372 5
  20759480.021   -18215346.678 9 -13788564.621 9
  22909361.229     5502238.033 6    991461.668 5
 94  2  1 21 16  0.0000000  0  7 19 29 27 31 22 18 14
  21830285.708    -9088173.509 8  -9115574.788 7
  20899397.598   -26935215.630 8 -11458731.521 9
  23995476.657    -1808461.712 5   -936072.357 2
  24354213.978     -993175.510 3  -1409100.789 1
  23221050.441    12147285.254 6  -5353811.579 5
  20753176.705   -18248453.690 8 -13814362.304 9
  22930223.696     5611836.538 6   1076862.996 5
 94  2  1 21 16 30.0000000  0  7 19 29 27 31 22 18 14
  21822759.808    -9127731.847 8  -9146399.400 7
  20904077.418   -26910634.855 8 -11439577.649 9
  23982118.835    -1878633.594 5   -990751.672 2
  24339324.846    -1071282.048 3  -1469963.004 1
  23239298.898    12243203.770 5  -5279069.930 5
  20746940.722   -18281249.892 9 -13839917.738 9
  22951117.492     5721652.821 6   1162434.053 5
 94  2  1 21 17  0.0000000  0  7 19 29 27 31 22 18 14
  21815272.461    -9167062.280 7  -9177046.445 7
  20908821.994   -26885669.060 8 -11420123.774 9
  23968795.518    -1948667.607 5  -1045323.534 2
  24324470.909    -1149375.874 4  -1530815.341 1
  23257607.733    12339397.392 5  -5204113.906 5
  20740754.205   -18313744.715 9 -13865238.363 9
  22972060.034     5831688.210 6   1248175.799 5
 94  2  1 21 17 30.0000000  0  7 19 29 27 31 22 18 14
  21807836.679    -9206168.266 8  -9207518.574 7
  20913651.410   -26860311.833 8 -11400364.878 9
  23955484.313    -2018580.969 4  -1099801.376 2
  24309611.996    -1227445.081 4  -1591648.405 1
  23275968.312    12435859.309 6  -5128948.761 5
  20734627.376   -18345944.279 9 -13890328.916 9
  22993043.587     5941940.235 6   1334086.367 5
 94  2  1 21 18  0.0000000  0  7 19 29 27 31 22 18 14
  21800436.272    -9245038.720 8  -9237807.179 7
  20918551.008   -26834559.816 8 -11380298.367 9
  23942214.810    -2088381.379 5  -1154191.176 2
  24294767.892    -1305466.562 4  -1652444.259 1
  23294375.539    12532586.785 7  -5053576.666 5
  20728561.915   -18377826.694 9 -13915172.315 9
  23014065.094     6052404.999 7   1420162.690 5
 94  2  1 21 18 30.0000000  0  7 19 29 27 31 22 18 14
  21793080.654    -9283688.956 8  -9267924.176 7
  20923520.938   -26808427.744 8 -11359935.704 9
  23928943.957    -2158079.143 5  -1208501.023 2
  24279938.298    -1383418.005 5  -1713185.556 1
  23312828.784    12629567.580 6  -4978007.211 5
  20722553.685   -18409387.546 9 -13939765.165 9
  23035121.797     6163077.848 6   1506401.160 5
 94  2  1 21 19  0.0000000  0  7 19 29 27 31 22 18 14
  21785774.382    -9322106.606 8  -9297859.960 7
  20928564.137   -26781930.827 8 -11339288.774 9
  23915696.848    -2227676.317 5  -1262732.505 2
  24265130.320    -1461278.584 5  -1773856.045 1
  23331335.632    12726799.103 6  -4902242.415 5
  20716615.785   -18440602.788 9 -13964088.702 9
  23056219.002     6273962.754 6   1592804.875 4
 94  2  1 21 19 30.0000000  0  7 19 29 27 31 22 18 14
  21778506.064    -9360274.626 8  -9327601.205 7
  20933674.908   -26755078.709 8 -11318365.055 9
  23902466.707    -2297169.786 5  -1316883.132 2
  24250319.073    -1539031.980 5  -1834443.086 1
  23349886.190    12824290.616 6  -4826275.055 5
  20710748.037   -18471456.412 9 -13988130.489 9
  23077362.195     6385053.810 6   1679369.211 4
 94  2  1 21 20  0.0000000  0  7 19 29 27 31 22 18 14
  21771291.529    -9398194.397 8  -9357149.045 7
  20938858.140   -26727868.709 8 -11297162.465 9
  23889266.905    -2366542.937 6  -1370940.049 2
  24235538.286    -1616670.426 5  -1894940.468 1
  23368488.192    12922038.062 6  -4750108.246 5
  20704942.856   -18501943.019 9 -14011886.277 9
  23098531.439     6496341.810 5   1766086.958 4
 94  2  1 21 20 30.0000000  0  7 19 29 27 31 22 18 14
  21764120.913    -9435873.107 8  -9386508.996 7
  20944099.352   -26700305.990 8 -11275685.036 9
  23876096.752    -2435783.749 6  -1424893.787 3
  24220792.814    -1694187.219 5  -1955343.044 1
  23387131.955    13020051.616 6  -4673734.075 5
  20699210.015   -18532067.253 9 -14035359.669 9
  23119752.129     6607818.154 6   1852951.648 4
 94  2  1 21 21  0.0000000  0  7 19 29 27 31 22 18 14
  21756995.775    -9473308.517 8  -9415679.398 7
  20949411.374   -26672391.888 8 -11253933.814 9
  23862936.043    -2504883.706 5  -1478737.832 3
  24206071.475    -1771600.032 5  -2015664.532 2
  23405835.527    13118340.066 6  -4597145.713 5
  20693545.017   -18561842.261 9 -14058560.932 9
  23141000.279     6719465.420 6   1939949.435 4
 94  2  1 21 21 30.0000000  0  8 19 29 27 31 22 18 28 14
  21749913.418    -9510532.464 8  -9444685.024 7
  20954790.191   -26644109.837 8 -11231895.875 9
  23849815.087    -2573855.900 5  -1532482.280 3
  24191357.122    -1848921.174 5  -2075914.596 2
  23424602.325    13216909.995 6  -4520338.042 5
  20687942.346   -18591287.203 9 -14081505.055 9
  24065690.509     -241512.16515    -75737.596
  23162277.629     6831278.933 6   2027076.717 4
 94  2  1 21 22  0.0000000  0  8 19 29 27 31 22 18 28 14
  21742870.184    -9547549.584 8  -9473529.457 7
  20960244.675   -26615449.035 8 -11209562.786 9
  23836713.407    -2642702.315 5  -1586128.700 2
  24176661.116    -1926140.803 5  -2136085.526 1
  23443412.173    13315773.792 6  -4443301.382 5
  20682403.770   -18620381.058 9 -14104175.554 9
  24057549.525     -284268.816 5   -109054.396 1
  23183584.748     6943274.138 6   2114345.577 4
 94  2  1 21 22 30.0000000  0  8 19 29 27 31 22 18 28 14
  21735862.386    -9584367.587 8  -9502218.771 7
  20965773.657   -26586419.610 8 -11186942.452 9
  23823637.689    -2711432.166 6  -1639684.339 2
  24161979.590    -2003268.695 5  -2196184.942 1
  23462280.032    13414932.719 6  -4366034.715 5
  20676932.677   -18649132.236 9 -14126579.038 9
  24049475.335     -326672.694 5   -142096.299 1
  23204929.911     7055453.724 5   2201758.103 4
 94  2  1 21 23  0.0000000  0  8 19 29 27 31 22 18 28 14
  21728895.389    -9620982.633 8  -9530749.916 7
  20971364.996   -26557010.782 8 -11164026.513 9
  23810577.110    -2780052.244 6  -1693154.360 3
  24147318.749    -2080317.752 5  -2256222.920 1
  23481204.700    13514364.823 6  -4288555.179 4
  20671523.282   -18677547.819 9 -14148721.027 9
  24041481.459     -368729.002 5   -174867.323 1
  23226321.242     7167832.641 5   2289325.987 4
 94  2  1 21 23 30.0000000  0  8 19 29 27 31 22 18 28 14
  21721967.455    -9657396.218 8  -9559124.074 7
  20977035.960   -26527212.583 8 -11140807.145 9
  23797544.293    -2848566.984 6  -1746542.346 3
  24132668.461    -2157273.139 5  -2316187.962 1
  23500173.588    13614062.386 6  -4210868.817 4
  20666184.578   -18705624.440 9 -14170598.874 9
  24033538.787     -410425.674 5   -207358.153 2
  23247737.816     7280420.970 6   2377057.034 4
 94  2  1 21 24  0.0000000  0  8 19 29 27 31 22 18 28 14
  21715077.804    -9693590.601 8  -9587327.461 7
  20982780.074   -26497032.857 8 -11117290.486 9
  23784531.142    -2916961.251 5  -1799836.450 3
  24118044.585    -2234128.046 5  -2376074.667 1
  23519188.375    13714006.356 6  -4132990.420 4
  20660902.205   -18733366.589 9 -14192216.106 9
  24025669.895     -451760.643 5   -239567.137 2
  23269196.001     7393201.517 6   2464937.909 4
 94  2  1 21 24 30.0000000  0  8 19 29 27 31 22 18 28 14
  21708235.971    -9729539.836 8  -9615339.827 7
  20988597.936   -26466457.223 8 -11093465.326 9
  23771542.034    -2985206.982 5  -1853014.809 3
  24103450.928    -2310871.178 5  -2435874.356 1
  23538254.965    13814196.332 6  -4054920.343 4
  20655691.452   -18760768.621 9 -14213568.317 9
  24017882.786     -492722.242 5   -271485.125 2
  23290701.553     7506180.851 6   2552973.612 4
 94  2  1 21 25  0.0000000  0  8 19 29 27 31 22 18 28 14
  21701443.363    -9765244.273 8  -9643161.411 7
  20994491.826   -26435486.723 8 -11069332.463 9
  23758575.111    -3053315.436 5  -1906086.260 3
  24088868.543    -2387496.271 4  -2495582.002 1
  23557365.115    13914613.160 6  -3976673.525 3
  20650540.658   -18787820.192 9 -14234647.457 9
  24010164.539     -533297.075 5   -303101.716 2
  23312241.491     7619344.603 6   2641153.091 4
 94  2  1 21 25 30.0000000  0  8 19 29 27 31 22 18 28 14
  21694697.733    -9800718.865 8  -9670803.889 7
  21000458.895   -26404134.571 8 -11044902.210 9
  23745647.400    -3121291.054 5  -1959054.142 3
  24074299.589    -2463992.263 4  -2555189.064 1
  23576513.519    14015253.077 6  -3898252.831 3
  20645457.467   -18814521.368 9 -14255453.536 9
  24002520.731     -573487.480 5   -334418.757 2
  23333805.263     7732664.151 6   2729453.887 4
 94  2  1 21 26  0.0000000  0  8 19 29 27 31 22 18 28 14
  21687982.202    -9835958.831 8  -9698263.575 7
  21006495.576   -26372420.280 8 -11020189.745 9
  23732731.142    -3189145.194 6  -2011927.358 3
  24059767.150    -2540369.488 4  -2614703.523 1
  23595704.644    14116096.181 5  -3819673.806 4
  20640443.858   -18840875.159 9 -14275988.935 9
  23994936.641     -613303.583 5   -365444.125 2
  23355399.583     7846119.529 6   2817860.590 4
 94  2  1 21 26 30.0000000  0  8 19 29 27 31 22 18 28 14
  21681324.292    -9870958.700 8  -9725536.183 7
  21012596.142   -26340332.271 8 -10995186.107 9
  23719850.949    -3256875.564 6  -2064704.134 3
  24045261.752    -2616610.644 4  -2674112.081 1
  23614938.158    14217165.184 5  -3740918.815 4
  20635504.448   -18866858.174 9 -14296235.404 9
  23987435.744     -652729.699 5   -396165.634 2
  23377012.491     7959722.989 6   2906382.619 4
 94  2  1 21 27  0.0000000  0  8 19 29 27 31 22 18 28 14
  21674705.144    -9905749.283 8  -9752645.669 7
  21018777.263   -26307866.473 8 -10969888.060 9
  23706975.342    -3324496.601 6  -2117395.703 3
  24030788.971    -2692711.416 5  -2733411.234 1
  23634216.402    14318455.908 6  -3661991.027 4
  20630629.642   -18892476.800 9 -14316197.953 9
  23980010.214     -691763.571 5   -426581.442 2
  23398660.085     8073466.175 6   2995013.570 4
 94  2  1 21 27 30.0000000  0  8 19 29 27 31 22 18 28 14
  21668126.648    -9940316.685 8  -9779581.266 7
  21025029.765   -26275008.831 8 -10944284.682 9
  23694131.574    -3391982.837 5  -2169982.262 3
  24016332.319    -2768652.627 5  -2792586.088 2
  23653538.506    14419997.266 6  -3582867.928 4
  20625823.520   -18917718.586 9 -14335866.877 9
  23972656.096     -730395.792 6   -456684.348 2
  23420329.923     8187358.141 6   3083760.396 4
 94  2  1 21 28  0.0000000  0  8 19 29 27 31 22 18 28 14
  21661588.474    -9974665.327 8  -9806346.386 8
  21031356.075   -26241762.255 8 -10918378.237 9
  23681312.329    -3459342.133 5  -2222469.933 3
  24001903.968    -2844443.848 5  -2851644.059 2
  23672902.431    14521791.509 6  -3503547.774 4
  20621095.223   -18942574.444 9 -14355235.040 9
  23965388.587     -768635.834 5   -486481.590 2
  23442028.481     8301398.286 6   3172622.773 4
 94  2  1 21 28 30.0000000  0  8 19 29 27 31 22 18 28 14
  21655095.419   -10008810.475 8  -9832952.945 8
  21037759.402   -26208126.286 8 -10892168.373 9
  23668523.692    -3526572.337 5  -2274857.018 3
  23987520.795    -2920082.923 6  -2910583.492 2
  23692329.552    14623836.745 6  -3424032.051 4
  20616434.679   -18967046.170 9 -14374303.906 9
  23958175.370     -806486.121 5   -515975.212 2
  23463759.447     8415592.861 6   3261605.489 3
 94  2  1 21 29  0.0000000  0  8 19 29 27 31 22 18 28 14
  21648631.564   -10042759.328 8  -9859406.551 8
  21044232.191   -26174112.248 8 -10865663.900 9
  23655751.664    -3593683.687 5  -2327151.478 3
  23973149.854    -2995585.608 5  -2969416.635 2
  23711785.782    14726102.898 6  -3344344.186 4
  20611848.634   -18991152.144 9 -14393087.753 9
  23951043.548     -843952.721 5   -545169.868 2
  23485517.724     8529942.200 5   3350708.733 3
 94  2  1 21 29 30.0000000  0  8 19 29 27 31 22 18 28 14
  21642216.725   -10076491.972 8  -9885691.683 8
  21050774.802   -26139728.949 8 -10838871.696 9
  23642997.294    -3660677.720 6  -2379354.533 3
  23958800.258    -3070950.760 5  -3028142.544 2
  23731289.500    14828593.236 5  -3264481.573 4
  20607328.993   -19014893.472 9 -14411587.455 9
  23943996.536     -881046.784 5   -574074.240 2
  23507310.538     8644440.078 6   3439927.773 3
 94  2  1 21 30  0.0000000  0  8 19 29 27 31 22 18 28 14
  21635839.540   -10110008.677 8  -9911808.551 8
  21057386.575   -26104972.619 8 -10811788.830 9
  23630275.331    -3727558.008 6  -2431468.990 3
  23944493.142    -3146187.734 6  -3086768.620 2
  23750837.108    14931288.778 5  -3184459.122 3
  20602881.422   -19038279.450 9 -14429810.259 9
  23937008.134     -917757.899 5   -602680.212 2
  23529126.854     8759084.917 6   3529261.290 3
 94  2  1 21 30 30.0000000  0  8 19 29 27 31 22 18 28 14
  21629499.859   -10143306.069 8  -9937754.518 8
  21064073.415   -26069836.924 8 -10784410.353 9
  23617565.150    -3794314.055 5  -2483486.592 3
  23930204.254    -3221297.973 5  -3145295.963 2
  23770419.791    15034179.246 6  -3104284.783 3
  20598496.628   -19061325.288 9 -14447768.022 9
  23930085.507     -954075.172 5   -630979.287 2
  23550973.780     8873880.442 6   3618712.248 3
 94  2  1 21 31  0.0000000  0  8 19 29 27 31 22 18 28 14
  21623204.067   -10176394.846 8  -9963537.916 8
  21070831.997   -26034310.837 8 -10756727.659 9
  23604893.043    -3860942.463 5  -2535404.747 3
  23915929.936    -3296274.261 5  -3203718.910 2
  23790028.706    15137277.239 6  -3023948.709 3
  20594174.220   -19084027.799 9 -14465458.252 9
  23923264.868     -990001.293 6   -658973.563 2
  23572836.505     8988798.041 6   3708258.324 3
 94  2  1 21 31 30.0000000  0  8 19 29 27 31 22 18 28 14
  21616948.958   -10209267.068 8  -9989152.593 8
  21077670.233   -25998385.051 8 -10728733.520 9
  23592232.567    -3927435.505 5  -2587217.379 3
  23901690.634    -3371108.388 5  -3262031.021 2
  23809689.905    15240596.649 6  -2943440.100 2
  20589925.022   -19106360.808 9 -14482860.576 9
  23916495.944    -1025536.870 6   -686663.544 2
  23594727.530     9103815.415 6   3797882.133 3
 94  2  1 21 32  0.0000000  0  8 19 29 27 31 22 18 28 14
  21610733.121   -10241912.611 8 -10014590.633 8
  21084586.325   -25962048.283 8 -10700419.157 9
  23579614.363    -3993770.579 6  -2638906.933 3
  23887475.315    -3445776.668 5  -3320213.947 2
  23829395.892    15344138.556 5  -2862758.164 2
  20585752.240   -19128298.800 9 -14499955.086 9
  23909816.209    -1060641.477 5   -714017.733 3
  23616641.609     9218955.495 6   3887601.570 3
 94  2  1 21 32 30.0000000  0  8 19 29 27 31 22 18 28 14
  21604563.602   -10274332.822 8 -10039853.085 8
  21091576.256   -25925300.860 8 -10671784.788 9
  23567023.709    -4059946.451 5  -2690472.476 3
  23873306.014    -3520257.742 5  -3378251.040 2
  23849144.211    15447910.038 5  -2781897.335 3
  20581652.099   -19149833.185 8 -14516735.094 9
  23903215.528    -1095318.899 5   -741039.029 3
  23638572.327     9334218.318 6   3977416.621 3
 94  2  1 21 33  0.0000000  0  8 19 29 27 31 22 18 28 14
  21598443.399   -10306531.467 8 -10064942.891 8
  21098643.113   -25888167.672 8 -10642849.851 9
  23554462.675    -4125986.501 6  -2741932.196 3
  23859168.072    -3594548.602 5  -3436139.914 2
  23868914.984    15551896.405 5  -2700869.061 3
  20577630.803   -19170966.595 9 -14533202.633 9
  23896690.156    -1129579.990 5   -767735.937 3
  23660529.306     9449578.872 5   4067307.865 3
 94  2  1 21 33 30.0000000  0  8 19 29 27 31 22 18 28 14
  21592354.674   -10338501.239 8 -10089854.339 8
  21105775.656   -25850669.394 8 -10613630.402 9
  23541911.744    -4191913.869 6  -2793304.079 3
  23845074.468    -3668663.473 5  -3493891.626 2
  23888746.855    15656067.716 5  -2619696.697 3
  20573685.114   -19191715.306 9 -14549370.433 9
  23890263.265    -1163427.143 5   -794110.305 3
  23682496.209     9565058.173 5   4157291.601 4
 94  2  1 21 34  0.0000000  0  8 19 29 27 31 22 18 28 14
  21586313.646   -10370244.530 8 -10114589.345 8
  21112984.555   -25812802.082 8 -10584123.399 9
  23529386.894    -4257728.061 6  -2844587.774 3
  23830995.195    -3742591.408 5  -3551497.620 1
  23908611.912    15760430.172 5  -2538375.327 3
  20569803.371   -19212094.258 8 -14565250.107 9
  23883891.836    -1196852.585 5   -820156.092 3
  23704505.862     9680675.812 6   4247383.171 4
 94  2  1 21 34 30.0000000  0  8 19 29 27 31 22 18 28 14
  21580320.555   -10401744.225 7 -10139134.536 8
  21120264.745   -25774546.763 8 -10554314.060 9
  23516885.669    -4323423.760 6  -2895779.126 3
  23816956.724    -3816330.339 4  -3608956.373 1
  23928512.166    15865000.714 5  -2456891.880 3
  20566000.744   -19232093.642 9 -14580834.014 9
  23877614.691    -1229853.461 6   -845871.008 3
  23726529.336     9796424.074 6   4337576.497 4
 94  2  1 21 35  0.0000000  0  8 19 29 27 31 22 18 28 14
  21574370.094   -10433013.802 8 -10163500.386 8
  21127616.465   -25735919.069 8 -10524214.556 9
  23504401.022    -4389015.264 6  -2946889.328 3
  23802965.260    -3889905.936 5  -3666287.940 1
  23948440.929    15969762.526 5  -2375259.342 3
  20562265.900   -19251715.503 9 -14596123.743 9
  23871406.649    -1262434.296 5   -871258.575 3
  23748569.388     9912287.751 6   4427859.731 4
 94  2  1 21 35 30.0000000  0  8 19 29 27 31 22 18 28 14
  21568462.054   -10464062.896 8 -10187694.448 8
  21135041.305   -25696902.230 8 -10493811.842 9
  23491942.457    -4454497.814 6  -2997914.650 3
  23788998.169    -3963325.880 5  -3723498.082 1
  23968408.936    16074706.047 5  -2293485.248 3
  20558597.579   -19270962.275 8 -14611121.198 9
  23865294.001    -1294588.041 5   -896313.376 3
  23770646.074    10028265.168 6   4518231.616 4
 94  2  1 21 36  0.0000000  0  8 19 29 27 31 22 18 28 14
  21562598.893   -10494891.791 8 -10211716.909 8
  21142537.046   -25657493.192 8 -10463103.487 9
  23479511.113    -4519846.848 6  -3048835.908 3
  23775054.642    -4036584.249 5  -3780582.321 1
  23988424.939    16179837.648 5  -2211564.575 3
  20555011.941   -19289824.753 8 -14625819.227 9
  23859257.590    -1326303.671 5   -921026.730 3
  23792731.035    10144334.640 6   4608675.248 4
 94  2  1 21 36 30.0000000  0  8 19 29 27 31 22 18 28 14
  21556772.787   -10525485.709 8 -10235556.280 8
  21150112.082   -25617686.812 8 -10432085.526 9
  23467092.450    -4585048.941 5  -3099642.648 3
  23761152.037    -4109665.698 5  -3837528.755 1
  24008460.189    16285159.641 5  -2129495.559 3
  20551501.342   -19308283.275 9 -14640202.463 9
  23853318.161    -1357556.816 5   -945379.760 3
  23814835.093    10260502.164 6   4699195.237 3
 94  2  1 21 37  0.0000000  0  8 19 29 27 31 22 18 28 14
  21550994.617   -10555865.077 7 -10259228.470 8
  21157762.995   -25577491.654 8 -10400764.614 9
  23454723.163    -4650117.111 6  -3150345.049 3
  23747276.652    -4182558.019 5  -3894327.717 2
  24028544.215    16390668.287 5  -2047281.076 2
  20548063.412   -19326342.155 9 -14654274.302 9
  23847454.581    -1388358.002 5   -969380.574 3
  23836969.040    10376766.849 6   4789790.970 3
 94  2  1 21 37 30.0000000  0  8 19 29 27 31 22 18 28 14
  21545254.191   -10586025.831 8 -10282730.318 8
  21165490.596   -25536890.839 8 -10369127.629 9
  23442356.274    -4715052.168 6  -3200943.707 3
  23733446.537    -4255240.212 5  -3950963.015 2
  24048653.124    16496373.408 5  -1964913.524 2
  20544699.471   -19344006.243 9 -14668038.516 9
  23841672.604    -1418709.566 5   -993031.098 3
  23859111.831    10493139.648 6   4880470.968 3
 94  2  1 21 38  0.0000000  0  8 19 29 27 31 22 18 28 14
  21539550.040   -10615987.382 7 -10306076.936 8
  21173286.759   -25495898.100 8 -10337185.230 9
  23430026.950    -4779871.715 6  -3251452.400 3
  23719653.985    -4327706.515 6  -4007430.056 2
  24068796.839    16602282.374 4  -1882387.099 2
  20541413.475   -19361271.124 9 -14681491.657 9
  23835987.399    -1448625.726 5  -1016342.322 3
  23881271.919    10609618.236 6   4971233.318 3
 94  2  1 21 38 30.0000000  0  8 19 29 27 31 22 18 28 14
  21533881.504   -10645774.812 8 -10329287.868 8
  21181164.945   -25454513.317 8 -10304937.318 9
  23417715.403    -4844601.594 6  -3301891.190 4
  23705897.319    -4399959.747 5  -4063731.026 2
  24088999.792    16708385.857 4  -1799709.110 2
  20538207.555   -19378134.258 8 -14694631.740 9
  23830370.128    -1478122.301 6  -1039326.551 3
  23903458.420    10726193.478 6   5062071.071 3
 94  2  1 21 39  0.0000000  0  8 19 29 27 31 22 18 28 14
  21528248.973   -10675381.664 8 -10352358.107 8
  21189118.199   -25412717.538 8 -10272369.171 9
  23405412.580    -4909228.369 5  -3352249.640 4
  23692192.846    -4471999.953 6  -4119866.062 2
  24109229.158    16814680.957 5  -1716881.779 2
  20535078.411   -19394584.252 9 -14707449.905 9
  23824841.176    -1507205.640 5  -1061988.824 3
  23925663.358    10842869.995 6   5152987.686 3
 94  2  1 21 39 30.0000000  0  8 19 29 27 31 22 18 28 14
  21522649.750   -10704792.027 8 -10375275.242 8
  21197149.129   -25370507.614 8 -10239478.330 9
  23393137.308    -4973728.266 6  -3402509.235 4
  23678528.786    -4543831.526 6  -4175838.521 2
  24129493.539    16921164.427 5  -1633907.706 2
  20532023.316   -19410621.595 8 -14719946.523 9
  23819392.957    -1535866.905 5  -1084322.230 3
  23947887.602    10959657.701 6   5243990.921 3
 94  2  1 21 40  0.0000000  0  8 19 29 27 31 22 18 28 14
  21517097.294   -10733998.605 8 -10398033.577 8
  21205254.888   -25327916.170 8 -10206290.183 9
  23380886.559    -5038088.821 6  -3452660.277 4
  23664884.002    -4615465.314 5  -4231656.774 2
  24149788.619    17027822.497 5  -1550797.566 2
  20529052.163   -19426252.751 8 -14732126.630 9
  23814004.398    -1564104.874 5  -1106325.733 3
  23970122.250    11076531.841 6   5335061.526 3
 94  2  1 21 40 30.0000000  0  8 19 29 27 31 22 18 28 14
  21511584.260   -10762967.452 8 -10420606.655 8
  21213432.057   -25284941.517 8 -10172803.420 9
  23368670.106    -5102291.990 6  -3502688.657 4
  23651298.067    -4686903.301 5  -4287322.467 2
  24170117.666    17134635.910 5  -1467566.416 2
  20526151.251   -19441488.791 8 -14743998.845 9
  23808719.656    -1591901.260 5  -1127985.161 3
  23992380.371    11193488.029 6   5426196.067 3
 94  2  1 21 41  0.0000000  0  8 19 29 27 31 22 18 28 14
  21506114.846   -10791666.668 8 -10442969.656 8
  21221686.122   -25241583.082 8 -10139017.613 9
  23356484.862    -5166324.641 6  -3552584.133 4
  23637744.690    -4758121.856 5  -4342817.213 2
  24190465.569    17241601.354 5  -1384216.779 2
  20523328.196   -19456339.499 9 -14755570.821 9
  23803523.234    -1619243.465 5  -1149290.730 3
  24014655.760    11310535.139 5   5517401.468 3
 94  2  1 21 41 30.0000000  0  8 19 29 27 31 22 18 28 14
  21500704.552   -10820108.221 8 -10465131.892 8
  21230004.554   -25197858.483 8 -10104946.528 9
  23344325.909    -5230196.798 6  -3602354.590 4
  23624237.301    -4829114.978 5  -4398136.268 2
  24210852.865    17348711.629 5  -1300754.298 2
  20520568.846   -19470820.215 8 -14766854.489 9
  23798400.380    -1646131.093 5  -1170242.060 3
  24036932.138    11427648.539 5   5608658.486 2
 94  2  1 21 42  0.0000000  0  8 19 29 27 31 22 18 28 14
  21495348.100   -10848290.693 8 -10487092.197 8
  21238398.113   -25153755.895 8 -10070580.852 9
  23332205.630    -5293913.588 6  -3652003.915 4
  23610778.928    -4899867.009 5  -4453267.554 2
  24231265.824    17455966.100 5  -1217179.446 2
  20517889.631   -19484911.084 9 -14777834.355 9
  23793372.951    -1672545.040 6  -1190824.281 3
  24059221.887    11544818.643 4   5699959.757 3
 94  2  1 21 42 30.0000000  0  8 19 29 27 31 22 18 28 14
  21490026.904   -10876242.604 8 -10508872.858 8
  21246868.029   -25109253.938 8 -10035903.984 9
  23320106.546    -5357497.709 6  -3701549.920 4
  23597358.748    -4970369.673 5  -4508204.492 2
  24251703.125    17563349.473 5  -1133504.137 2
  20515282.665   -19498609.313 9 -14788508.284 9
  23788435.369    -1698493.793 6  -1211043.999 3
  24081530.583    11662043.341 4   5791303.499 3
 94  2  1 21 43  0.0000000  0  8 19 29 27 31 22 18 28 14
  21484740.723   -10904001.898 8 -10530503.444 8
  21255410.346   -25064354.301 8 -10000917.264 9
  23308025.120    -5420965.243 6  -3751005.109 4
  23583995.650    -5040619.633 4  -4562944.566 2
  24272162.252    17670871.458 5  -1049720.871 2
  20512751.757   -19511903.560 9 -14798867.421 9
  23783571.236    -1723993.278 5  -1230913.636 3
  24103854.539    11779312.189 5   5882681.629 3
 94  2  1 21 43 30.0000000  0  8 19 29 27 31 22 18 28 14
  21479493.186   -10931591.612 8 -10552001.894 8
  21264023.923   -25019059.801 8  -9965622.874 9
  23295970.555    -5484328.234 6  -3800378.795 5
  23570668.436    -5110627.253 4  -4617495.787 2
  24292647.130    17778537.397 5   -965825.400 2
  20510299.635   -19524777.632 9 -14808899.158 9
  23778820.035    -1749040.747 5  -1250431.048 3
  24126174.507    11896624.193 5   5974093.476 3
 94  2  1 21 44  0.0000000  0  8 19 29 27 31 22 18 28 14
  21474273.020   -10959004.371 8 -10573362.456 8
  21272725.788   -24973367.514 8  -9930018.486 9
  23283926.513    -5547598.546 6  -3849680.256 5
  23557392.816    -5180391.683 5  -4671857.494 2
  24313161.059    17886342.753 4   -881821.248 2
  20507935.831   -19537223.756 9 -14818597.408 9
  23774130.172    -1773630.484 5  -1269591.797 3
  24148515.311    12013994.344 5   6065550.572 3
 94  2  1 21 44 30.0010000  0  8 19 29 27 31 22 18 28 14
  21469092.876   -10986236.596 8 -10594582.319 9
  21281498.195   -24927267.563 8  -9894096.440 9
  23271907.624    -5610778.171 6  -3898911.054 4
  23544163.904    -5249917.962 6  -4726033.577 2
  24333694.624    17994295.837 4   -797702.025 2
  20505647.546   -19549243.432 9 -14827963.359 9
  23769545.746    -1797765.336 5  -1288398.113 3
  24170867.207    12131432.949 5   6157061.031 3
 94  2  1 21 45  0.0010000  0  8 19 29 27 31 22 18 28 14
  21463949.187   -11013278.917 8 -10615654.228 9
  21290345.311   -24880781.014 8  -9857873.184 9
  23259901.265    -5673873.619 6  -3948076.254 4
  23530969.709    -5319222.988 6  -4780037.347 2
  24354257.628    18102380.664 4   -713480.113 2
  20503436.576   -19560849.151 9 -14837006.752 9
  23765037.317    -1821445.154 5  -1306849.790 3
  24193224.949    12248925.109 6   6248613.186 3
 94  2  1 21 45 30.0010000  0  8 19 29 27 31 22 18 28 14
  21458842.103   -11040108.727 8 -10636560.536 9
  21299264.076   -24833904.562 8  -9821346.068 9
  23247915.473    -5736872.513 6  -3997166.210 4
  23517835.981    -5388313.762 6  -4833874.193 2
  24374860.715    18210594.045 4   -629158.079 2
  20501310.208   -19572043.049 9 -14845729.245 9
  23760617.986    -1844657.285 5  -1324937.099 3
  24215589.166    12366476.831 5   6340211.762 3
 94  2  1 21 46  0.0010000  0  8 19 29 27 31 22 18 28 14
  21453780.257   -11066712.262 8 -10657290.547 8
  21308259.109   -24786634.060 8  -9784511.918 9
  23235948.028    -5799756.623 6  -4046166.753 4
  23504711.127    -5457182.070 5  -4887537.683 2
  24395491.952    18318939.983 4   -544732.730 2
  20499255.191   -19582831.615 9 -14854135.904 9
  23756285.776    -1867399.853 5  -1342658.489 3
  24237975.179    12484077.255 6   6431848.275 3
 94  2  1 21 46 30.0010000  0  8 19 29 27 31 22 18 28 14
  21448759.243   -11093088.213 8 -10677843.215 9
  21317328.461   -24738964.859 8  -9747367.118 9
  23224004.356    -5862495.525 6  -4095054.122 4
  23491659.453    -5525802.132 5  -4941007.808 2
  24416131.584    18427441.683 4   -460186.035 2
  20497283.246   -19593203.585 9 -14862217.935 9
  23752058.762    -1889661.445 6  -1360005.148 3
  24260362.750    12601724.197 6   6523521.043 3
 94  2  1 21 47  0.0010000  0  8 19 29 27 31 22 18 28 14
  21443789.074   -11119239.476 8 -10698220.791 9
  21326474.379   -24690911.663 8  -9709923.071 9
  23212100.437    -5925071.043 6  -4143814.173 3
  23478656.284    -5594152.215 5  -4994267.450 2
  24436814.565    18536100.249 4   -375517.090 2
  20495385.290   -19603154.196 9 -14869971.633 9
  23747903.938    -1911441.109 5  -1376976.227 3
  24282754.819    12719407.904 6   6615222.404 3
 94  2  1 21 47 30.0010000  0  8 19 29 27 31 22 18 28 14
  21438850.053   -11145166.610 8 -10718423.709 9
  21335689.490   -24642474.600 8  -9672179.925 8
  23200221.641    -5987472.077 5  -4192438.282 3
  23465695.537    -5662208.031 5  -5047297.789 2
  24457511.187    18644921.365 3   -290721.452 2
  20493578.771   -19612672.563 9 -14877388.509 9
  23743852.093    -1932739.038 5  -1393571.904 3
  24305148.566    12837113.941 5   6706941.277 3
 94  2  1 21 48  0.0010000  0  8 19 29 27 31 22 18 28 14
  21433957.290   -11170890.094 8 -10738467.974 9
  21344979.818   -24593659.391 8  -9634142.102 8
  23188381.278    -6049722.890 6  -4240945.390 4
  23452816.993    -5729962.246 5  -5100093.151 2
  24478255.866    18753888.315 3   -205812.248 2
  20491845.281   -19621769.002 9 -14884476.609 9
  23739893.424    -1953570.921 5  -1409804.535 4
  24327556.553    12954832.645 5   6798669.946 3
 94  2  1 21 48 30.0010000  0  8 19 29 27 31 22 18 28 14
  21429098.164   -11196403.584 8 -10758348.585 9
  21354344.585   -24544444.166 8  -9595792.583 9
  23176554.465    -6111831.613 6  -4289341.742 4
  23439972.505    -5797405.944 5  -5152646.483 2
  24499002.853    18862999.359 3   -120790.648 2
  20490198.431   -19630423.683 9 -14891220.478 9
  23736021.604    -1973926.434 5  -1425665.968 3
  24349963.671    13072579.456 5   6890420.507 3
 94  2  1 21 49  0.0010000  0  7 19 29 27 31 18 28 14
  21424283.977   -11221712.877 8 -10778070.083 9
  21363784.150   -24494830.275 8  -9557132.432 9
  23164754.694    -6173842.048 6  -4337661.535 4
  23427198.108    -5864569.961 5  -5204981.884 2
  20488633.484   -19638652.462 9 -14897632.502 9
  23732230.998    -1993817.100 5  -1441165.174 3
  24372369.859    13190344.507 5   6982185.270 3
 94  2  1 21 49 30.0010000  0  7 19 29 27 31 18 28 14
  21419504.476   -11246815.208 8 -10797630.298 9
  21373305.648   -24444805.429 8  -9518152.021 9
  23152978.576    -6235768.620 6  -4385915.929 4
  23414458.428    -5931460.246 5  -5257103.980 2
  20487147.353   -19646457.894 9 -14903714.625 9
  23728542.682    -2013232.616 5  -1456294.022 3
  24394797.273    13308141.339 5   7073974.838 3
 94  2  1 21 50  0.0010000  0  7 19 29 27 31 18 28 14
  21414770.603   -11271714.469 8 -10817032.304 9
  21382903.444   -24394363.609 8  -9478846.730 9
  23141213.281    -6297602.478 6  -4434098.076 4
  23401792.886    -5998091.953 6  -5309024.582 2
  20485742.675   -19653849.809 9 -14909474.541 9
  23724939.926    -2032165.965 5  -1471047.234 3
  24417208.438    13425985.851 4   7165801.537 2
 94  2  1 21 50 30.0010000  0  7 19 29 27 31 18 28 14
  21410069.257   -11296402.875 8 -10836269.948 9
  21392579.965   -24343515.624 7  -9439224.910 8
  23129461.657    -6359333.179 6  -4482199.822 4
  23389153.756    -6064468.145 5  -5360746.056 2
  20484412.886   -19660825.902 9 -14914910.433 9
  23721430.705    -2050602.533 5  -1485413.364 3
  24439644.936    13543869.298 5   7257658.562 2
 94  2  1 21 51  0.0010000  0  7 19 29 27 31 18 28 14
  21405411.112   -11320898.866 8 -10855357.727 9
  21402329.426   -24292286.462 8  -9399306.098 8
  23117740.791    -6420952.707 6  -4530214.987 4
  23376566.670    -6130595.049 5  -5412273.335 2
  20483159.933   -19667398.626 9 -14920032.024 9
  23718016.579    -2068550.606 5  -1499398.835 3
  24462081.973    13661774.546 4   7349532.616 2
 94  2  1 21 51 30.0010000  0  7 19 29 27 31 18 28 14
  21400787.443   -11345198.893 9 -10874292.772 9
  21412146.669   -24240678.490 8  -9359092.106 8
  23106031.797    -6482425.377 6  -4578115.717 4
  23364036.874    -6196456.514 5  -5463593.827 2
  20481987.775   -19673552.329 9 -14924827.092 9
  23714691.461    -2086011.703 5  -1513004.839 3
  24484526.355    13779708.588 5   7441428.974 2
 94  2  1 21 52  0.0010000  0  7 19 29 27 31 18 28 14
  21396203.287   -11369291.891 9 -10893066.494 9
  21422043.448   -24188693.188 8  -9318584.089 8
  23094369.960    -6543749.366 6  -4625900.611 4
  23351560.351    -6262045.003 5  -5514701.621 2
  20480901.357   -19679272.111 9 -14929284.069 9
  23711454.422    -2102987.856 6  -1526233.013 3
  24506971.247    13897658.578 5   7533337.866 2
 94  2  1 21 52 30.0010000  0  7 19 29 27 31 18 28 14
  21391653.786   -11393174.852 8 -10911676.580 9
  21432007.650   -24136325.659 8  -9277778.223 8
  23082730.158    -6604934.207 6  -4673577.063 4
  23339121.932    -6327339.508 4  -5565580.285 2
  20479897.892   -19684543.567 9 -14933391.671 9
  23708326.837    -2119473.543 6  -1539078.978 3
  24529412.721    14015609.349 5   7625247.381 2
 94  2  1 21 53  0.0010000  0  7 19 29 27 31 18 28 14
  21387148.745   -11416853.264 8 -10930127.254 9
  21442050.817   -24083566.677 8  -9236667.329 8
  23071108.764    -6665980.634 6  -4721145.635 4
  23326757.262    -6392344.560 5  -5616233.501 2
  20478982.206   -19689362.755 9 -14937146.872 9
  23705274.680    -2135484.754 6  -1551555.170 3
  24551867.386    14133566.226 5   7717161.597 2
 94  2  1 21 53 30.0010000  0  7 19 29 27 31 18 28 14
  21382685.735   -11440322.175 8 -10948414.673 9
  21452159.429   -24030414.171 8  -9195249.796 8
  23059515.849    -6726903.149 6  -4768617.690 4
  23314433.334    -6457055.672 5  -5666657.582 2
  20478155.078   -19693725.749 9 -14940546.583 9
  23702317.467    -2151021.848 6  -1563661.956 3
  24574301.155    14251534.591 5   7809084.749 2
 94  2  1 21 54  0.0010000  0  7 19 29 27 31 18 28 14
  21378258.550   -11463580.087 8 -10966537.713 9
  21462356.810   -23976853.639 8  -9153514.305 8
  23047944.280    -6787694.339 6  -4815987.397 5
  23302189.210    -6521454.089 5  -5716838.077 2
  20477408.085   -19697636.056 9 -14943593.583 9
  23699455.498    -2166065.152 5  -1575383.970 3
  24596764.934    14369506.227 6   7901010.429 2
 94  2  1 21 54 30.0010000  0  7 19 29 27 31 18 28 14
  21373869.078   -11486642.947 8 -10984508.755 9
  21472625.601   -23922883.198 8  -9111459.436 8
  23036398.343    -6848344.375 6  -4863247.124 5
  23289998.060    -6585547.713 5  -5766781.006 2
  20476746.683   -19701102.168 9 -14946294.436 9
  23696687.215    -2180618.950 5  -1586724.594 3
  24619224.995    14487487.976 6   7992944.006 2
 94  2  1 21 55  0.0010000  0  8 19 29 27 31 22 18 28 14
  21369516.122   -11509525.958 8 -11002339.646 9
  21482970.629   -23868521.791 8  -9069099.903 8
  23024888.681    -6908855.009 6  -4910398.214 5
  23277863.450    -6649349.633 5  -5816496.673 2
  24770733.988      168206.69814     47341.755
  20476171.412   -19704134.198 9 -14948657.045 9
  23694002.094    -2194699.214 5  -1597696.182 3
  24641670.157    14605482.950 5   8084887.847 2
 94  2  1 21 55 30.0010000  0  8 19 29 27 31 22 18 28 14
  21365197.492   -11532229.457 8 -11020030.678 9
  21493383.230   -23813772.975 8  -9026438.463 8
  23013401.384    -6969226.322 6  -4957440.750 4
  23265772.101    -6712850.947 5  -5865978.195 2
  24791763.319      278732.551 4    133465.562
  20475675.015   -19706749.681 9 -14950695.089 9
  23691419.951    -2208293.039 5  -1608288.777 3
  24664121.374    14723476.443 5   8176830.551 2
 94  2  1 21 56  0.0010000  0  8 19 29 27 31 22 18 28 14
  21360915.766   -11554731.315 8 -11037564.576 9
  21503883.221   -23758616.889 8  -8983459.700 8
  23001945.954    -7029444.496 6  -5004363.939 4
  23253738.102    -6776040.908 4  -5915217.054 2
  24812813.217      389335.626 4    219649.581 1
  20475255.845   -19708947.255 9 -14952407.481 9
  23688933.772    -2221376.075 5  -1618483.392 3
  24686576.729    14841464.086 5   8268768.630 2
 94  2  1 21 56 30.0010000  0  8 19 29 27 31 22 18 28 14
  21356672.114   -11577028.765 8 -11054939.218 9
  21514452.584   -23703077.951 8  -8940182.606 8
  22990507.643    -7089541.175 7  -5051192.454 4
  23241782.139    -6838926.673 5  -5964218.848 2
  24833875.046      500021.481 4    305898.266 1
  20474917.470   -19710715.955 8 -14953785.678 9
  23686535.523    -2233951.146 5  -1628282.113 3
  24709019.941    14959442.685 5   8360699.744 2
 94  2  1 21 57  0.0010000  0  8 19 29 27 31 22 18 28 14
  21352469.863   -11599114.864 8 -11072149.138 9
  21525093.898   -23647169.028 8  -8896617.204 8
  22979092.505    -7149540.704 7  -5097945.263 5
  23229871.834    -6901503.644 5  -6012980.044 2
  24854951.985      610790.363 4    392211.625 1
  20474665.074   -19712058.203 9 -14954831.572 9
  23684236.594    -2246017.667 6  -1637684.568 3
  24731461.116    15077390.919 5   8452607.173 2
 94  2  1 21 57 30.0010000  0  8 19 29 27 31 22 18 28 14
  21348305.176   -11620970.550 8 -11089179.526 9
  21535805.422   -23590877.054 8  -8852753.332 8
  22967685.942    -7209454.334 6  -5144631.142 5
  23218028.084    -6963758.644 6  -6061490.268 2
  24876056.954      721638.799 4    478586.808 1
  20474493.383   -19712963.280 9 -14955536.832 9
  23682040.914    -2257571.507 6  -1646687.579 3
  24753913.023    15195295.987 5   8544480.940 2
 94  2  1 21 58  0.0010000  0  8 19 29 27 31 22 18 28 14
  21344194.422   -11642591.517 8 -11106027.003 9
  21546587.278   -23534199.470 8  -8808588.994 8
  22956304.201    -7269289.737 6  -5191256.103 5
  23206243.362    -7025682.382 5  -6109742.336 2
  24897145.015      832579.438 4    565034.061 1
  20474407.433   -19713406.694 9 -14955882.330 9
  23679947.703    -2268619.093 6  -1655296.114 3
  24776328.685    15313163.877 5   8636325.809 2
 94  2  1 21 58 30.0010000  0  8 19 29 27 31 22 18 28 14
  21340121.291   -11664001.270 8 -11122709.917 9
  21557445.551   -23477155.670 8  -8764139.262 8
  22944934.303    -7329048.036 7  -5237820.916 5
  23194517.430    -7087284.742 5  -6157744.016 2
  24918292.045      943595.578 4    651540.073 1
  20474407.792   -19713389.345 9 -14955868.801 9
  23677926.233    -2279189.007 5  -1663532.373 3
  24798751.422    15430989.490 3   8728137.719 2
 94  2  1 21 59  0.0010000  0  7 19 29 27 31 22 18 28
  21336084.166   -11685195.556 8 -11139224.927 9
  21568376.763   -23419708.165 8  -8719374.991 7
  22933585.389    -7388692.066 7  -5284296.736 5
  23182862.488    -7148557.560 5  -6205488.997 2
  24939422.197     1054684.892 4    738103.081 1
  20474503.066   -19712907.345 8 -14955493.217 9
  23676005.253    -2289273.233 5  -1671390.190 3
 94  2  1 21 59 30.0010000  0  7 19 29 27 31 22 18 28
  21332088.293   -11706183.984 8 -11155579.525 9
  21579387.061   -23361847.475 8  -8674288.734 7
  22922262.378    -7448194.677 7  -5330662.340 5
  23171258.542    -7209489.717 5  -6252968.458 2
  24960575.013     1165850.201 4    824725.236 1
  20474685.610   -19711961.827 8 -14954756.451 9
  23674178.767    -2298853.607 5  -1678855.379 3
 94  2  1 22  0  0.0010000  0  7 19 29 27 31 22 18 28
  21328133.341   -11726997.120 8 -11171797.505 9
  21590469.759   -23303596.019 8  -8628898.005 7
  22910963.470    -7507545.474 6  -5376909.652 5
  23159732.301    -7270099.361 6  -6300196.654 2
  24981745.517     1277076.485 4    911394.997 1
  20474948.258   -19710562.101 9 -14953665.736 9
  23672456.489    -2307929.453 5  -1685927.443 3
 94  2  1 22  0 30.0010000  0  7 19 29 27 31 22 18 28
  21324199.584   -11747657.571 8 -11187896.534 9
  21601629.323   -23244957.184 8  -8583205.424 7
  22899704.974    -7566738.985 7  -5423034.368 5
  23148264.130    -7330384.823 5  -6347172.216 2
  25002926.154     1388357.690 4    998107.532 1
  20475301.504   -19708713.128 9 -14952224.983 9
  23670836.231    -2316487.169 6  -1692595.755 3
 94  2  1 22  1  0.0010000  0  7 19 29 27 31 22 18 28
  21320297.185   -11768162.114 8 -11203874.068 9
  21612864.675   -23185922.530 8  -8537204.394 7
  22888465.455    -7625779.401 6  -5469039.801 5
  23136853.939    -7390324.655 5  -6393878.464 2
  25024106.851     1499709.469 4   1084875.071 1
  20475736.712   -19706408.457 8 -14950429.132 9
  23669306.780    -2324500.933 6  -1698840.214 3
 94  2  1 22  1 30.0010000  0  7 19 29 27 31 22 18 28
  21316426.685   -11788505.344 8 -11219725.898 9
  21624168.829   -23126511.384 8  -8490909.982 7
  22877252.438    -7684685.270 7  -5514940.412 5
  23125504.486    -7449900.154 5  -6440300.869 2
  25045305.596     1611131.765 4   1171697.576 1
  20476265.696   -19703645.761 9 -14948276.389 9
  23667885.314    -2331969.881 6  -1704660.113 3
 94  2  1 22  2  0.0010000  0  7 19 29 27 31 22 18 28
  21312586.493   -11808674.235 8 -11235441.900 9
  21635543.285   -23066733.438 8  -8444329.777 7
  22866065.172    -7743484.639 6  -5560758.036 5
  23114232.410    -7509122.412 5  -6486448.021 3
  25066526.195     1722613.612 4   1258566.553 1
  20476882.429   -19700418.318 9 -14945761.498 9
  23666569.015    -2338914.413 6  -1710071.372 3
 94  2  1 22  2 30.0010000  0  7 19 29 27 31 22 18 28
  21308792.260   -11828623.735 8 -11250986.929 9
  21646994.008   -23006567.687 8  -8397447.400 7
  22854896.225    -7802172.460 7  -5606488.704 5
  23103054.078    -7567969.939 5  -6532303.186 3
  25087751.981     1834167.363 4   1345491.487 1
  20477579.297   -19696720.723 9 -14942880.249 9
  23665347.481    -2345320.104 6  -1715062.772 3
 94  2  1 22  3  0.0010000  0  7 19 29 27 31 22 18 28
  21305043.745   -11848325.782 8 -11266339.158 9
  21658512.874   -22946026.085 7  -8350272.130 7
  22843751.410    -7860755.709 6  -5652137.923 5
  23091915.739    -7626447.262 5  -6577869.883 2
  25108982.953     1945779.121 3   1432461.607 1
  20478377.164   -19692561.580 9 -14939639.355 9
  23664227.606    -2351207.071 6  -1719649.955 3
 94  2  1 22  3 30.0010000  0  6 19 29 27 31 18 28
  21301347.454   -11867769.189 8 -11281489.826 9
  21670106.477   -22885109.023 8  -8302804.311 7
  22832625.332    -7919223.715 7  -5697697.374 5
  23080850.969    -7684572.683 6  -6623162.378 2
  20479253.518   -19687938.310 9 -14936036.804 9
  23663196.830    -2356584.133 5  -1723839.854 3
 94  2  1 22  4  0.0010000  0  6 19 29 27 31 18 28
  21297690.706   -11886969.229 8 -11296450.888 9
  21681774.250   -22823802.593 8  -8255033.087 7
  22821521.409    -7977560.706 7  -5743154.702 5
  23069857.430    -7742359.679 5  -6668191.161 2
  20480218.430   -19682854.262 8 -14932075.204 9
  23662275.987    -2361447.865 6  -1727629.719 3
 94  2  1 22  4 30.0010000  0  6 19 29 27 31 18 28
  21294078.986   -11905942.455 8 -11311235.185 9
  21693509.956   -22762100.966 8  -8206953.916 7
  22810451.333    -8035756.714 7  -5788502.182 5
  23058923.400    -7799802.103 6  -6712951.482 2
  20481273.849   -19677325.609 8 -14927767.146 9
  23661451.138    -2365794.598 6  -1731016.736 3
 94  2  1 22  5  0.0010000  0  6 19 29 27 31 18 28
  21290506.509   -11924720.216 8 -11325867.180 9
  21705330.412   -22700003.630 8  -8158566.396 7
  22799402.722    -8093815.637 7  -5833742.863 5
  23048069.054    -7856898.787 6  -6757442.334 2
  20482410.362   -19671353.073 8 -14923113.218 9
  23660717.846    -2369636.655 6  -1734010.490 3
 94  2  1 22  5 30.0010000  0  6 19 29 27 31 18 28
  21286965.420   -11943323.840 8 -11340363.479 9
  21717229.295   -22637500.514 8  -8109862.690 7
  22788378.754    -8151736.790 7  -5878876.158 5
  23037259.047    -7913647.571 6  -6801662.121 3
  20483633.336   -19664932.325 9 -14918110.039 9
  23660086.513    -2372966.822 6  -1736605.366 3
 94  2  1 22  6  0.0010000  0  6 19 29 27 31 18 28
  21283456.080   -11961766.229 8 -11354734.169 9
  21729192.543   -22574602.091 7  -8060850.969 7
  22777378.529    -8209539.902 7  -5923917.498 5
  23026534.152    -7970039.208 5  -6845603.618 3
  20484936.474   -19658081.449 9 -14912771.698 9
  23659539.961    -2375792.993 5  -1738807.567 3
 94  2  1 22  6 30.0010000  0  6 19 29 27 31 18 28
  21279980.886   -11980027.629 8 -11368963.802 9
  21741241.772   -22511309.236 7  -8011531.869 7
  22766398.450    -8267233.822 6  -5968873.700 5
  23015879.288    -8026050.570 6  -6889248.771 3
  20486320.346   -19650788.932 9 -14907089.216 9
  23659099.236    -2378109.038 5  -1740612.279 3
 94  2  1 22  7  0.0010000  0  6 19 29 27 31 18 28
  21276539.808   -11998118.452 8 -11383060.514 9
  21753355.995   -22447626.618 7  -7961909.064 7
  22755441.965    -8324812.654 7  -6013740.309 5
  23005289.210    -8081675.291 6  -6932592.591 2
  20487797.453   -19643037.381 9 -14901049.041 9
  23658756.544    -2379900.269 5  -1742008.019 3
 94  2  1 22  7 30.0010000  0  6 19 29 27 31 18 28
  21273131.617   -12016051.841 9 -11397034.567 9
  21765547.865   -22383570.229 8  -7911995.033 7
  22744504.607    -8382288.899 6  -6058526.946 5
  22994780.884    -8136923.597 7  -6975643.145 2
  20489360.871   -19634834.491 9 -14894657.164 9
  23658510.984    -2381159.893 5  -1742989.548 3
 94  2  1 22  8  0.0010000  0  6 19 29 27 31 18 28
  21269749.479   -12033809.084 8 -11410871.366 9
  21777804.909   -22319134.767 7  -7861785.606 7
  22733589.883    -8439655.075 7  -6103227.846 5
  22984333.927    -8191776.486 6  -7018385.542 2
  20491007.091   -19626165.726 8 -14887902.279 9
  23658392.386    -2381873.694 6  -1743545.774 3
 94  2  1 22  8 30.0010000  0  6 19 29 27 31 18 28
  21266399.898   -12051390.749 8 -11424571.338 9
  21790140.889   -22254328.516 7  -7811287.220 7
  22722696.804    -8496897.690 7  -6147832.410 5
  22973975.048    -8246224.351 6  -7060812.340 2
  20492753.982   -19617010.576 9 -14880768.395 9
  23658347.657    -2382034.121 5  -1743670.743 3
 94  2  1 22  9  0.0010000  0  6 19 29 27 31 18 28
  21263088.390   -12068799.708 8 -11438136.749 9
  21802539.496   -22189166.705 7  -7760511.842 7
  22711830.467    -8554013.977 7  -6192338.544 5
  22963695.614    -8300279.690 6  -7102933.301 2
  20494580.707   -19607378.174 9 -14873262.614 9
  23658427.881    -2381654.135 6  -1743374.617 3
 94  2  1 22  9 30.0010000  0  6 19 29 27 31 18 28
  21259813.038   -12086005.008 8 -11451543.463 9
  21815009.093   -22123652.333 8  -7709461.694 7
  22700980.348    -8611014.432 6  -6236754.468 5
  22953478.418    -8353943.099 6  -7144748.854 3
  20496505.764   -19597281.383 8 -14865394.999 9
  23658596.604    -2380751.704 6  -1742671.410 3
 94  2  1 22 10  0.0010000  0  6 19 29 27 31 18 28
  21256581.755   -12102987.610 8 -11464776.632 9
  21827547.403   -22057784.427 8  -7658136.087 7
  22690152.954    -8667896.225 7  -6281077.888 5
  22943335.809    -8407209.591 6  -7186255.132 3
  20498516.292   -19586717.284 8 -14857163.220 9
  23658869.625    -2379336.379 6  -1741568.515 3
 94  2  1 22 10 30.0010000  0  6 19 29 27 31 18 28
  21253392.802   -12119747.910 8 -11477836.598 9
  21840145.642   -21991551.957 8  -7606526.409 7
  22679353.860    -8724658.069 7  -6325307.833 5
  22933284.697    -8460082.158 6  -7227454.481 3
  20500618.197   -19575687.839 9 -14848568.830 9
  23659242.058    -2377413.311 6  -1740069.999 3
 94  2  1 22 11  0.0010000  0  6 19 29 27 31 18 28
  21250246.540   -12136282.875 9 -11490720.976 9
  21852820.567   -21924931.834 7  -7554614.621 7
  22668572.394    -8781306.768 7  -6369449.630 5
  22923292.285    -8512572.753 6  -7268356.132 3
  20502799.337   -19564206.869 9 -14839622.633 9
  23659702.629    -2374995.822 5  -1738186.226 3
 94  2  1 22 11 30.0010000  0  6 19 29 27 31 18 28
  21247142.160   -12152608.330 9 -11503442.095 9
  21865578.835   -21857908.913 8  -7502388.975 7
  22657811.374    -8837845.280 6  -6413505.572 5
  22913379.378    -8564678.678 6  -7308958.049 3
  20505067.267   -19552275.742 9 -14830325.632 9
  23660249.840    -2372081.274 5  -1735915.123 3
 94  2  1 22 12  0.0010000  0  6 19 29 27 31 18 28
  21244072.285   -12168741.914 8 -11516013.705 9
  21878408.303   -21790478.370 8  -7449845.737 7
  22647079.673    -8894260.652 7  -6457465.554 5
  22903534.673    -8616389.403 6  -7349252.026 3
  20507428.553   -19539879.363 9 -14820666.108 9
  23660910.702    -2368660.881 6  -1733249.887 3
 94  2  1 22 12 30.0010000  0  6 19 29 27 31 18 28
  21241037.965   -12184684.671 8 -11528436.616 9
  21891316.077   -21722628.361 7  -7396975.606 7
  22636366.739    -8950538.189 6  -6501318.101 5
  22893768.424    -8667691.111 6  -7389227.303 3
  20509876.028   -19527014.391 9 -14810641.451 9
  23661660.154    -2364726.441 6  -1730184.124 3
 94  2  1 22 13  0.0010000  0  6 19 29 27 31 18 28
  21238041.090   -12200434.346 9 -11540709.071 9
  21904308.303   -21654370.113 7  -7343787.353 7
  22625689.871    -9006661.320 7  -6545050.378 5
  22884093.042    -8718566.775 6  -7428870.658 3
  20512415.450   -19513679.905 9 -14800250.941 9
  23662500.082    -2360257.797 6  -1726702.025 3
 94  2  1 22 13 30.0010000  0  6 19 29 27 31 18 28
  21235077.911   -12215993.126 9 -11552832.775 9
  21917373.408   -21585724.776 7  -7290297.520 6
  22615039.744    -9062630.529 7  -6588662.698 5
  22874490.899    -8769007.062 6  -7468174.706 4
  20515040.013   -19499866.542 8 -14789487.274 9
  23663465.354    -2355230.715 6  -1722784.798 3
 94  2  1 22 14  0.0010000  0  6 19 29 27 31 18 28
  21232155.834   -12231361.988 8 -11564808.489 9
  21930504.977   -21516710.250 7  -7236519.990 6
  22604414.200    -9118446.527 6  -6632155.643 5
  22864974.468    -8819018.020 6  -7507144.234 4
  20517761.110   -19485571.694 9 -14778348.443 9
  23664520.204    -2349642.837 5  -1718430.581 3
 94  2  1 22 14 30.0010000  0  6 19 29 27 31 18 28
  21229268.084   -12246537.269 9 -11576633.375 9
  21943706.068   -21447322.938 7  -7182451.982 6
  22593826.040    -9174119.886 7  -6675537.428 5
  22855548.633    -8868608.239 6  -7545785.909 4
  20520570.944   -19470801.308 8 -14766839.053 9
  23665696.080    -2343487.679 5  -1713634.333 3
 94  2  1 22 15  0.0010000  0  6 19 29 27 31 18 28
  21226411.601   -12261525.913 9 -11588312.799 9
  21956980.669   -21377574.524 7  -7128102.571 6
  22583253.109    -9229669.469 7  -6718822.798 6
  22846185.125    -8917790.177 6  -7584109.427 4
  20523480.460   -19455542.503 9 -14754949.062 9
  23666976.943    -2336762.386 6  -1708393.832 3
 94  2  1 22 15 30.0010000  0  6 19 29 27 31 18 28
  21223599.788   -12276323.113 9 -11599843.044 9
  21970326.559   -21307454.033 7  -7073463.253 6
  22572704.762    -9285092.784 7  -6762009.787 6
  22836902.621    -8966565.784 6  -7622116.331 4
  20526478.505   -19439773.930 9 -14742661.856 9
  23668360.035    -2329476.021 5  -1702716.127 3
 94  2  1 22 16  0.0010000  0  6 19 29 27 31 18 28
  21220818.583   -12290920.069 8 -11611217.272 9
  21983742.272   -21236955.355 7  -7018529.237 6
  22562188.282    -9340384.779 7  -6805094.405 6
  22827701.421    -9014923.947 6  -7659797.950 4
  20529579.048   -19423500.384 8 -14729981.175 9
  23669849.704    -2321641.553 6  -1696611.329 3
 94  2  1 22 16 30.0010000  0  7 19 29 27 31 18 28  2
  21218085.855   -12305309.658 9 -11622429.913 9
  21997227.266   -21166091.047 7  -6963310.305 6
  22551687.841    -9395556.163 7  -6848085.043 6
  22818582.124    -9062844.512 6  -7697138.595 4
  20532766.442   -19406720.481 8 -14716905.902 9
  23671440.972    -2313272.177 6  -1690089.755 3
  24840092.892   -20252248.01714   -179006.326
 94  2  1 22 17  0.0010000  0  7 19 29 27 31 18 28  2
  21215383.496   -12319498.464 9 -11633486.095 9
  22010779.115   -21094875.459 7  -6907817.689 6
  22541211.174    -9450596.550 7  -6890973.587 6
  22809544.401    -9110309.713 6  -7734124.438 4
  20536057.623   -19389432.076 9 -14703434.428 9
  23673138.757    -2304378.395 6  -1683159.534 3
  24823087.644   -20341477.253 3   -248535.506
 94  2  1 22 17 30.0010000  0  7 19 29 27 31 18 28  2
  21212719.660   -12333483.182 9 -11644383.249 9
  22024393.470   -21023312.893 7  -6852054.700 6
  22530764.366    -9505510.459 7  -6933763.628 6
  22800599.463    -9157309.288 7  -7770747.472 4
  20539438.353   -19371662.979 9 -14689588.380 9
  23674928.128    -2294968.856 6  -1675827.358 3
  24806146.792   -20430565.514 3   -317954.705 1
 94  2  1 22 18  0.0010000  0  7 19 29 27 31 18 28  2
  21210095.396   -12347256.416 9 -11655115.625 9
  22038078.276   -20951399.848 7  -6796018.570 6
  22520332.009    -9560311.629 6  -6976465.818 6
  22791748.991    -9203840.025 7  -7807005.118 4
  20542912.348   -19353424.098 9 -14675376.246 9
  23676815.202    -2285027.794 6  -1668081.058 3
  24789228.334   -20519517.947 4   -387267.967 1
 94  2  1 22 18 30.0010000  0  7 19 29 27 31 18 28  2
  21207518.980   -12360820.139 9 -11665684.720 9
  22051837.581   -20879122.532 7  -6739698.626 6
  22509928.821    -9614988.938 6  -7019071.482 6
  22782981.740    -9249913.263 6  -7842906.274 4
  20546474.542   -19334705.131 8 -14660790.037 9
  23678815.657    -2274535.814 6  -1659905.452 3
  24772309.667   -20608332.093 3   -456473.583 1
 94  2  1 22 19  0.0010000  0  7 19 29 27 31 18 28  2
  21204974.102   -12374181.792 9 -11676096.365 9
  22065658.912   -20806462.196 7  -6683080.184 6
  22499553.123    -9669538.334 7  -7061577.456 6
  22774295.553    -9295550.154 6  -7878467.456 4
  20550126.613   -19315510.809 9 -14645833.409 9
  23680918.042    -2263471.021 5  -1651283.523 3
  24755440.765   -20696994.828 3   -525561.204 1
 94  2  1 22 19 30.0010000  0  7 19 29 27 31 18 28  2
  21202476.981   -12387338.123 9 -11686348.061 9
  22079562.267   -20733409.391 7  -6626155.954 6
  22489191.337    -9723965.909 7  -7103988.515 6
  22765697.146    -9340758.377 6  -7913694.575 4
  20553862.927   -19295843.128 8 -14630507.954 9
  23683134.827    -2251823.862 5  -1642207.814 3
  24738615.963   -20785493.995 4   -594521.400 1
 94  2  1 22 20  0.0010000  0  7 19 29 27 31 18 28  2
  21200002.554   -12400304.011 9 -11696451.333 9
  22093537.003   -20659970.157 7  -6568930.621 6
  22478863.876    -9778263.210 7  -7146298.047 6
  22757171.408    -9385536.431 6  -7948586.491 4
  20557706.746   -19275688.872 9 -14614803.326 9
  23685467.602    -2239598.424 6  -1632681.491 3
  24721800.574   -20873829.692 4   -663354.245 1
 94  2  1 22 20 30.0010000  0  7 19 29 27 31 18 28  2
  21197575.554   -12413094.623 9 -11706418.021 9
  22107585.127   -20586154.663 7  -6511412.070 6
  22468552.065    -9832422.448 7  -7188499.997 6
  22748735.428    -9429871.457 6  -7983133.175 4
  20561628.391   -19255040.798 8 -14598713.923 9
  23687901.407    -2226810.655 6  -1622716.956 3
  24705033.601   -20962001.249 4   -732059.128 1
 94  2  1 22 21  0.0010000  0  7 19 29 27 31 18 28  2
  21195169.569   -12425715.458 9 -11716252.425 9
  22121696.388   -20511972.484 7  -6453607.809 6
  22458273.801    -9886457.178 7  -7230604.963 6
  22740388.337    -9473742.920 6  -8017318.652 4
  20565651.995   -19233906.541 8 -14582245.658 9
  23690434.354    -2213475.447 6  -1612326.001 3
  24688275.652   -21050008.321 4   -800635.918 1
 94  2  1 22 21 30.0010000  0  7 19 29 27 31 18 28  2
  21192801.839   -12438160.264 9 -11725949.671 9
  22135891.651   -20437426.912 7  -6395520.367 6
  22448013.554    -9940360.846 7  -7272607.763 6
  22732130.194    -9517143.558 6  -8051137.290 4
  20569766.677   -19212286.561 9 -14565398.931 9
  23693070.998    -2199611.535 6  -1601522.900 3
  24671550.951   -21137861.192 4   -869092.487 1
 94  2  1 22 22  0.0010000  0  7 19 29 27 31 18 28  2
  21190469.034   -12450422.289 9 -11735504.469 9
  22150142.945   -20362505.946 7  -6337140.468 6
  22437780.947    -9994130.171 7  -7314505.876 6
  22723953.954    -9560073.646 6  -8084589.250 4
  20573976.423   -19190171.008 8 -14548166.040 9
  23695809.452    -2185220.422 6  -1590309.007 3
  24654851.791   -21225554.159 3   -937424.559 2
 94  2  1 22 22 30.0010000  0  7 19 29 27 31 18 28  2
  21188173.403   -12462478.762 9 -11744899.110 9
  22164470.836   -20287194.383 7  -6278456.139 6
  22427577.811   -10047760.594 7  -7356295.753 6
  22715879.164    -9602533.965 6  -8117675.166 4
  20578275.236   -19167560.602 9 -14530547.527 9
  23698651.035    -2170298.379 5  -1578681.413 3
  24638205.485   -21313080.024 4  -1005626.380 2
 94  2  1 22 23  0.0010000  0  7 19 29 27 31 18 28  2
  21185923.730   -12474316.618 9 -11754123.403 9
  22178873.435   -20211485.478 7  -6219462.199 6
  22417396.739   -10101240.582 7  -7397968.434 6
  22707883.250    -9644531.227 7  -8150400.212 4
  20582675.051   -19144457.449 9 -14512545.082 9
  23701599.194    -2154834.423 6  -1566631.578 3
  24621580.495   -21400420.067 5  -1073683.336 2
 94  2  1 22 23 30.0010000  0  7 19 29 27 31 18 28  2
  21183710.572   -12485929.690 9 -11763172.536 9
  22193366.452   -20135381.243 7  -6160160.220 6
  22407251.553   -10154559.120 7  -7439515.310 6
  22699983.928    -9686064.641 6  -8182763.870 4
  20587171.847   -19120849.133 9 -14494148.971 9
  23704644.666    -2138821.351 6  -1554153.909 3
  24605008.267   -21487573.769 5  -1141595.179 2
 94  2  1 22 24  0.0010000  0  7 19 29 27 31 18 28  2
  21181540.135   -12497340.754 8 -11772064.258 9
  22207916.369   -20058910.420 7  -6100572.593 6
  22397135.206   -10207733.466 7  -7480949.779 6
  22692166.660    -9727138.511 6  -8214769.407 4
  20591753.066   -19096753.765 9 -14475373.388 9
  23707797.313    -2122265.774 6  -1541253.469 3
  24588453.488   -21574549.573 5  -1209368.367 2
 94  2  1 22 24 30.0010000  0  7 19 29 27 31 18 28  2
  21179406.632   -12508555.523 9 -11780803.031 9
  22222528.464   -19982105.870 7  -6040724.897 6
  22387040.684   -10260764.563 7  -7522272.649 6
  22684439.929    -9767741.137 6  -8246407.754 4
  20596425.511   -19072181.864 8 -14456226.446 9
  23711041.518    -2105167.175 5  -1527929.931 3
  24571942.958   -21661353.973 5  -1277007.896 2
 94  2  1 22 25  0.0010000  0  7 19 29 27 31 18 28  2
  21177303.948   -12519591.993 9 -11789402.893 9
  22237204.624   -19904986.627 7  -5980632.024 6
  22376977.371   -10313667.611 7  -7563495.737 6
  22676806.284    -9807861.919 6  -8277670.675 4
  20601198.987   -19047135.755 8 -14436710.003 9
  23714401.262    -2087525.044 6  -1514182.792 3
  24555451.045   -21747979.985 4  -1344508.481 2
 94  2  1 22 25 30.0010000  0  7 19 29 27 31 18 28  2
  21175245.093   -12530437.332 9 -11797853.778 9
  22251942.331   -19827551.498 7  -5920292.986 6
  22366927.938   -10366458.746 7  -7604631.657 6
  22669262.156    -9847480.035 6  -8308541.872 4
  20606050.738   -19021611.130 8 -14416820.669 9
  23717863.475    -2069332.161 6  -1500006.527 3
  24538998.315   -21834432.650 3  -1411874.059 2
 94  2  1 22 26  0.0010000  0  7 19 29 27 31 18 28  2
  21173217.117   -12541087.350 9 -11806152.477 9
  22266744.853   -19749788.679 7  -5859698.622 6
  22356903.927   -10419143.124 7  -7645684.378 6
  22661827.034    -9886591.896 7  -8339018.607 4
  20611001.630   -18995616.091 9 -14396564.820 9
  23721433.553    -2050593.832 6  -1485405.250 3
  24522581.800   -21920712.077 3  -1479104.519 2
 94  2  1 22 26 30.0010000  0  7 19 29 27 31 18 28  2
  21171227.784   -12551536.330 9 -11814294.523 9
  22281601.308   -19671681.552 7  -5798835.943 6
  22346893.198   -10471722.532 7  -7686655.284 6
  22654476.872    -9925195.638 6  -8369099.408 4
  20616036.945   -18969137.527 8 -14375932.179 9
  23725098.096    -2031308.450 6  -1470377.698 3
  24506192.326   -22006812.054 4  -1546195.296 2
 94  2  1 22 27  0.0010000  0  7 19 29 27 31 18 28  2
  21169275.805   -12561790.808 9 -11822285.000 9
  22296537.748   -19593196.810 7  -5737679.019 6
  22336911.818   -10524186.456 7  -7727536.223 6
  22647222.014    -9963304.884 6  -8398794.874 4
  20621169.541   -18942169.981 9 -14354918.490 9
  23728874.342    -2011478.370 6  -1454925.692 3
  24489844.044   -22092728.271 3  -1613142.769 1
 94  2  1 22 27 30.0010000  0  7 19 29 27 31 18 28  2
  21167366.307   -12571836.042 9 -11830112.424 9
  22311553.303   -19514314.902 7  -5676212.628 6
  22326958.378   -10576504.680 7  -7768303.641 6
  22640070.885   -10000929.578 6  -8428112.753 4
  20626395.194   -18914700.797 9 -14333513.933 9
  23732750.449    -1991093.434 6  -1439041.324 3
  24473513.779   -22178465.918 3  -1679951.083 1
 94  2  1 22 28  0.0010000  0  7 19 29 27 31 18 28  2
  21165489.816   -12581700.955 9 -11837799.361 9
  22326639.069   -19435036.505 7  -5614437.276 6
  22317037.406   -10628656.573 7  -7808941.461 6
  22632996.353   -10038087.285 6  -8457066.748 4
  20631718.099   -18886735.908 9 -14311723.104 9
  23736737.389    -1970168.550 5  -1422736.234 3
  24457238.406   -22264028.603 4  -1746623.210 1
 94  2  1 22 28 30.0010000  0  7 19 29 27 31 18 28  2
  21163640.876   -12591385.333 9 -11845345.587 9
  22341793.788   -19355363.146 7  -5552354.177 6
  22307142.786   -10680640.474 7  -7849448.343 6
  22626015.056   -10074779.226 6  -8485657.802 4
  20637137.057   -18858273.384 9 -14289544.521 9
  23740818.194    -1948695.444 5  -1406003.924 3
  24441005.244   -22349410.105 4  -1813154.246 1
 94  2  1 22 29  0.0010000  0  7 19 29 27 31 18 28  2
  21161837.475   -12600885.685 9 -11852748.443 9
  22357028.401   -19275305.587 7  -5489971.692 6
  22297280.304   -10732456.277 7  -7889824.264 6
  22619114.643   -10111006.045 6  -8513886.458 4
  20642646.073   -18829314.859 9 -14266979.429 9
  23745014.928    -1926673.337 6  -1388843.866 3
  24424786.262   -22434616.453 5  -1879548.661 1
 94  2  1 22 29 30.0010000  0  7 19 29 27 31 18 28  2
  21160064.982   -12610188.625 8 -11859997.467 9
  22372332.656   -19194888.925 7  -5427309.384 5
  22287451.548   -10784128.209 7  -7930088.055 6
  22612319.037   -10146751.097 7  -8541739.664 4
  20648248.325   -18799869.514 9 -14244034.999 9
  23749309.515    -1904104.725 6  -1371257.946 3
  24408603.286   -22519650.049 4  -1945808.403 1
 94  2  1 22 30  0.0010000  0  7 19 29 27 31 18 28  2
  21158333.710   -12619302.618 9 -11867099.264 9
  22387701.906   -19114125.642 7  -5364376.991 5
  22277637.243   -10835688.569 7  -7970264.883 6
  22605611.121   -10181997.141 7  -8569204.075 4
  20653941.864   -18769951.815 9 -14220722.502 9
  23753699.016    -1880995.070 5  -1353250.410 3
  24392450.288   -22604508.573 4  -2011931.745 1
 94  2  1 22 30 30.0010000  0  7 19 29 27 31 18 28  2
  21156637.065   -12628204.660 9 -11874035.910 9
  22403134.113   -19033029.045 7  -5301184.866 5
  22267846.770   -10887149.725 7  -8010364.441 6
  22599001.986   -10216735.548 7  -8596272.897 4
  20659727.708   -18739546.947 9 -14197030.397 9
  23758211.912    -1857323.082 6  -1334804.715 3
  24376341.660   -22689180.474 5  -2077909.680 1
 94  2  1 22 31  0.0010000  0  7 19 29 27 31 18 28  2
  21154980.951   -12636893.989 8 -11880806.781 9
  22418625.618   -18951606.241 7  -5237738.539 6
  22258072.817   -10938501.942 7  -8050379.144 6
  22592484.558   -10250967.591 6  -8622947.173 4
  20665608.077   -18708652.070 9 -14172956.451 9
  23762819.452    -1833087.004 6  -1315919.446 4
  24360272.844   -22773664.037 4  -2143740.857 1
 94  2  1 22 31 30.0010000  0  7 19 29 27 31 18 28  2
  21153368.218   -12645385.352 8 -11887423.406 9
  22434187.545   -18869854.780 7  -5174036.175 6
  22248323.986   -10989753.876 7  -8090315.664 6
  22586069.210   -10284687.423 7  -8649222.309 4
  20671578.024   -18677277.097 9 -14148508.430 9
  23767540.104    -1808295.248 5  -1296601.180 3
  24344222.945   -22857960.303 4  -2209426.206 1
 94  2  1 22 32  0.0010000  0  7 19 29 27 31 18 28  2
  21151783.695   -12653685.886 8 -11893891.339 9
  22449805.653   -18787768.087 7  -5110072.557 6
  22238588.106   -11040889.771 8  -8130161.764 6
  22579747.816   -10317894.774 6  -8675098.116 4
  20677640.547   -18645404.044 9 -14123672.285 9
  23772364.814    -1782946.812 5  -1276849.164 3
  24328216.876   -22942067.657 5  -2274964.248 1
 94  2  1 22 32 30.0010000  0  7 19 29 27 31 18 28  2
  21150248.278   -12661768.717 8 -11900189.602 9
  22465497.630   -18705327.131 7  -5045832.871 6
  22228888.321   -11091870.279 7  -8169886.774 6
  22573533.898   -10350577.615 7  -8700565.215 4
  20683806.559   -18613001.538 9 -14098423.576 9
  23777293.882    -1757027.549 5  -1256652.303 3
  24312248.670   -23025965.541 5  -2340339.045 1
 94  2  1 22 33  0.0010000  0  7 19 29 27 31 18 28  2
  21148753.423   -12669648.596 9 -11906329.753 9
  22481249.445   -18622525.121 7  -4981311.872 6
  22219211.230   -11142702.710 7  -8209496.401 6
  22567405.151   -10382735.209 6  -8725623.009 4
  20690067.574   -18580085.046 8 -14072774.358 9
  23782321.821    -1730569.444 4  -1236035.630 3
  24296314.731   -23109664.356 4  -2405558.865 1
 94  2  1 22 33 30.0010000  0  7 19 29 27 31 18 28  2
  21147288.277   -12677332.545 8 -11912317.248 9
  22497076.058   -18539364.920 7  -4916511.737 5
  22209566.217   -11193393.803 7  -8248995.916 6
  22561390.145   -10414359.073 6  -8750264.948 4
  20696434.477   -18546651.070 9 -14046721.891 9
  23787450.611    -1703575.927 5  -1215001.710 3
  24280431.637   -23193159.972 4  -2470620.215 1
 94  2  1 22 34  0.0010000  0  7 19 29 27 31 18 28  2
  21145865.372   -12684817.568 9 -11918149.696 9
  22512969.196   -18455863.512 7  -4851445.755 5
  22199951.573   -11243935.807 8  -8288379.222 7
  22555473.381   -10445467.420 6  -8774505.160 5
  20702893.355   -18512707.535 8 -14020272.388 9
  23792700.666    -1676046.718 5  -1193550.424 3
  24264590.094   -23276452.613 5  -2535523.487 2
 94  2  1 22 34 30.0010000  0  7 19 29 27 31 18 28  2
  21144479.342   -12692095.375 9 -11923820.702 9
  22528920.373   -18372013.912 7  -4786108.454 5
  22190360.523   -11294322.524 7  -8327641.598 6
  22549653.240   -10476055.058 7  -8798339.655 5
  20709448.077   -18478255.497 8 -13993426.657 9
  23798045.366    -1647968.967 6  -1171671.647 3
  24248780.748   -23359523.203 5  -2600253.752 2
 94  2  1 22 35  0.0010000  0  7 19 29 27 31 18 28  2
  21143132.254   -12699182.570 9 -11929343.167 9
  22544945.989   -18287819.294 7  -4720502.264 6
  22180798.433   -11344574.293 7  -8366798.785 6
  22543930.382   -10506128.240 6  -8821773.259 5
  20716098.224   -18443311.850 8 -13966197.823 9
  23803488.638    -1619348.869 5  -1149370.268 3
  24233013.074   -23442386.468 5  -2664822.521 2
 94  2  1 22 35 30.0010000  0  7 19 29 27 31 18 28  2
  21141815.206   -12706084.796 8 -11934721.507 9
  22561024.848   -18203294.659 7  -4654638.947 5
  22171261.345   -11394693.677 8  -8405852.827 7
  22538302.648   -10535696.066 6  -8844813.113 5
  20722842.954   -18407888.549 8 -13938595.267 9
  23809042.923    -1590175.954 5  -1126638.117 3
  24217287.191   -23525060.894 6  -2729244.058 2
 94  2  1 22 36  0.0010000  0  7 19 29 27 31 18 28  2
  21140542.527   -12712790.118 8 -11939946.425 9
  22577180.663   -18118429.241 7  -4588510.059 5
  22161751.029   -11444672.448 7  -8444797.280 7
  22532772.856   -10564743.084 7  -8867447.100 5
  20729667.610   -18371981.878 8 -13910616.036 9
  23814708.041    -1560438.446 6  -1103465.982 3
  24201582.803   -23607547.244 5  -2793519.056 2
 94  2  1 22 36 30.0010000  0  7 19 29 27 31 18 28  2
  21139299.977   -12719300.550 8 -11945019.470 9
  22593393.049   -18033214.083 7  -4522108.644 5
  22152260.799   -11494518.160 7  -8483638.069 7
  22527348.531   -10593256.240 7  -8889665.077 4
  20736594.944   -18335586.771 8 -13882256.189 9
  23820460.818    -1530134.748 5  -1079852.724 3
  24185917.808   -23689855.858 4  -2857655.569 2
 94  2  1 22 37  0.0010000  0  7 19 29 27 31 18 28  2
  21138102.936   -12725611.328 9 -11949936.954 9
  22609675.018   -17947641.152 7  -4455428.480 5
  22142808.703   -11544218.562 7  -8522365.632 7
  22522024.007   -10621220.570 7  -8911455.410 4
  20743617.702   -18298698.482 8 -13853512.079 9
  23826348.472    -1499262.052 5  -1055796.059 3
  24170291.755   -23771982.534 5  -2921650.304 2
 94  2  1 22 37 30.0010000  0  7 19 29 27 31 18 28  2
  21136937.673   -12731717.861 8 -11954695.281 9
  22626024.439   -17861724.364 7  -4388480.377 5
  22133382.328   -11593767.361 7  -8560975.062 7
  22516806.779   -10648623.614 6  -8932808.415 5
  20750732.227   -18261312.091 8 -13824379.818 9
  23832328.282    -1467823.130 5  -1031298.249 3
  24154704.796   -23853905.348 5  -2985486.221 2
 94  2  1 22 38  0.0010000  0  7 19 29 27 31 18 28  2
  21135815.579   -12737624.178 9 -11959297.599 9
  22642439.635   -17775469.607 7  -4321268.924 5
  22123982.636   -11643164.816 8  -8599466.556 7
  22511705.391   -10675462.565 6  -8953721.821 5
  20757940.137   -18223427.042 8 -13794858.995 9
  23838404.806    -1435832.725 5  -1006370.659 4
  24139155.520   -23935602.409 5  -3049146.285 2
 94  2  1 22 38 30.0010000  0  7 19 29 27 31 18 28  2
  21134725.474   -12743333.614 8 -11963746.506 9
  22658920.066   -17688877.455 7  -4253794.524 5
  22114608.005   -11692405.171 8  -8637835.624 7
  22506697.837   -10701748.258 6  -8974204.135 5
  20765243.651   -18185043.925 8 -13764950.062 9
  23844606.642    -1403304.428 5   -981023.941 3
  24123660.567   -24017056.568 5  -3112616.934 3
 94  2  1 22 39  0.0010000  0  7 19 29 27 31 18 28  2
  21133681.597   -12748845.828 9 -11968041.747 9
  22675463.813   -17601954.079 7  -4186062.044 5
  22105270.340   -11741488.444 8  -8676082.329 6
  22501805.404   -10727487.398 7  -8994260.580 5
  20772641.510   -18146163.208 8 -13734653.412 9
  23850887.144    -1370256.721 5   -955272.559 3
  24108203.568   -24098255.501 5  -3175888.744 3
 94  2  1 22 39 30.0010000  0  7 19 29 27 31 18 28  2
  21132669.407   -12754164.159 9 -11972185.874 9
  22692063.681   -17514710.916 7  -4118080.361 5
  22095958.876   -11790418.648 8  -8714209.735 7
  22497009.894   -10752686.384 7  -9013896.127 5
  20780138.090   -18106781.325 8 -13703966.241 9
  23857284.775    -1336688.907 6   -929115.764 3
  24092795.525   -24179217.771 5  -3238976.130 3
 94  2  1 22 40  0.0010000  0  7 19 29 27 31 18 28  2
  21131691.724   -12759291.766 9 -11976181.402 9
  22708725.157   -17427139.657 7  -4049843.081 5
  22086673.704   -11839180.909 7  -8752206.245 7
  22492313.435   -10777354.155 6  -9033117.726 5
  20787728.805   -18066893.383 8 -13672884.733 9
  23863773.244    -1302591.691 6   -902546.485 3
  24077430.652   -24259956.739 5  -3301889.580 3
 94  2  1 22 40 30.0010000  0  7 19 29 27 31 18 28  2
  21130757.451   -12764224.831 9 -11980025.349 9
  22725450.998   -17339237.986 7  -3981348.309 5
  22077427.055   -11887786.109 7  -8790080.417 7
  22487720.375   -10801497.535 6  -9051930.719 5
  20795413.325   -18026498.508 8 -13641408.206 9
  23870359.384    -1267972.800 6   -875570.692 3
  24062111.947   -24340489.475 5  -3364642.302 2
 94  2  1 22 41  0.0010000  0  7 19 29 27 31 18 28  2
  21129847.551   -12768961.086 8 -11983715.908 9
  22742243.273   -17251012.139 7  -3912600.941 5
  22068209.247   -11936242.839 8  -8827838.843 7
  22483232.662   -10825110.137 7  -9070330.092 5
  20803199.595   -17985602.861 8 -13609541.481 9
  23877050.422    -1232819.780 6   -848178.714 3
  24046816.026   -24420822.286 5  -3427239.232 2
 94  2  1 22 41 30.0010000  0  7 19 29 27 31 18 28  2
  21128985.618   -12773493.410 9 -11987247.582 9
  22759096.106   -17162453.663 6  -3843594.411 5
  22059020.248   -11984537.067 8  -8865470.680 7
  22478840.822   -10848173.959 7  -9088301.905 5
  20811074.693   -17944209.699 8 -13577287.058 9
  23883843.299    -1197095.308 5   -820341.474 3
  24031574.517   -24500947.301 5  -3489674.258 2
 94  2  1 22 42  0.0010000  0  7 19 29 27 31 18 28  2
  21128165.475   -12777817.765 9 -11990617.185 9
  22776011.146   -17073556.586 7  -3774323.999 5
  22049854.933   -12032683.218 7  -8902987.120 7
  22474561.825   -10870690.935 7  -9105847.553 5
  20819047.074   -17902331.624 9 -13544654.811 9
  23890754.175    -1160810.852 5   -792067.904 3
  24016373.840   -24580846.190 6  -3551933.018 2
 94  2  1 22 42 30.0010000  0  7 19 29 27 31 18 28  2
  21127381.188   -12781934.767 9 -11993825.208 9
  22792987.583   -16984330.177 6  -3704796.993 5
  22040717.319   -12080704.628 7  -8940406.329 7
  22470370.516   -10892658.891 6  -9122965.390 5
  20827102.647   -17859977.224 8 -13511651.383 9
  23897757.417    -1123965.329 5   -763357.119 3
  24001207.999   -24660518.538 6  -3614015.240 2
 94  2  1 22 43  0.0010000  0  7 19 29 27 31 18 28  2
  21126639.412   -12785842.021 9 -11996869.813 9
  22810031.474   -16894774.179 7  -3635013.118 5
  22031606.326   -12128596.645 7  -8977724.773 7
  22466301.643   -10914059.949 6  -9139641.537 5
  20835257.691   -17817132.455 9 -13478265.845 9
  23904885.312    -1086531.488 5   -734187.946 4
  23986091.774   -24739957.084 6  -3675915.287 3
 94  2  1 22 43 30.0010000  0  7 19 29 27 31 18 28  2
  21125937.568   -12789540.861 9 -11999752.019 9
  22827139.760   -16804887.823 7  -3564971.837 5
  22022512.032   -12176362.068 7  -9014944.561 7
  22462340.215   -10934888.601 7  -9155871.608 5
  20843503.453   -17773790.902 8 -13444493.207 9
  23912120.174    -1048530.978 5   -704577.136 4
  23971016.980   -24819174.505 5  -3737643.047 3
 94  2  1 22 44  0.0010000  0  7 19 29 27 31 18 28  2
  21125273.587   -12793027.469 9 -12002468.823 9
  22844299.850   -16714671.674 6  -3494673.576 5
  22013448.527   -12224008.035 7  -9052071.200 7
  22458483.355   -10955142.673 6  -9171653.984 5
  20851850.364   -17729934.641 9 -13410319.495 9
  23919448.630    -1009987.747 5   -674543.476 4
  23955975.283   -24898170.060 5  -3799197.943 3
 94  2  1 22 44 30.0010000  0  7 19 29 27 31 18 28  2
  21124648.550   -12796299.767 9 -12005018.642 9
  22861536.148   -16624129.823 7  -3424121.526 5
  22004401.989   -12271525.739 7  -9089097.953 7
  22454740.507   -10974812.198 7  -9186980.854 5
  20860292.220   -17685559.373 8 -13375741.371 9
  23926889.509     -970898.237 5   -644084.083 4
  23940991.267   -24976947.960 5  -3860583.176 3
 94  2  1 22 45  0.0010000  0  7 19 29 27 31 18 28  2
  21124058.678   -12799366.922 9 -12007408.614 9
  22878820.682   -16533258.989 6  -3353313.113 5
  21995389.749   -12318907.173 7  -9126018.510 7
  22451117.725   -10993898.764 7  -9201853.444 5
  20868836.965   -17640668.457 9 -13340761.437 9
  23934435.735     -931272.754 5   -613207.058 3
  23926041.606   -25055504.045 5  -3921795.571 3
 94  2  1 22 45 30.0010000  0  7 19 29 27 31 18 28  2
  21123522.650   -12802241.143 9 -12009648.245 9
  22896177.136   -16442067.118 6  -3282254.547 5
  21986400.562   -12366140.016 7  -9162823.305 7
  22447586.529   -11012416.501 7  -9216282.819 5
  20877474.825   -17595274.173 8 -13305389.276 9
  23942053.341     -891127.078 5   -581924.743 3
  23911141.921   -25133848.148 6  -3982842.809 4
 94  2  1 22 46  0.0010000  0  7 19 29 27 31 18 28  2
  21123007.486   -12804923.951 9 -12011738.720 9
  22913588.873   -16350567.623 6  -3210956.302 4
  21977440.395   -12413216.547 7  -9199506.261 7
  22444167.846   -11030379.243 7  -9230279.730 5
  20886205.441   -17549383.120 8 -13269630.009 9
  23949811.670     -850443.905 5   -550223.568 3
  23896277.851   -25211973.935 6  -4043719.907 4
 94  2  1 22 46 30.0010000  0  7 19 29 27 31 18 28  2
  21122536.063   -12807421.628 9 -12013684.966 9
  22931062.366   -16258753.497 6  -3139412.899 4
  21968519.141   -12460115.562 8  -9236050.908 7
  22440851.332   -11047785.434 7  -9243842.954 5
  20895035.618   -17502989.098 9 -13233478.824 9
  23957659.727     -809214.369 6   -518096.663 3
  23881450.716   -25289870.340 6  -4104418.217 4
 94  2  1 22 47  0.0010000  0  7 19 29 27 31 18 28  2
  21122090.211   -12809746.200 9 -12015496.291 9
  22948591.201   -16166635.201 6  -3067632.482 4
  21959626.967   -12506835.104 7  -9272455.702 7
  22437644.332   -11064656.662 6  -9256989.384 6
  20903957.411   -17456103.276 9 -13196944.420 9
  23965603.778     -767453.313 6   -485555.611 4
  23866672.416   -25367550.815 6  -4164948.370 4
 94  2  1 22 47 30.0010000  0  7 19 29 27 31 18 28  2
  21121683.843   -12811872.442 8 -12017153.098 9
  22966178.555   -16074214.370 6  -2995616.238 4
  21950771.577   -12553374.285 7  -9308720.009 7
  22434533.536   -11080991.654 6  -9269717.958 6
  20912968.093   -17408730.718 9 -13160030.742 9
  23973646.910     -725176.238 6   -452612.435 4
  23851934.080   -25445011.208 6  -4225306.956 4
 94  2  1 22 48  0.0010000  0  7 19 29 27 31 18 28  2
  21121319.924   -12813798.647 9 -12018654.019 9
  22983826.498   -15981482.375 6  -2923357.600 4
  21941947.726   -12599753.418 8  -9344859.539 7
  22431533.393   -11096781.500 6  -9282021.736 5
  20922078.187   -17360875.565 9 -13122741.012 9
  23981795.119     -682390.975 6   -419273.257 4
  23837222.604   -25522233.069 5  -4285479.721 4
 94  2  1 22 48 30.0010000  0  7 19 29 27 31 18 28  2
  21120994.200   -12815526.068 9 -12020000.051 9
  23001530.652   -15888433.066 6  -2850851.674 4
  21933148.847   -12645989.694 8  -9380887.767 7
  22428634.639   -11112017.332 7  -9293893.798 5
  20931275.699   -17312543.313 8 -13085079.534 9
  23990029.218     -639116.948 6   -385553.221 4
  23822571.807   -25599221.092 5  -4345470.284 4
 94  2  1 22 49  0.0010000  0  7 19 29 27 31 18 28  2
  21120704.331   -12817033.444 9 -12021174.630 9
  23019294.554   -15795067.386 6  -2778099.229 4
  21924371.493   -12692094.620 7  -9416813.663 7
  22425841.293   -11126683.752 7  -9305322.182 5
  20940562.280   -17263746.427 9 -13047055.984 9
  23998354.635     -595343.780 5   -351444.268 3
  23807973.233   -25675980.486 5  -4405282.700 4
 94  2  1 22 49 30.0010000  0  7 19 29 27 31 18 28  2
  21120451.875   -12818334.134 9 -12022188.144 9
  23037121.533   -15701393.446 6  -2705106.600 4
  21915623.520   -12738083.840 8  -9452649.367 8
  22423162.737   -11140772.636 6  -9316300.514 5
  20949933.523   -17214484.891 9 -13008670.372 9
  24006780.662     -551069.914 5   -316945.211 3
  23793410.904   -25752512.227 5  -4464917.676 3
 94  2  1 22 50  0.0010000  0  7 19 29 27 31 18 28  2
  21120242.440   -12819442.045 9 -12023051.440 9
  23055006.761   -15607419.790 6  -2631880.465 4
  21906899.109   -12783948.865 7  -9488388.323 8
  22420590.038   -11154273.765 7  -9326820.902 5
  20959401.029   -17164748.214 8 -12969914.510 9
  24015303.821     -506270.600 6   -282036.683 3
  23778896.423   -25828818.286 6  -4524376.876 3
 94  2  1 22 50 30.0010000  0  7 19 29 27 31 18 28  2
  21120068.591   -12820356.192 9 -12023763.736 9
  23072949.010   -15513166.875 6  -2558436.720 4
  21898191.158   -12829682.954 7  -9524025.223 8
  22418127.693   -11167197.193 6  -9336891.080 5
  20968952.956   -17114547.855 9 -12930797.374 9
  24023927.591     -460947.587 6   -246720.081 3
  23764405.355   -25904910.213 5  -4583669.155 3
 94  2  1 22 51  0.0010000  0  7 19 29 27 31 18 28  2
  21119930.476   -12821081.572 8 -12024328.959 9
  23090937.906   -15418634.559 6  -2484775.246 4
  21889514.804   -12875278.696 8  -9559554.341 8
  22415776.451   -11179542.423 6  -9346510.718 5
  20978596.560   -17063873.509 9 -12891310.895 9
  24032656.768     -415083.771 6   -210982.060 3
  23749973.016   -25980767.720 5  -4642778.794 3
 94  2  1 22 51 30.0010000  0  7 19 29 27 31 18 28  2
  21119833.074   -12821631.363 9 -12024757.344 9
  23108966.855   -15323844.032 6  -2410912.550 4
  21880866.242   -12920734.404 8  -9594974.350 7
  22413546.625   -11191315.508 7  -9355684.534 5
  20988332.050   -17012726.729 9 -12851456.269 9
  24041485.776     -368694.813 6   -174834.830 4
  23735584.657   -26056390.663 5  -4701705.675 3
 94  2  1 22 52  0.0010000  0  7 19 29 27 31 18 28  2
  21119759.265   -12821988.224 9 -12025035.407 9
  23127056.152   -15228790.250 6  -2336844.720 4
  21872246.369   -12966044.370 8  -9630280.784 8
  22411410.873   -11202523.336 7  -9364417.885 5
  20998153.191   -16961101.828 8 -12811229.081 9
  24050413.085     -321777.868 6   -138276.238 4
  23721238.508   -26131769.539 5  -4760442.406 4
 94  2  1 22 52 30.0010000  0  7 19 29 27 31 18 28  2
  21119729.765   -12822148.396 9 -12025160.209 9
  23145200.431   -15133450.814 6  -2262554.308 4
  21863651.739   -13011208.059 8  -9665473.218 8
  22409380.379   -11213157.932 7  -9372704.555 5
  21008070.356   -16908987.812 9 -12770620.775 9
  24059436.509     -274340.446 6   -101312.012 4
  23706934.121   -26206897.372 5  -4818983.459 3
 94  2  1 22 53  0.0010000  0  7 19 29 27 31 18 28  2
  21119730.785   -12822117.615 8 -12025136.197 9
  23163397.803   -15037825.466 6  -2188041.065 4
  21855084.660   -13056225.308 8  -9700551.556 8
  22407471.360   -11223215.156 7  -9380541.294 5
  21018081.865   -16856383.834 9 -12729630.678 9
  24068560.722     -226387.893 5    -63946.398 4
  23692691.581   -26281787.542 5  -4877339.368 3
 94  2  1 22 53 30.0010000  0  7 19 29 27 31 18 28  2
  21119777.073   -12821886.138 9 -12024955.818 9
  23181650.967   -14941909.681 7  -2113301.589 4
  21846546.271   -13101086.875 8  -9735508.602 8
  22405665.141   -11232695.784 6  -9387928.782 5
  21028184.301   -16803290.639 8 -12688259.378 9
  24077777.811     -177925.880 5    -26183.796 4
  23678479.979   -26356452.253 5  -4935519.565 3
 94  2  1 22 54  0.0010000  0  7 19 29 27 31 18 28  2
  21119860.685   -12821461.982 9 -12024625.307 9
  23199963.999   -14845684.617 7  -2038321.080 4
  21838037.861   -13145801.396 8  -9770351.064 8
  22403974.042   -11241595.686 6  -9394863.728 5
  21038379.103   -16749697.678 8 -12646498.634 9
  24087096.080     -128942.286 4     11985.198 3
  23664314.336   -26430887.717 6  -4993521.129 3
 94  2  1 22 54 30.0010000  0  7 19 29 27 31 18 28  2
  21119976.584   -12820860.235 9 -12024156.405 9
  23218331.564   -14749161.194 6  -1963108.079 3
  21829554.424   -13190377.238 8  -9805085.463 8
  22402389.968   -11249904.006 6  -9401337.730 5
  21048674.156   -16695620.249 9 -12604360.390 9
  24096528.241      -79442.143 5     50556.732 3
  23650200.797   -26505093.806 6  -5051343.986 3
 94  2  1 22 55  0.0010000  0  7 19 29 27 31 18 28  2
  21120124.082   -12820080.216 9 -12023548.579 9
  23236761.125   -14652351.533 6  -1887672.009 3
  21821096.020   -13234817.240 8  -9839713.994 8
  22400921.345   -11257628.013 7  -9407356.385 5
  21059053.690   -16641069.897 9 -12561853.648 9
  24106041.225      -29420.309 5     89534.772 2
  23636124.521   -26579070.021 6  -5108987.737 3
 94  2  1 22 55 30.0010000  0  7 19 29 27 31 18 28  2
  21120306.896   -12819120.033 9 -12022800.386 9
  23255222.045   -14555271.403 6  -1812025.256 3
  21812662.318   -13279134.194 8  -9874246.662 8
  22399571.020   -11264777.678 7  -9412927.508 6
  21069524.811   -16586041.873 9 -12518974.684 9
  24115664.773       21124.577 5    128920.427 2
  23622088.359   -26652809.741 6  -5166447.150 3
 94  2  1 22 56  0.0010000  0  7 19 29 27 31 18 28  2
  21120524.545   -12817967.080 9 -12021901.961 9
  23273737.976   -14457932.752 6  -1736177.002 4
  21804256.557   -13323315.061 8  -9908673.274 8
  22398307.664   -11271345.345 7  -9418045.139 6
  21080089.438   -16530540.495 9 -12475726.868 9
  24125383.804       72202.828 5    168721.706 2
  23608098.753   -26726303.254 5  -5223714.729 3
 94  2  1 22 56 30.0010000  0  7 19 29 27 31 18 28  2
  21120785.904   -12816608.258 9 -12020843.137 9
  23292321.391   -14360342.084 6  -1660132.405 4
  21795878.198   -13367339.806 8  -9942978.253 8
  22397168.843   -11277338.323 7  -9422714.965 6
  21090735.068   -16474582.684 8 -12432123.391 9
  24135203.027      123804.855 5    208931.060 2
  23594159.903   -26799544.909 5  -5280786.047 3
 94  2  1 22 57  0.0010000  0  7 19 29 27 31 18 28  2
  21121087.076   -12815026.325 9 -12019610.451 9
  23310940.931   -14262495.793 6  -1583888.561 4
  21787537.072   -13411187.228 8  -9977145.052 8
  22396143.283   -11282754.735 7  -9426935.500 5
  21101472.495   -16418157.285 8 -12388155.548 9
  24145125.587      175927.312 5    249545.987 2
  23580268.090   -26872536.889 6  -5337662.846 3
 94  2  1 22 57 30.0010000  0  7 19 29 27 31 18 28  2
  21121433.186   -12813203.583 9 -12018190.126 9
  23329609.877   -14164393.177 6  -1507445.053 4
  21779229.823   -13454844.905 8 -10011164.000 8
  22395222.440   -11287582.618 7  -9430697.482 5
  21112301.058   -16361258.658 8 -12343818.991 9
  24155139.285      228567.731 5    290564.474 2
  23566432.458   -26945269.866 6  -5394337.759 3
 94  2  1 22 58  0.0010000  0  7 19 29 27 31 18 28  2
  21121822.646   -12811161.382 9 -12016598.795 9
  23348322.713   -14066011.886 6  -1430784.342 4
  21770953.962   -13498310.886 8 -10045033.549 8
  22394416.958   -11291809.568 7  -9433991.190 5
  21123214.853   -16303903.314 8 -12299126.520 9
  24165242.471      281710.556 5    331974.441 2
  23552648.151   -27017738.194 6  -5450806.474 3
 94  2  1 22 58 30.0010000  0  7 19 29 27 31 18 28  2
  21122251.170   -12808906.904 9 -12014842.051 9
  23367110.856   -13967323.312 6  -1353884.244 3
  21762718.214   -13541594.718 8 -10078761.197 8
  22393729.144   -11295423.361 7  -9436807.103 5
  21134218.885   -16246078.025 8 -12254067.869 9
  24175454.661      335338.149 5    373762.124 3
  23538906.204   -27089938.938 6  -5507066.672 3
 94  2  1 22 59  0.0010000  0  7 19 29 27 31 18 28  2
  21122719.985   -12806442.186 9 -12012921.463 9
  23385948.645   -13868325.789 6  -1276743.337 3
  21754511.095   -13584710.246 8 -10112357.706 8
  22393160.438   -11298417.469 7  -9439140.139 5
  21145314.743   -16187768.675 8 -12208632.003 9
  24185749.534      389450.803 5    415927.819 3
  23525220.289   -27161879.777 6  -5563124.412 3
 94  2  1 22 59 30.0010000  0  7 19 29 27 31 18 28  2
  21123220.459   -12803791.411 9 -12010855.922 9
  23404847.411   -13769022.335 6  -1199364.093 3
  21746342.380   -13627680.024 8 -10145840.617 8
  22392704.153   -11300805.602 7  -9441000.971 6
  21156496.282   -16128983.036 8 -12162825.041 9
  24196145.257      444039.466 5    458464.473 3
  23511572.447   -27233562.736 5  -5618981.158 4
 94  2  1 23  0  0.0010000  0  7 19 29 27 31 18 28  2
  21123760.985   -12800975.950 9 -12008662.044 9
  23423799.241   -13669408.594 6  -1121743.082 3
  21738188.835   -13670509.753 8 -10179214.408 8
  22392365.898   -11302593.294 7  -9442393.995 6
  21167780.680   -16069721.447 8 -12116647.190 9
  24206618.357      499103.560 6    501371.543 3
  23497983.664   -27304990.668 6  -5674639.249 4
 94  2  1 23  0 30.0010000  0  7 19 29 27 31 18 28  2
  21124333.438   -12797967.077 9 -12006317.461 9
  23442812.858   -13569505.693 6  -1043896.752 3
  21730063.800   -13713197.669 8 -10212477.683 8
  22392133.798   -11303789.102 6  -9443325.765 6
  21179149.080   -16009973.533 8 -12070090.381 9
  24217190.538      554656.508 5    544659.506 3
  23484441.829   -27376172.222 6  -5730105.326 4
 94  2  1 23  1  0.0010000  0  8 19 29 27 31 16 18 28  2
  21124941.687   -12794753.787 9 -12003813.589 9
  23461879.089   -13469329.600 6   -965837.529 4
  21721969.583   -13755731.024 7 -10245620.544 8
  22392017.479   -11304401.992 6  -9443803.340 6
  24688560.695    -3028008.87215    -89335.840
  21190607.957   -15949749.009 9 -12023162.194 9
  24227856.704      610723.596 5    588348.106 3
  23470942.625   -27447098.636 6  -5785372.571 4
 94  2  1 23  1 30.0010000  0  8 19 29 27 31 16 18 28  2
  21125591.727   -12791339.477 9 -12001153.085 9
  23480986.901   -13368889.793 6   -887572.762 4
  21713906.395   -13798108.761 7 -10278642.141 8
  22392017.539   -11304433.927 7  -9443828.201 6
  24681458.552    -3065337.631 5   -118425.935
  21202155.573   -15889065.372 8 -11975876.261 9
  24238631.035      667304.568 5    632437.128 3
  23457490.607   -27517770.843 6  -5840441.764 4
 94  2  1 23  2  0.0010000  0  8 19 29 27 31 16 18 28  2
  21126283.019   -12787717.086 9 -11998330.457 9
  23500145.618   -13268198.711 6   -809112.219 4
  21705868.960   -13840331.409 8 -10311542.848 8
  22392111.854   -11303891.364 7  -9443405.390 5
  24674441.370    -3102185.888 5   -147138.831
  21213789.739   -15827930.363 8 -11928238.615 9
  24249491.556      724396.181 4    676924.063 3
  23444080.231   -27588200.157 5  -5895321.673 4
 94  2  1 23  2 30.0010000  0  8 19 29 27 31 16 18 28  2
  21127012.504   -12783876.138 9 -11995337.481 9
  23519360.336   -13167267.511 6   -730464.588 4
  21697868.338   -13882392.837 8 -10344317.948 8
  22392327.824   -11302772.156 7  -9442533.260 5
  24667515.894    -3138572.862 4   -175492.109 1
  21225507.337   -15766335.440 8 -11880242.568 9
  24260457.515      781985.535 5    721798.837 3
  23430727.415   -27658392.241 5  -5950016.708 4
 94  2  1 23  3  0.0010000  0  8 19 29 27 31 16 18 28  2
  21127780.962   -12779837.342 9 -11992190.361 9
  23538607.491   -13066090.521 6   -651625.407 3
  21689898.146   -13924284.587 8 -10376960.837 9
  22392654.298   -11301063.381 7  -9441201.707 5
  24660683.114    -3174485.268 4   -203475.837 1
  21237321.858   -15704269.941 9 -11831879.881 9
  24271502.349      840065.294 5    767055.734 3
  23417421.277   -27728331.032 5  -6004514.413 3
 94  2  1 23  3 30.0010000  0  8 19 29 27 31 16 18 28  2
  21128585.934   -12775613.075 9 -11988898.725 9
  23557910.858   -12964672.027 6   -572598.090 3
  21681955.475   -13966006.126 8 -10409471.087 9
  22393096.462   -11298755.005 6  -9439402.945 6
  24653928.790    -3209907.211 3   -231077.277 1
  21249222.629   -15641713.053 8 -11783134.257 9
  24282637.180      898621.270 5    812683.758 3
  23404163.345   -27798020.617 6  -6058817.934 3
 94  2  1 23  4  0.0010000  0  7 19 29 27 31 18 28  2
  21129425.203   -12771203.721 9 -11985462.862 9
  23577255.745   -12863017.099 6   -493386.519 3
  21674049.318   -14007550.078 8 -10441842.980 9
  22393653.057   -11295837.074 7  -9437129.242 6
  21261223.951   -15578649.523 8 -11733993.854 9
  24293879.427      957643.798 4    858675.327 2
  23390944.386   -27867468.690 6  -6112933.223 3
 94  2  1 23  4 30.0010000  0  7 19 29 27 31 18 28  2
  21130300.897   -12766611.480 9 -11981884.492 9
  23596629.204   -12761132.617 5   -413996.104 3
  21666178.117   -14048922.560 8 -10474081.239 9
  22394328.159   -11292303.275 6  -9434375.595 6
  21273321.386   -15515092.357 8 -11684468.812 9
  24305198.871     1017130.894 5    905028.917 2
  23377773.244   -27936675.909 5  -6166860.867 4
 94  2  1 23  5  0.0010000  0  7 19 29 27 31 18 28  2
  21131208.878   -12761834.613 9 -11978162.259 9
  23616069.965   -12659012.827 6   -334422.297 3
  21658333.238   -14090138.091 8 -10506197.192 9
  22395110.138   -11288158.422 6  -9431145.842 6
  21285503.902   -15451068.429 8 -11634580.047 9
  24316610.681     1077099.148 5    951757.460 2
  23364642.934   -28005643.521 6  -6220601.768 4
 94  2  1 23  5 30.0010000  0  7 19 29 27 31 18 28  2
  21132157.482   -12756852.586 9 -11974280.160 9
  23635552.757   -12556655.562 6   -254663.446 3
  21650519.477   -14131207.298 8 -10538199.157 9
  22396009.455   -11283405.372 6  -9427442.142 6
  21297772.969   -15386595.253 8 -11584341.215 9
  24328116.086     1137557.048 5    998867.486 2
  23351561.310   -28074384.794 6  -6274166.282 4
 94  2  1 23  6  0.0010000  0  7 19 29 27 31 18 28  2
  21133148.296   -12751645.796 9 -11970222.926 9
  23655079.799   -12454043.495 6   -174706.026 3
  21642728.651   -14172130.043 7 -10570086.974 9
  22397039.812   -11278043.428 7  -9423264.017 6
  21310123.069   -15321691.088 8 -11533766.558 9
  24339717.214     1198512.859 6   1046365.510 2
  23338528.583   -28142886.176 6  -6327543.892 4
 94  2  1 23  6 30.0010000  0  7 19 29 27 31 18 28  2
  21134174.216   -12746219.011 9 -11965994.245 9
  23674654.568   -12351173.049 6    -94547.289 3
  21634969.003   -14212917.847 8 -10601869.663 9
  22398174.287   -11272090.311 7  -9418625.212 6
  21322546.258   -15256377.599 9 -11482872.955 9
  24351407.651     1259969.933 6   1094254.107 2
  23325544.392   -28211129.834 6  -6380720.669 4
 94  2  1 23  7  0.0010000  0  7 19 29 27 31 18 28  2
  21135253.498   -12740570.846 8 -11961593.072 9
  23694273.286   -12248044.776 6    -14187.632 3
  21627235.766   -14253563.855 8 -10633541.889 9
  22399418.545   -11265547.685 7  -9413527.045 6
  21335060.045   -15190640.451 8 -11431649.205 9
  24363195.521     1321925.022 5   1142530.779 2
  23312611.495   -28279110.927 6  -6433692.900 4
 94  2  1 23  7 30.0010000  0  7 19 29 27 31 18 28  2
  21136372.234   -12734700.155 9 -11957018.502 9
  23713953.312   -12144663.406 6     66369.248 3
  21619531.760   -14294048.475 8 -10665088.328 9
  22400773.457   -11258404.942 7  -9407961.261 6
  21347654.746   -15124467.948 8 -11380086.219 9
  24375078.304     1384361.691 5   1191182.735 2
  23299726.565   -28346821.748 6  -6486454.456 4
 94  2  1 23  8  0.0010000  0  8 19 29 27 31 16 18 28  2
  21137529.733   -12728611.353 9 -11952273.981 9
  23733661.878   -12041025.943 5    147125.672 3
  21611858.452   -14334362.353 8 -10696501.716 9
  22402245.978   -11250660.299 7  -9401926.455 6
  24597604.323      296749.40114    -19987.345
  21360329.791   -15057856.912 8 -11328181.542 9
  24387050.067     1447269.543 5   1240201.793 2
  23286896.407   -28414248.850 6  -6538994.968 4
 94  2  1 23  8 30.0010000  0  8 19 29 27 31 16 18 28  2
  21138732.140   -12722302.082 9 -11947357.658 9
  23753443.114   -11937149.102 5    228068.604 2
  21604220.310   -14374510.716 8 -10727786.146 9
  22403842.672   -11242308.781 7  -9395418.784 6
  24591841.412      266444.403 5    -43601.480
  21373089.198   -14990795.918 8 -11275926.230 9
  24399105.141     1510647.250 4   1289587.008 2
  23274119.312   -28481399.262 6  -6591319.913 4
 94  2  1 23  9  0.0010000  0  8 19 29 27 31 16 18 28  2
  21139973.791   -12715768.360 9 -11942266.437 9
  23773249.202   -11833036.451 5    309195.340 2
  21596613.136   -14414481.927 8 -10758932.531 9
  22405541.087   -11233341.531 7  -9388431.331 6
  24586173.536      236678.014 4    -66795.783
  21385939.112   -14923277.893 8 -11223314.795 9
  24411256.809     1574489.753 4   1339334.360 2
  23261390.065   -28548277.938 6  -6643433.114 4
 94  2  1 23  9 30.0010000  0  8 19 29 27 31 16 18 28  2
  21141257.232   -12709030.235 9 -11937015.941 9
  23793105.866   -11728687.648 5    390505.999 2
  21589038.520   -14454279.245 8 -10789943.411 9
  22407370.210   -11223767.878 7  -9380971.328 6
  24580623.538      207448.442 4    -89571.738
  21398872.669   -14855309.712 8 -11170352.583 9
  24423497.215     1638789.620 4   1389438.108 2
  23248718.767   -28614887.194 6  -6695336.339 4
 94  2  1 23 10  0.0010000  0  8 19 29 27 31 16 18 28  2
  21142578.298   -12702091.924 9 -11931609.452 9
  23813011.665   -11624111.573 6    471993.777 2
  21581497.030   -14493913.829 8 -10820827.467 9
  22409301.353   -11213603.819 7  -9373051.271 6
  24575165.787      178760.937 4   -111925.658 1
  21411893.674   -14786892.271 9 -11117040.298 9
  24435798.629     1703550.768 4   1439901.339 2
  23236090.699   -28681229.803 6  -6747031.801 4
 94  2  1 23 10 30.0010000  0  8 19 29 27 31 16 18 28  2
  21143934.739   -12694957.629 9 -11926050.261 9
  23832952.091   -11519321.182 6    553648.587 2
  21573988.728   -14533384.513 8 -10851583.845 9
  22411340.812   -11202852.682 6  -9364673.727 6
  24569806.637      150602.494 4   -133867.247 1
  21424999.252   -14718018.307 8 -11063372.287 9
  24448233.300     1768772.844 4   1490723.673 2
  23223517.254   -28747309.142 7  -6798522.110 4
 94  2  1 23 11  0.0010000  0  8 19 29 27 31 16 18 28  2
  21145330.063   -12687640.654 9 -11920348.719 9
  23852933.498   -11414317.480 6    635469.595 2
  21566510.795   -14572665.708 8 -10882192.538 9
  22413504.923   -11191516.644 7  -9355840.450 6
  24564542.671      122952.179 4   -155412.892 1
  21438195.096   -14648681.990 8 -11009344.005 9
  24460731.708     1834457.471 4   1541906.446 2
  23210991.805   -28813126.063 6  -6849807.963 4
 94  2  1 23 11 30.0010000  0  8 19 29 27 31 16 18 28  2
  21146757.045   -12680121.149 9 -11914489.377 9
  23872958.255   -11309089.793 6    717465.122 3
  21559070.666   -14611747.337 8 -10912645.731 9
  22415775.312   -11179579.534 7  -9346538.818 6
  24559377.847       95814.920 3   -176558.816 1
  21451476.442   -14578859.114 8 -10954936.585 9
  24473318.284     1900620.954 5   1593462.397 2
  23198521.278   -28878667.577 6  -6900879.186 4
 94  2  1 23 12  0.0010000  0  8 19 29 27 31 16 18 28  2
  21148231.184   -12672381.660 9 -11908458.586 9
  23893019.467   -11203651.855 6    799624.516 3
  21551676.225   -14650633.083 8 -10942946.287 9
  22418158.062   -11167044.666 7  -9336771.378 6
  24554303.889       69186.539 3   -197308.178 1
  21464856.389   -14508559.304 8 -10900157.527 9
  24485998.396     1967260.939 3   1645389.695 2
  23186096.559   -28943942.097 6  -6951742.422 4
 94  2  1 23 12 30.0010000  0  8 19 29 27 31 16 18 28  2
  21149739.740   -12664427.667 9 -11902260.666 9
  23913120.971   -11097997.811 6    881952.302 3
  21544317.789   -14689312.980 8 -10973086.434 9
  22420666.096   -11153898.297 7  -9326527.421 6
  24549340.315       43062.772 4   -217664.324 2
  21478329.242   -14437778.462 8 -10845003.640 9
  24498779.238     2034367.684 3   1697680.546 2
  23173732.968   -29008946.797 6  -7002395.363 4
 94  2  1 23 13  0.0010000  0  8 19 29 27 31 16 18 28  2
  21151299.380   -12656258.845 9 -11895895.325 9
  23933269.932   -10992116.478 6    964457.171 3
  21536994.369   -14727795.122 8 -11003072.509 9
  22423281.066   -11140138.641 7  -9315805.628 6
  24544457.506       17447.567 4   -237624.167 2
  21491882.949   -14366534.057 8 -10789488.520 9
  24511637.996     2101930.297 4   1750326.692 2
  23161406.702   -29073683.872 6  -7052839.769 4
 94  2  1 23 13 30.0010000  0  8 19 29 27 31 16 18 28  2
  21152892.687   -12647861.428 9 -11889351.870 9
  23953469.078   -10886002.275 6   1047143.481 3
  21529698.620   -14766108.003 8 -11032926.677 9
  22426017.991   -11125760.948 7  -9304602.194 6
  24539683.221       -7646.251 4   -257177.658 2
  21505525.275   -14294853.708 8 -10733633.732 9
  24524561.270     2169945.079 3   1803325.188 2
  23149143.931   -29138145.196 6  -7103069.336 4
 94  2  1 23 14  0.0010000  0  8 19 29 27 31 16 18 28  2
  21154536.749   -12639256.793 9 -11882646.957 9
  23973704.110   -10779663.711 6   1130004.623 3
  21522439.445   -14804265.129 8 -11062659.489 9
  22428868.477   -11110774.781 7  -9292924.678 6
  24534995.936      -32236.166 4   -276338.622 2
  21519240.300   -14222760.717 8 -10677457.382 9
  24537605.239     2238403.180 3   1856669.120 2
  23136927.299   -29202340.499 6  -7153091.578 4
 94  2  1 23 14 30.0010000  0  8 19 29 27 31 16 18 28  2
  21156207.223   -12630459.235 9 -11875791.710 9
  23993974.487   -10673105.061 5   1213037.285 3
  21515205.783   -14842275.486 8 -11092277.904 9
  22431832.795   -11095184.094 7  -9280776.047 6
  24530421.822      -56338.579 4   -295119.599 2
  21533038.068   -14150262.810 8 -10620965.535 9
  24550716.693     2307307.765 3   1910361.002 2
  23124764.539   -29266264.826 6  -7202902.652 4
 94  2  1 23 15  0.0010000  0  8 19 29 27 31 16 18 28  2
  21157917.928   -12621464.598 9 -11868782.890 9
  24014288.994   -10566335.720 5   1296234.076 3
  21507997.004   -14880154.885 8 -11121794.320 9
  22434916.640   -11078997.533 7  -9268163.157 6
  24525931.411      -79942.124 4   -313511.999 2
  21546908.506   -14077379.376 8 -10564173.269 8
  24563903.603     2376668.880 3   1964408.498 2
  23112647.647   -29329920.888 6  -7252504.777 4
 94  2  1 23 15 30.0010000  0  7 19 29 27 31 16 18  2
  21159667.637   -12612271.991 9 -11861619.802 9
  24034658.122   -10459356.425 5   1379594.511 2
  21500816.554   -14917897.396 8 -11151204.036 9
  22438109.670   -11062216.396 7  -9255086.929 6
  24521526.980     -103029.697 4   -331502.262 2
  21560854.521   -14004093.698 8 -10507067.555 8
  23100585.467   -29393303.727 6  -7301893.952 4
 94  2  1 23 16  0.0010000  0  7 19 29 27 31 16 18  2
  21161457.218   -12602893.366 9 -11854311.779 9
  24055051.984   -10352174.007 6   1463113.125 2
  21493659.369   -14955493.068 8 -11180499.348 9
  22441412.184   -11044851.839 7  -9241556.080 6
  24517237.190     -125605.701 4   -349093.982 2
  21574881.480   -13930379.116 8 -10449627.625 8
  23088578.989   -29456418.303 6  -7351074.102 4
 94  2  1 23 16 30.0010000  0  7 19 29 27 31 16 18  2
  21163276.479   -12593324.614 8 -11846855.604 9
  24075480.981   -10244787.581 5   1546790.802 2
  21486535.911   -14992939.316 8 -11209678.230 9
  22444829.188   -11026898.299 7  -9227566.323 6
  24513030.862     -147652.150 3   -366273.058 2
  21588993.851   -13856229.001 8 -10391848.355 8
  23076617.300   -29519262.694 6  -7400043.696 5
 94  2  1 23 17  0.0010000  0  7 19 29 27 31 16 18  2
  21165134.772   -12583562.321 9 -11839248.616 9
  24095953.688   -10137191.565 5   1630631.795 2
  21479441.892   -15030223.807 8 -11238731.065 9
  22448359.424   -11008349.364 7  -9213112.612 6
  24508953.265     -169150.138 4   -383024.669 2
  21603183.867   -13781631.154 8 -10333720.177 8
  23064711.582   -29581843.130 6  -7448807.617 5
 94  2  1 23 17 30.0010000  0  7 19 29 27 31 16 18  2
  21167024.004   -12573605.789 9 -11831490.290 9
  24116479.009   -10029390.138 6   1714632.850 2
  21472376.263   -15067332.822 8 -11267647.172 9
  22452001.423   -10989196.184 7  -9198188.053 6
  24504952.085     -190111.611 3   -399358.177 2
  21617470.806   -13706570.696 8 -10275231.529 8
  23052849.544   -29644163.339 6  -7497368.770 5
 94  2  1 23 18  0.0010000  0  7 19 29 27 31 16 18  2
  21168959.105   -12563446.266 8 -11823573.764 9
  24137029.152    -9921401.991 5   1798779.467 2
  21465352.396   -15104258.550 8 -11296420.420 9
  22455767.506   -10969426.151 7  -9182782.801 6
  24501078.286     -210550.246 3   -415284.321 2
  21631841.178   -13631062.341 8 -10216393.847 8
  23041042.098   -29706224.231 6  -7545727.850 5
 94  2  1 23 18 30.0010000  0  7 19 29 27 31 16 18  2
  21170941.812   -12553054.822 9 -11815476.530 9
  24157612.633    -9813222.191 5   1883075.319 2
  21458364.953   -15140979.439 8 -11325034.111 9
  22459641.154   -10949019.872 7  -9166881.853 6
  24497297.124     -230447.983 4   -430789.102 2
  21646291.744   -13555116.741 8 -10157215.479 8
  23029282.769   -29768015.565 6  -7593876.872 5
 94  2  1 23 19  0.0010000  0  7 19 29 27 31 16 18  2
  21172964.781   -12542414.588 9 -11807185.434 9
  24178231.399    -9704855.815 5   1967516.598 2
  21451416.873   -15177482.049 8 -11353477.690 9
  22463655.735   -10927982.795 7  -9150489.329 6
  24493611.116     -249805.595 4   -445872.819 2
  21660823.164   -13478747.922 8 -10097707.311 8
  23017574.735   -29829534.415 7  -7641813.577 5
 94  2  1 23 19 30.0010000  0  7 19 29 27 31 16 18  2
  21175035.718   -12531517.037 9 -11798693.841 9
  24198883.262    -9596302.877 5   2052103.296 2
  21444513.912   -15213766.051 9 -11381750.903 9
  22467771.735   -10906318.505 7  -9133608.079 6
  24490011.778     -268629.095 4   -460540.443 2
  21675435.558   -13401963.098 8 -10037874.999 8
  23005923.241   -29890775.365 7  -7689533.715 5
 94  2  1 23 20  0.0010000  0  7 19 29 27 31 16 18  2
  21177160.227   -12520359.553 9 -11789999.678 9
  24219587.289    -9487549.177 5   2136846.364 2
  21437651.723   -15249832.041 8 -11409854.253 9
  22472022.433   -10884035.649 7  -9116244.819 6
  24486534.965     -286904.708 4   -474781.141 2
  21690126.198   -13324768.854 8  -9977723.640 8
  22994320.793   -29951731.580 6  -7737032.013 5
 94  2  1 23 20 30.0010000  0  7 19 29 27 31 16 18  2
  21179328.866   -12508958.786 9 -11781115.978 9
  24240308.793    -9378581.732 5   2221755.928 2
  21430831.054   -15285693.724 8 -11437798.413 9
  22476367.145   -10861159.909 6  -9098419.600 6
  24483161.340     -304636.633 4   -488598.112 2
  21704893.555   -13247166.559 8  -9917254.351 8
  22982777.704   -30012410.304 6  -7784314.091 5
 94  2  1 23 21  0.0010000  0  7 19 29 27 31 16 18  2
  21181536.987   -12497346.362 9 -11772067.345 9
  24261091.126    -9269397.299 4   2306834.624 2
  21424036.078   -15321368.977 8 -11465597.298 9
  22480836.301   -10837700.688 7  -9080139.714 6
  24479898.699     -321840.866 5   -502003.997 2
  21719736.369   -13169155.508 8  -9856466.541 8
  22971279.224   -30072824.556 6  -7831390.071 5
 94  2  1 23 21 30.0010000  0  7 19 29 27 31 16 18  2
  21183789.778   -12485535.253 9 -11762863.872 9
  24281909.974    -9159998.757 5   2392080.125 2
  21417282.834   -15356878.041 8 -11493266.691 9
  22485403.909   -10813665.214 7  -9061410.785 6
  24476717.421     -338534.290 4   -515011.822 2
  21734659.348   -13090731.443 8  -9795356.884 8
  22959828.082   -30132981.796 6  -7878265.749 5
 94  2  1 23 22  0.0010000  0  7 19 29 27 31 16 18  2
  21186068.560   -12473521.395 8 -11753502.415 9
  24302767.434    -9050389.173 5   2477490.154 2
  21410560.018   -15392212.014 8 -11520799.632 9
  22490083.729   -10789041.644 7  -9042223.608 6
  24473621.404     -354707.517 3   -527614.378 1
  21749667.379   -13011888.695 9  -9733920.984 8
  22948432.491   -30192866.275 7  -7924928.909 5
 94  2  1 23 22 30.0010000  0  7 19 29 27 31 16 18  2
  21188392.941   -12461318.555 9 -11743993.712 9
  24323665.877    -8940601.195 5   2563039.171 2
  21403865.802   -15427373.405 8 -11548198.125 9
  22494893.120   -10763825.956 7  -9022574.966 6
  24470661.464     -370374.432 3   -539822.411 1
  21764743.462   -12932642.883 8  -9672171.018 8
  22937089.543   -30252484.097 7  -7971384.286 5
 94  2  1 23 23  0.0010000  0  7 19 29 27 31 16 18  2
  21190753.686   -12448912.793 8 -11734326.893 9
  24344583.655    -8830653.434 5   2648712.631 2
  21397210.350   -15462355.239 8 -11575456.678 9
  22499807.737   -10738007.350 7  -9002456.583 6
  24467795.088     -385531.753 3   -551633.164 1
  21779899.919   -12853005.661 8  -9610116.082 8
  22925792.854   -30311832.632 6  -8017629.866 5
 94  2  1 23 23 30.0010000  0  6 19 29 27 31 18  2
  21193161.140   -12436278.576 8 -11724482.049 9
  24365539.928    -8720554.543 5   2734503.889 2
  21390589.043   -15497142.996 8 -11602563.995 9
  22504824.764   -10711582.039 6  -8981865.404 6
  21795128.447   -12772972.444 8  -9547752.536 8
  22914550.757   -30370888.641 6  -8063647.449 5
 94  2  1 23 24  0.0010000  0  6 19 29 27 31 18  2
  21195604.598   -12423433.965 9 -11714473.254 9
  24386521.263    -8610327.833 5   2820394.776 2
  21384004.612   -15531741.995 8 -11629524.234 9
  22509976.518   -10684556.867 6  -8960806.853 6
  21810430.033   -12692560.318 8  -9485093.766 8
  22903369.787   -30429664.242 6  -8109446.589 5
 94  2  1 23 24 30.0010000  0  6 19 29 27 31 18  2
  21198088.439   -12410373.068 8 -11704295.920 9
  24407516.028    -8499951.589 5   2906402.163 2
  21377457.924   -15566151.293 8 -11656336.654 9
  22515233.258   -10656938.117 7  -8939285.733 6
  21825807.258   -12611761.738 8  -9422133.840 8
  22892239.273   -30488160.240 7  -8155027.827 5
 94  2  1 23 25  0.0010000  0  7 19 29 27 31 16 18  2
  21200613.711   -12397091.751 9 -11693946.856 9
  24428554.444    -8389400.664 5   2992545.674 2
  21370946.132   -15600370.514 8 -11683000.952 9
  22520595.886   -10628735.946 7  -8917310.033 6
  24457227.194      691414.65415    -13344.349
  21841261.919   -12530546.297 8  -9358849.120 8
  22881161.042   -30546371.973 6  -8200387.564 5
 94  2  1 23 25 30.0010000  0  7 19 29 27 31 16 18  2
  21203180.653   -12383604.933 9 -11683437.634 9
  24449628.414    -8278670.544 5   3078828.782 2
  21364471.214   -15634400.667 8 -11709517.927 9
  22526082.418   -10599947.753 7  -8894877.674 6
  24454838.238      678852.529 5    -23132.889 1
  21856797.944   -12448889.554 7  -9295220.509 8
  22870139.112   -30604294.705 6  -8245522.149 5
 94  2  1 23 26  0.0010000  0  7 19 29 27 31 16 18  2
  21205786.509   -12369921.073 9 -11672774.887 9
  24470734.943    -8167754.232 6   3165256.993 2
  21358031.462   -15668250.006 8 -11735893.987 9
  22531658.947   -10570571.845 6  -8871987.335 6
  24452548.483      666825.108 6    -32504.901 1
  21872424.416   -12366788.903 8  -9231245.994 8
  22859170.096   -30661942.742 6  -8290442.653 5
 94  2  1 23 26 30.0010000  0  7 19 29 27 31 16 18  2
  21208427.621   -12356041.394 9 -11661959.561 9
  24491873.968    -8056647.122 6   3251833.929 2
  21351619.531   -15701914.475 8 -11762126.026 9
  22537365.646   -10540609.066 7  -8848639.717 6
  24450353.762      655331.188 6    -41461.164 1
  21888134.110   -12284243.012 8  -9166924.555 8
  22848255.672   -30719318.516 6  -8335151.011 5
 94  2  1 23 27  0.0010000  0  7 19 29 27 31 16 18  2
  21211109.175   -12341954.171 9 -11650982.493 9
  24513044.952    -7945363.871 5   3338548.062 2
  21345254.967   -15735388.124 8 -11788209.352 9
  22543185.547   -10510039.898 7  -8824819.584 6
  24448272.003      644378.694 6    -49995.567 2
  21903926.008   -12201257.753 8  -9102260.744 8
  22837388.165   -30776431.494 6  -8379654.616 5
 94  2  1 23 27 30.0010000  0  7 19 29 27 31 16 18  2
  21213831.380   -12327643.767 9 -11639831.519 9
  24534264.112    -7833920.769 5   3425386.782 2
  21338919.903   -15768675.336 8 -11814147.403 9
  22549111.245   -10478846.533 6  -8800513.064 6
  24446292.684      633976.693 6    -58100.995 2
  21919792.463   -12117871.976 8  -9037284.814 8
  22826566.797   -30833273.797 6  -8423947.270 5
 94  2  1 23 28  0.0010000  0  7 19 29 27 31 16 18  2
  21216599.034   -12313101.198 9 -11628499.628 9
  24555490.258    -7722304.259 5   3512360.574 2
  21332617.966   -15801770.468 8 -11839935.805 9
  22555171.520   -10447022.593 7  -8775715.171 5
  24444415.353      624124.155 6    -65778.302 2
  21935734.497   -12034106.046 8  -8972012.685 8
  22815804.517   -30889834.324 7  -8468020.377 5
 94  2  1 23 28 30.0010000  0  7 19 29 27 31 16 18  2
  21219409.948   -12298325.363 9 -11616986.000 9
  24576760.533    -7610522.944 4   3599462.867 2
  21326361.957   -15834666.058 8 -11865568.724 9
  22561342.957   -10414577.455 6  -8750433.277 5
  24442637.434      614797.382 6    -73045.869 2
  21951734.990   -11949978.280 7  -8906458.593 7
  22805099.318   -30946102.975 7  -8511866.055 5
 94  2  1 23 29  0.0010000  0  7 19 29 27 31 16 18  2
  21222264.092   -12283311.155 8 -11605286.610 9
  24598071.699    -7498584.406 5   3686687.581 2
  21320142.822   -15867354.387 8 -11891040.129 9
  22567638.629   -10381513.130 6  -8724668.863 5
  24440970.588      605997.711 6    -79902.737 2
  21967817.027   -11865496.384 8  -8840628.566 7
  22794445.594   -31002063.630 7  -8555471.726 5
 94  2  1 23 29 30.0010000  0  7 19 29 27 31 16 18  2
  21225162.396   -12268075.645 8 -11593414.797 9
  24619396.237    -7386505.027 5   3774022.081 2
  21313954.356   -15899844.906 8 -11916357.413 9
  22574048.791   -10347848.561 6  -8698436.731 5
  24439383.907      597722.649 5    -86350.836 2
  21983959.142   -11780663.977 7  -8774525.423 7
  22783859.442   -31057709.456 7  -8598832.101 5
 94  2  1 23 30  0.0010000  0  8 19 29 27 31 16 18 28  2
  21228104.229   -12252620.249 8 -11581371.611 9
  24640748.984    -7274282.833 5   3861467.779 2
  21307814.127   -15932129.352 8 -11941514.116 9
  22580559.264   -10313609.133 7  -8671756.664 6
  24437914.414      589963.572 5    -92396.867 2
  22000174.406   -11695460.371 8  -8708133.020 7
  24997473.829      970235.07614     72110.446
  22773323.027   -31113068.466 7  -8641968.965 5
 94  2  1 23 30 30.0010000  0  8 19 29 27 31 16 18 28  2
  21231097.057   -12236918.788 9 -11569136.699 9
  24662136.418    -7161913.951 5   3949027.911 2
  21301709.004   -15964195.514 8 -11966500.715 9
  22587191.513   -10278789.151 7  -8644624.235 6
  24436534.529      582739.773 5    -98025.796 2
  22016462.340   -11609856.862 8  -8641429.030 7
  25013095.175     1052445.305 3    136168.970
  22762845.070   -31168138.918 7  -8684880.976 5
 94  2  1 23 31  0.0010000  0  8 19 29 27 31 16 18 28  2
  21234131.107   -12220973.809 9 -11556712.034 9
  24683558.148    -7049403.695 5   4036698.231 2
  21295649.688   -15996059.724 8 -11991329.955 9
  22593920.654   -10243390.987 6  -8617041.264 6
  24435266.347      576067.046 4   -103225.306 2
  22032832.328   -11523845.891 8  -8574407.501 7
  25028848.669     1135047.178 4    200534.078
  22752417.659   -31222944.802 7  -8727586.824 5
 94  2  1 23 31 30.0010000  0  8 19 29 27 31 16 18 28  2
  21237210.365   -12204776.653 9 -11544090.859 9
  24704996.007    -6936729.775 4   4124495.940 2
  21289622.151   -16027727.363 8 -12016006.022 9
  22600771.961   -10207420.036 7  -8589011.920 6
  24434105.791      569946.136 4   -107994.865 2
  22049274.085   -11437416.596 7  -8507060.016 7
  25044648.331     1218048.475 4    265210.378 1
  22742037.315   -31277498.223 7  -8770095.946 5
 94  2  1 23 32  0.0010000  0  8 19 29 27 31 16 18 28  2
  21240339.509   -12188331.747 8 -11531276.644 9
  24726461.897    -6823868.980 5   4212439.269 2
  21283632.208   -16059195.735 8 -12040526.811 9
  22607724.478   -10170882.416 7  -8560541.058 6
  24433039.908      564368.022 4   -112341.395 2
  22065802.543   -11350570.380 8  -8439387.684 7
  25060506.812     1301428.869 3    330182.084 1
  22731700.081   -31331798.824 7  -8812408.063 5
 94  2  1 23 32 30.0010000  0  8 19 29 27 31 16 18 28  2
  21243511.643   -12171663.126 9 -11518288.086 9
  24747983.607    -6710826.237 5   4300524.420 1
  21277680.848   -16090468.448 8 -12064895.133 9
  22614788.578   -10133767.695 7  -8531620.498 6
  24432092.864      559328.708 4   -116268.167 2
  22082404.839   -11263320.880 8  -8371401.071 7
  25076445.758     1385176.978 4    395440.401 1
  22721421.307   -31385832.163 7  -8854511.923 5
 94  2  1 23 33  0.0010000  0  8 19 29 27 31 16 18 28  2
  21246725.958   -12154780.272 9 -11505132.616 9
  24769527.683    -6597614.553 6   4388741.259 2
  21271771.309   -16121537.191 8 -12089104.516 9
  22621960.333   -10096078.571 7  -8502252.336 5
  24431228.083      554818.379 4   -119782.635 2
  22099082.803   -11175689.099 8  -8303116.564 7
  25092464.958     1469302.261 4    460992.575 1
  22711187.472   -31439591.858 7  -8896402.564 5
 94  2  1 23 33 30.0010000  0  8 19 29 27 31 16 18 28  2
  21249975.948   -12137695.635 9 -11491819.899 9
  24791093.703    -6484247.776 5   4477078.867 2
  21265897.565   -16152392.602 8 -12113147.696 9
  22629242.921   -10057816.166 7  -8472437.475 5
  24430456.207      550823.721 3   -122895.337 2
  22115826.422   -11087694.545 8  -8234549.422 7
  25108543.997     1553791.297 3    526828.276 1
  22701013.116   -31493064.098 7  -8938069.187 6
 94  2  1 23 34  0.0010000  0  7 19 29 27 31 16 18  2
  21253266.740   -12120419.167 9 -11478357.723 9
  24812687.184    -6370766.836 5   4565505.459 2
  21260069.660   -16183027.460 8 -12137018.986 9
  22636634.544   -10018968.164 7  -8442166.319 5
  24429819.448      547343.929 3   -125606.891 2
  22132635.455   -10999349.922 7  -8165709.459 7
  22690891.013   -31546248.362 7  -8979511.455 6
 94  2  1 23 34 30.0010000  0  7 19 29 27 31 16 18  2
  21256589.849   -12102938.642 8 -11464736.521 9
  24834300.092    -6257199.287 5   4653999.602 2
  21254285.404   -16213435.160 8 -12160713.277 9
  22644136.491    -9979526.648 7  -8411432.655 5
  24429244.116      544385.400 4   -127912.227 2
  22149516.829   -10910663.659 8  -8096603.309 6
  22680823.982   -31599146.560 7  -9020730.797 6
 94  2  1 23 35  0.0010000  0  8 19 29 27 31 16 18 28  2
  21259957.358   -12085246.157 8 -11450950.167 9
  24855922.803    -6143557.650 5   4742551.356 2
  21248537.993   -16243625.637 8 -12184238.323 9
  22651757.095    -9939501.517 7  -8380244.229 5
  24428773.292      541938.754 4   -129818.742 2
  22166453.484   -10821639.154 8  -8027233.607 6
  25157198.394     -647730.26214     73338.164
  22670814.782   -31651761.164 7  -9061729.170 6
 94  2  1 23 35 30.0010000  0  8 19 29 27 31 16 18 28  2
  21263363.600   -12067347.553 8 -11437003.193 9
  24877563.171    -6029838.184 6   4831163.812 2
  21242829.135   -16273607.855 8 -12207601.063 9
  22659477.980    -9898896.838 7  -8348604.202 5
  24428411.952      539992.802 4   -131335.052 1
  22183464.307   -10732264.818 8  -7957591.286 6
  25173529.108     -561804.692 3    140293.252
  22660856.306   -31704096.122 7  -9102509.594 6
 94  2  1 23 36  0.0010000  0  8 19 29 27 31 16 18 28  2
  21266812.532   -12049226.513 9 -11422882.897 9
  24899231.870    -5916020.735 6   4919852.641 2
  21237167.495   -16303384.851 8 -12230803.916 9
  22667314.795    -9857715.136 7  -8316514.560 5
  24428133.205      538551.468 5   -132458.090 1
  22200544.413   -10642513.743 8  -7887655.408 6
  25189939.448     -475521.057 4    207527.221 1
  22650955.120   -31756145.530 7  -9143067.531 6
 94  2  1 23 36 30.0010000  0  8 19 29 27 31 16 18 28  2
  21270304.694   -12030879.223 9 -11408586.296 9
  24920904.587    -5802083.157 6   5008635.031 2
  21231535.324   -16332974.361 8 -12253860.645 9
  22675259.085    -9815970.395 6  -8283986.188 6
  24427942.597      537606.102 4   -133194.966 1
  22217690.293   -10552391.103 7  -7817429.986 6
  25206433.099     -388898.113 3    275025.731 1
  22641103.220   -31807907.531 7  -9183401.512 6
 94  2  1 23 37  0.0010000  0  7 19 29 27 31 16 18  2
  21273840.627   -12012301.372 8 -11394110.060 9
  24942612.169    -5688006.707 5   5097525.641 2
  21225936.400   -16362370.557 8 -12276766.748 9
  22683312.260    -9773660.981 7  -8251017.817 6
  24427858.805      537157.461 5   -133544.512 1
  22234915.798   -10461891.589 7  -7746910.904 6
  22631306.423   -31859368.559 7  -9223500.975 6
 94  2  1 23 37 30.0010000  0  7 19 29 27 31 16 18  2
  21277419.369   -11993482.019 9 -11379445.610 9
  24964349.311    -5573775.685 5   5186536.675 2
  21220387.601   -16391565.826 8 -12299516.277 9
  22691468.683    -9730778.862 6  -8217603.178 5
  24427886.656      537226.954 5   -133490.265 1
  22252207.527   -10371021.077 7  -7676102.733 6
  22621572.581   -31910526.790 7  -9263364.493 6
 94  2  1 23 38  0.0010000  0  7 19 29 27 31 16 18  2
  21281043.470   -11974408.670 8 -11364583.263 9
  24986121.318    -5459393.957 5   5275665.196 2
  21214865.784   -16420567.640 8 -12322115.086 9
  22699742.955    -9687314.069 7  -8183734.528 5
  24427998.329      537828.396 4   -133021.659 1
  22269570.367   -10279801.115 7  -7605022.283 6
  22611895.221   -31961387.592 7  -9302996.248 6
 94  2  1 23 38 30.0010000  0  7 19 29 27 31 16 18  2
  21284724.202   -11955092.557 8 -11349531.758 9
  25007911.583    -5344878.674 4   5364897.732 2
  21209389.835   -16449366.837 9 -12344556.005 9
  22708124.792    -9643259.445 7  -8149406.246 6
  24428181.502      538953.306 3   -132145.180 1
  22286980.215   -10188257.779 7  -7533689.853 6
  22602269.574   -32011965.841 7  -9342407.800 6
 94  2  1 23 39  0.0010000  0  7 19 29 27 31 16 18  2
  21288443.217   -11935547.555 8 -11334301.872 9
  25029726.161    -5230251.034 4   5454217.807 2
  21203947.493   -16477952.032 9 -12366830.152 9
  22716619.112    -9598626.598 6  -8114627.381 5
  24428519.728      540600.494 3   -130861.583 1
  22304467.319   -10096393.522 7  -7462107.341 6
  22592694.953   -32062273.896 7  -9381608.838 6
 94  2  1 23 39 30.0010000  0  7 19 29 27 31 16 18  2
  21292206.482   -11915784.294 9 -11318901.935 9
  25051556.209    -5115526.412 4   5543613.436 2
  21198545.922   -16506333.534 8 -12388945.599 9
  22725219.168    -9553412.626 6  -8079395.758 5
  24428920.640      542768.050 3   -129172.499 1
  22322009.045   -10004205.561 7  -7390272.601 6
  22583171.566   -32112334.765 7  -9420617.264 6
 94  2  1 23 40  0.0010000  0  7 19 29 27 31 16 18  2
  21296004.673   -11895805.399 8 -11303333.964 9
  25073404.213    -5000721.450 4   5633071.767 1
  21193189.470   -16534499.572 9 -12410893.136 9
  22733938.062    -9507625.870 7  -8043717.800 5
  24429440.600      545444.632 3   -127086.689 1
  22339612.588    -9911678.855 7  -7318173.891 6
  22573691.379   -32162146.582 7  -9459431.633 6
 94  2  1 23 40 30.0010000  0  8 19 29 27 31 16 18  7  2
  21299847.293   -11875613.605 8 -11287600.105 9
  25095253.657    -4885835.298 4   5722593.282 1
  21187872.441   -16562431.458 8 -12432658.229 9
  22742750.072    -9461281.667 7  -8007605.420 5
  24430044.172      548633.204 3   -124602.001 1
  22357289.790    -9818797.314 7  -7245798.683 6
  25249592.271     -124652.50315   -247262.180
  22564260.957   -32211698.605 7  -9498043.545 6
 94  2  1 23 41  0.0010000  0  8 19 29 27 31 16 18  7  2
  21303735.511   -11855187.812 8 -11271683.895 9
  25117152.447    -4770857.031 5   5812186.544 1
  21182601.940   -16590128.690 9 -12454240.471 9
  22751681.908    -9414377.113 7  -7971056.406 5
  24430748.984      552360.068 4   -121697.834 1
  22375039.093    -9725543.912 8  -7173133.744 6
  25230307.821     -225970.415 5   -326210.952 1
  22554886.147   -32260973.062 7  -9536439.169 6
 94  2  1 23 41 30.0010000  0  8 19 29 27 31 16 18  7  2
  21307674.064   -11834511.711 9 -11255572.646 9
  25139051.777    -4655759.436 5   5901872.925 1
  21177374.699   -16617598.342 9 -12475645.379 9
  22760721.251    -9366882.739 7  -7934047.828 5
  24431576.472      556634.743 4   -118366.984 1
  22392855.489    -9631911.425 7  -7100173.395 6
  25211017.166     -327298.846 4   -405168.145 1
  22545563.291   -32309951.567 7  -9574604.218 6
 94  2  1 23 42  0.0010000  0  8 19 29 27 31 16 18  7  2
  21311656.837   -11813561.256 8 -11239247.602 9
  25160976.379    -4540524.929 4   5991665.936 1
  21172192.516   -16644826.588 9 -12496862.171 9
  22769864.951    -9318798.044 7  -7896579.218 5
  24432492.907      561479.620 4   -114591.833 1
  22410743.715    -9537893.712 7  -7026912.861 6
  25191726.601     -428629.414 2   -484126.922 1
  22536303.242   -32358604.861 7  -9612515.849 6
 94  2  1 23 42 30.0010000  0  7 19 27 31 16 18  7  2
  21315696.211   -11792348.846 8 -11222718.466 9
  21167057.941   -16671824.330 9 -12517899.361 9
  22779129.707    -9270123.809 7  -7858651.242 5
  24433517.868      566887.794 3   -110377.667 1
  22428707.489    -9443503.476 8  -6953362.071 6
  25172457.800     -529971.836 3   -563094.926 2
  22527107.918   -32406949.747 7  -9650187.155 6
 94  2  1 23 43  0.0010000  0  7 19 27 31 16 18  7  2
  21319778.664   -11770886.170 9 -11205994.282 9
  21161958.771   -16698598.285 8 -12538762.149 9
  22788504.816    -9220855.043 7  -7820259.951 5
  24434651.143      572850.252 3   -105731.607 1
  22446736.558    -9348746.333 8  -6879525.372 6
  25153185.432     -631324.497 3   -642070.897 2
  22517964.578   -32454994.777 7  -9687624.821 6
 94  2  1 23 43 30.0010000  0  5 19 27 31 18  2
  21323911.004   -11749174.863 9 -11189076.380 9
  21156911.825   -16725139.814 9 -12559443.852 9
  22797999.483    -9171001.673 6  -7781413.146 5
  22464839.915    -9253625.556 7  -6805405.347 6
  22508880.956   -32502734.124 7  -9724824.206 6
 94  2  1 23 44  0.0010000  0  6 19 27 31 18  7  2
  21328087.952   -11727232.612 8 -11171978.531 9
  21151903.612   -16751451.169 9 -12579946.179 9
  22807579.052    -9120614.004 6  -7742150.115 5
  22483001.702    -9158166.851 7  -6731021.954 6
  25114588.442     -834051.076 3   -800039.784 2
  22499843.622   -32550197.750 7  -9761808.898 6
 94  2  1 23 44 30.0010000  0  6 19 27 31 18  7  2
  21332298.867   -11705075.699 8 -11154713.382 9
  21146939.408   -16777528.596 8 -12600266.230 9
  22817271.881    -9069690.493 5  -7702469.487 5
  22501234.779    -9062385.000 7  -6656386.784 6
  25095303.663     -935437.792 4   -879042.254 2
  22490866.127   -32597399.030 7  -9798589.045 6
 94  2  1 23 45  0.0010000  0  7 19 27 31 16 18  7  2
  21336563.085   -11682688.974 9 -11137269.159 9
  21142022.842   -16803374.723 8 -12620406.052 9
  22827071.377    -9018232.865 7  -7662372.628 5
  24440213.432      138434.86413      5536.454
  22519514.145    -8966298.276 7  -6581514.031 6
  25076006.562    -1036835.528 5   -958053.179 2
  22481935.370   -32644318.903 7  -9835149.980 6
 94  2  1 23 45 30.0010000  0  7 19 27 31 16 18  7  2
  21340867.295   -11660057.282 8 -11119634.063 9
  21137149.326   -16828989.812 9 -12640365.835 9
  22836958.353    -8966238.838 6  -7621857.807 5
  24441801.883      146953.661 3     12172.016
  22537857.936    -8869911.509 7  -6506407.480 6
  25056709.971    -1138246.496 5  -1037074.400 2
  22473061.453   -32690947.341 7  -9871483.783 6
 94  2  1 23 46  0.0010000  0  7 19 27 31 16 18  7  2
  21345220.851   -11637181.432 8 -11101808.729 9
  21132318.500   -16854368.229 9 -12660141.208 9
  22846958.170    -8913687.745 7  -7580908.876 5
  24443514.867      155962.910 3     19194.279
  22556256.559    -8773227.527 8  -6431069.358 6
  25037403.996    -1239671.255 4  -1116106.351 2
  22464246.056   -32737289.166 7  -9907594.291 6
 94  2  1 23 46 30.0010000  0  7 19 27 31 16 18  7  2
  21349619.886   -11614053.188 8 -11083786.720 9
  21127538.519   -16879504.927 9 -12679728.232 9
  22857071.818    -8860552.384 7  -7539504.702 5
  24445353.134      165485.004 3     26614.153
  22574709.624    -8676242.929 7  -6355496.944 6
  25018109.413    -1341095.167 4  -1195137.583 2
  22455488.099   -32783317.371 7  -9943460.391 6
 94  2  1 23 47  0.0010000  0  7 19 27 31 16 18  7  2
  21354078.219   -11590662.691 9 -11065560.365 9
  21122795.863   -16904407.148 9 -12699132.539 9
  22867291.983    -8806840.612 6  -7497651.372 5
  24447248.422      175516.703 3     34431.048 1
  22593225.975    -8578947.944 7  -6279682.728 6
  24998798.252    -1442508.631 4  -1274160.774 2
  22446786.893   -32829024.644 7  -9979076.424 6
 94  2  1 23 47 30.0010000  0  7 19 27 31 16 18  7  2
  21358574.776   -11567009.422 8 -11047129.256 9
  21118106.599   -16929056.095 9 -12718339.510 9
  22877619.474    -8752552.273 6  -7455348.800 5
  24449258.321      186063.388 3     42649.331 1
  22611802.945    -8481316.866 7  -6203606.612 6
  24979510.055    -1543903.683 5  -1353169.577 2
  22438149.302   -32874420.433 8 -10014449.737 6
 94  2  1 23 48  0.0010000  0  7 19 27 31 16 18  7  2
  21363130.003   -11543093.172 8 -11028493.220 9
  21113465.362   -16953436.514 9 -12737337.228 9
  22888063.913    -8697695.123 6  -7412602.951 5
  24451362.564      197148.209 4     51286.877 1
  22630448.267    -8383336.808 7  -6127258.533 6
  24960223.507    -1645253.603 5  -1432143.249 2
  22429571.071   -32919506.043 8 -10049581.342 6
 94  2  1 23 48 30.0010000  0  7 19 27 31 16 18  7  2
  21367724.862   -11518916.070 8 -11009653.904 9
  21108877.368   -16977557.501 9 -12756132.782 9
  22898603.866    -8642289.718 7  -7369429.921 5
  24453580.429      208777.574 5     60348.791 1
  22649158.254    -8285006.084 7  -6050637.239 6
  24940951.019    -1746553.212 5  -1511077.739 2
  22421047.132   -32964286.773 7 -10084475.394 6
 94  2  1 23 49  0.0010000  0  7 19 27 31 16 18  7  2
  21372375.782   -11494483.721 8 -10990615.712 9
  21104332.784   -17001426.848 9 -12774732.269 9
  22909254.503    -8586345.722 7  -7325837.185 5
  24455897.105      220941.280 5     69826.985 1
  22667939.862    -8186315.896 7  -5973735.809 6
  24921687.105    -1847813.528 5  -1589981.590 2
  22412585.340   -33008779.484 7 -10119144.982 6
 94  2  1 23 49 30.0010000  0  7 19 27 31 16 18  7  2
  21377072.870   -11469799.384 8 -10971381.164 9
  21099839.855   -17025037.758 8 -12793130.367 9
  22919997.686    -8529857.185 7  -7281820.161 5
  24458307.886      233648.864 5     79729.018 1
  22686790.632    -8087271.056 7  -5896558.048 6
  24902419.414    -1949031.363 5  -1668852.447 2
  22404168.697   -33052984.205 7 -10153590.220 6
 94  2  1 23 50  0.0010000  0  7 19 27 31 16 18  7  2
  21381815.707   -11444867.968 8 -10951954.099 9
  21095391.564   -17048403.884 8 -12811337.730 9
  22930853.740    -8472822.962 6  -7237377.899 5
  24460831.779      246886.189 5     90043.695 1
  22705701.180    -7987896.200 7  -5819123.130 6
  24883168.061    -2050207.136 4  -1747690.458 2
  22395815.130   -33096890.530 7 -10187802.910 6
 94  2  1 23 50 30.0010000  0  7 19 27 31 16 18  7  2
  21386613.046   -11419668.795 8 -10932318.384 9
  21090997.956   -17071520.023 8 -12829350.268 9
  22941815.981    -8415215.560 6  -7192489.052 5
  24463452.684      260648.797 5    100767.787 1
  22724673.456    -7888190.902 7  -5741430.737 6
  24863923.994    -2151337.768 4  -1826493.311 2
  22387519.543   -33140481.521 7 -10221769.892 6
 94  2  1 23 51  0.0010000  0  7 19 27 31 16 18  7  2
  21391459.641   -11394205.548 8 -10912476.898 9
  21086644.430   -17094383.307 8 -12847165.802 9
  22952883.899    -8357047.297 7  -7147163.099 5
  24466160.919      274922.033 5    111889.696 1
  22743703.742    -7788166.798 7  -5663489.914 6
  24844686.222    -2252425.215 3  -1905262.584 2
  22379278.368   -33183765.917 7 -10255497.988 7
 94  2  1 23 51 30.0010000  0  7 19 27 31 16 18  7  2
  21396354.892   -11368468.620 8 -10892422.162 9
  21082344.057   -17116981.452 8 -12864774.739 9
  22964058.633    -8298314.546 7  -7101397.320 5
  24468978.219      289700.879 5    123405.661 1
  22762798.393    -7687831.787 7  -5585306.814 6
  24825443.683    -2353446.429 3  -1983980.277 2
  22371108.604   -33226738.534 7 -10288983.121 7
 94  2  1 23 52  0.0010000  0  7 19 27 31 16 18  7  2
  21401303.806   -11342468.774 9 -10872162.543 9
  21078090.002   -17139318.674 8 -12882180.351 9
  22975341.472    -8239037.259 6  -7055207.243 5
  24471883.987      304958.264 5    135294.520 1
  22781951.353    -7587197.810 7  -5506890.771 6
  24806240.417    -2454422.498 4  -2062662.802 2
  22362979.312   -33269426.286 7 -10322246.271 7
 94  2  1 23 52 30.0010000  0  7 19 27 31 16 18  7  2
  21406300.417   -11316211.726 9 -10851702.514 9
  21073889.610   -17161395.862 8 -12899383.348 9
  22986722.973    -8179224.948 6  -7008600.260 5
  24474872.259      320694.774 5    147556.875 1
  22801160.315    -7486257.030 7  -5428235.691 6
  24787037.991    -2555360.931 5  -2141316.018 3
  22354905.601   -33311854.946 7 -10355307.556 7
 94  2  1 23 53  0.0010000  0  7 19 27 31 16 18  7  2
  21411343.465   -11289713.949 9 -10831054.897 9
  21069741.951   -17183215.196 8 -12916385.412 9
  22998201.217    -8118890.837 6  -6961586.685 5
  24477960.810      336901.965 5    160185.884 1
  22820421.531    -7385016.625 7  -5349347.094 6
  24767831.847    -2656276.042 5  -2219951.016 3
  22346878.478   -33354040.259 7 -10388179.174 7
 94  2  1 23 53 30.0010000  0  7 19 27 31 16 18  7  2
  21416427.556   -11262982.203 8 -10810224.951 9
  21065633.895   -17204780.997 8 -12933189.898 9
  23009787.296    -8058037.895 6  -6914168.811 5
  24481129.287      353577.462 5    173179.755 2
  22839732.902    -7283489.576 6  -5270235.135 6
  24748627.352    -2757183.315 5  -2298579.938 3
  22338902.410   -33395975.241 7 -10420855.740 7
 94  2  1 23 54  0.0010000  0  7 19 27 31 16 18  7  2
  21421561.112   -11236018.707 8 -10789214.440 9
  21061580.701   -17226090.145 8 -12949794.404 9
  23021460.734    -7996664.706 7  -6866345.549 5
  24484401.552      370745.759 5    186557.597 2
  22859118.322    -7181678.351 7  -5190901.759 6
  24729431.311    -2858089.174 5  -2377207.703 3
  22330968.942   -33437652.206 7 -10453331.275 7
 94  2  1 23 54 30.0010000  0  7 19 27 31 16 18  7  2
  21426736.849   -11208823.565 8 -10768023.419 9
  21057571.876   -17247154.679 9 -12966208.322 9
  23033236.042    -7934780.316 7  -6818123.940 5
  24487772.298      388422.618 5    200331.767 2
  22878549.040    -7079590.421 7  -5111352.746 6
  24710236.050    -2958987.299 5  -2455829.485 3
  22323094.863   -33479047.545 7 -10485587.371 7
 94  2  1 23 55  0.0010000  0  7 19 27 31 16 18  7  2
  21431953.238   -11181397.620 8 -10746652.559 9
  21053609.130   -17267975.622 8 -12982432.423 9
  23045109.353    -7872396.221 6  -6769512.969 5
  24491215.354      406596.811 5    214493.495 2
  22898023.498    -6977241.712 7  -5031600.560 6
  24691032.304    -3059866.317 5  -2534436.329 3
  22315272.288   -33520140.301 7 -10517607.674 7
 94  2  1 23 55 30.0010000  0  7 19 27 31 16 18  7  2
  21437217.323   -11153745.241 8 -10725105.235 9
  21049692.941   -17288562.209 9 -12998473.886 9
  23057071.492    -7809518.478 6  -6720517.324 5
  24494779.527      425278.246 5    229050.452 2
  22917548.351    -6874641.928 7  -4951652.707 5
  24671841.060    -3160713.889 5  -2613018.731 3
  22307509.552   -33560930.494 7 -10549392.213 7
 94  2  1 23 56  0.0010000  0  7 19 27 31 16 18  7  2
  21442519.962   -11125860.100 8 -10703376.557 9
  21045818.183   -17308921.922 8 -13014338.606 9
  23069139.967    -7746134.618 6  -6671127.325 5
  24498420.956      444461.412 5    243998.372 2
  22937113.976    -6771784.617 7  -4871504.223 5
  24652664.925    -3261510.589 5  -2691561.413 3
  22299811.482   -33601415.888 8 -10580939.227 7
 94  2  1 23 56 30.0010000  0  7 19 27 31 16 18  7  2
  21447877.733   -11097749.893 8 -10681472.490 9
  21041985.187   -17329068.887 8 -13030037.516 9
  23081296.101    -7682252.885 6  -6621349.365 5
  24502174.298      464113.085 5    259311.342 2
  22956738.031    -6668679.123 7  -4791162.321 5
  24633486.872    -3362260.496 5  -2770067.683 3
  22292158.650   -33641613.909 7 -10612262.334 7
 94  2  1 23 57  0.0020000  0  7 19 27 31 16 18  7  2
  21453268.032   -11069407.480 8 -10659387.506 9
  21038189.604   -17349004.703 9 -13045571.914 9
  23093539.805    -7617864.470 6  -6571176.585 4
  24505996.682      484221.608 6    274980.333 2
  22976402.258    -6565325.216 7  -4710626.863 5
  24614327.586    -3462957.158 5  -2848532.508 3
  22284554.924   -33681548.627 7 -10643380.289 7
 94  2  1 23 57 30.0020000  0  7 19 27 31 16 18  7  2
  21458702.729   -11040841.331 9 -10637128.159 9
  21034435.993   -17368739.698 9 -13060949.810 9
  23105901.088    -7552980.139 6  -6520617.347 4
  24509898.211      504774.763 5    290995.771 2
  22996110.644    -6461736.192 7  -4629908.168 5
  24595167.460    -3563614.599 5  -2926966.736 3
  22277008.128   -33721236.422 7 -10674305.816 7
 94  2  1 23 58  0.0020000  0  7 19 27 31 16 18  7  2
  21464184.764   -11012037.947 8 -10614683.970 9
  21030717.038   -17388268.693 9 -13076167.192 9
  23118331.712    -7487603.141 6  -6469674.268 4
  24513888.748      525757.506 5    307345.938 2
  23015881.267    -6357899.833 7  -4548996.736 5
  24576023.313    -3664233.638 5  -3005371.055 3
  22269499.526   -33760684.119 7 -10705044.230 7
 94  2  1 23 58 30.0020000  0  7 19 27 31 16 18  7  2
  21469712.997   -10982982.750 8 -10592043.558 9
  21027045.389   -17407567.568 9 -13091205.267 9
  23130866.185    -7421742.450 6  -6418354.258 5
  24517975.279      547195.387 5    324050.812 2
  23035689.244    -6253808.531 7  -4467886.665 5
  24556888.640    -3764811.566 5  -3083743.339 3
  22262035.893   -33799895.146 7 -10735598.252 7
